﻿<?xml version="1.0" encoding="utf-8"?><gpx creator="Garmin Desktop App" version="1.1" xsi:schemaLocation="http://www.topografix.com/GPX/1/1 http://www.topografix.com/GPX/1/1/gpx.xsd http://www.garmin.com/xmlschemas/WaypointExtension/v1 http://www8.garmin.com/xmlschemas/WaypointExtensionv1.xsd http://www.garmin.com/xmlschemas/TrackPointExtension/v1 http://www.garmin.com/xmlschemas/TrackPointExtensionv1.xsd http://www.garmin.com/xmlschemas/GpxExtensions/v3 http://www8.garmin.com/xmlschemas/GpxExtensionsv3.xsd http://www.garmin.com/xmlschemas/ActivityExtension/v1 http://www8.garmin.com/xmlschemas/ActivityExtensionv1.xsd http://www.garmin.com/xmlschemas/AdventuresExtensions/v1 http://www8.garmin.com/xmlschemas/AdventuresExtensionv1.xsd http://www.garmin.com/xmlschemas/PressureExtension/v1 http://www.garmin.com/xmlschemas/PressureExtensionv1.xsd http://www.garmin.com/xmlschemas/TripExtensions/v1 http://www.garmin.com/xmlschemas/TripExtensionsv1.xsd http://www.garmin.com/xmlschemas/TripMetaDataExtensions/v1 http://www.garmin.com/xmlschemas/TripMetaDataExtensionsv1.xsd http://www.garmin.com/xmlschemas/ViaPointTransportationModeExtensions/v1 http://www.garmin.com/xmlschemas/ViaPointTransportationModeExtensionsv1.xsd http://www.garmin.com/xmlschemas/CreationTimeExtension/v1 http://www.garmin.com/xmlschemas/CreationTimeExtensionsv1.xsd http://www.garmin.com/xmlschemas/AccelerationExtension/v1 http://www.garmin.com/xmlschemas/AccelerationExtensionv1.xsd http://www.garmin.com/xmlschemas/PowerExtension/v1 http://www.garmin.com/xmlschemas/PowerExtensionv1.xsd http://www.garmin.com/xmlschemas/VideoExtension/v1 http://www.garmin.com/xmlschemas/VideoExtensionv1.xsd" xmlns="http://www.topografix.com/GPX/1/1" xmlns:xsi="http://www.w3.org/2001/XMLSchema-instance" xmlns:wptx1="http://www.garmin.com/xmlschemas/WaypointExtension/v1" xmlns:gpxtrx="http://www.garmin.com/xmlschemas/GpxExtensions/v3" xmlns:gpxtpx="http://www.garmin.com/xmlschemas/TrackPointExtension/v1" xmlns:gpxx="http://www.garmin.com/xmlschemas/GpxExtensions/v3" xmlns:trp="http://www.garmin.com/xmlschemas/TripExtensions/v1" xmlns:adv="http://www.garmin.com/xmlschemas/AdventuresExtensions/v1" xmlns:prs="http://www.garmin.com/xmlschemas/PressureExtension/v1" xmlns:tmd="http://www.garmin.com/xmlschemas/TripMetaDataExtensions/v1" xmlns:vptm="http://www.garmin.com/xmlschemas/ViaPointTransportationModeExtensions/v1" xmlns:ctx="http://www.garmin.com/xmlschemas/CreationTimeExtension/v1" xmlns:gpxacc="http://www.garmin.com/xmlschemas/AccelerationExtension/v1" xmlns:gpxpx="http://www.garmin.com/xmlschemas/PowerExtension/v1" xmlns:vidx1="http://www.garmin.com/xmlschemas/VideoExtension/v1">

  <metadata>
    <link href="http://www.garmin.com">
      <text>Garmin International</text>
    </link>
    <time>2021-08-22T18:46:55Z</time>
    <bounds maxlat="50.802374482154846" maxlon="4.469519946724176" minlat="50.739717576652765" minlon="4.41108793951571" />
  </metadata>

  <trk>
    <name>station  noord tot marry horse 23 km</name>
    <extensions>
      <gpxx:TrackExtension>
        <gpxx:DisplayColor>Red</gpxx:DisplayColor>
      </gpxx:TrackExtension>
    </extensions>
    <trkseg>
      <trkpt lat="50.766760697588325" lon="4.448562674224377">
        <ele>101.42</ele>
        <time>2019-04-14T08:46:33Z</time>
      </trkpt>
      <trkpt lat="50.76672624796629" lon="4.448850341141224">
        <ele>101.37</ele>
        <time>2019-04-14T08:46:48Z</time>
      </trkpt>
      <trkpt lat="50.766768073663116" lon="4.448934914544225">
        <ele>101.23999999999999</ele>
        <time>2019-04-14T08:47:15Z</time>
      </trkpt>
      <trkpt lat="50.766837727278471" lon="4.449029713869095">
        <ele>101.19</ele>
        <time>2019-04-14T08:47:24Z</time>
      </trkpt>
      <trkpt lat="50.766927246004343" lon="4.449101379141212">
        <ele>101.12</ele>
        <time>2019-04-14T08:47:33Z</time>
      </trkpt>
      <trkpt lat="50.766983237117529" lon="4.449180420488119">
        <ele>101.06999999999999</ele>
        <time>2019-04-14T08:47:40Z</time>
      </trkpt>
      <trkpt lat="50.767109300941229" lon="4.449389297515154">
        <ele>100.98999999999999</ele>
        <time>2019-04-14T08:47:54Z</time>
      </trkpt>
      <trkpt lat="50.767247183248401" lon="4.449606640264392">
        <ele>98.569999999999993</ele>
        <time>2019-04-14T08:48:06Z</time>
      </trkpt>
      <trkpt lat="50.767507944256067" lon="4.449868826195598">
        <ele>97.140000000000001</ele>
        <time>2019-04-14T08:48:31Z</time>
      </trkpt>
      <trkpt lat="50.767633588984609" lon="4.449935294687748">
        <ele>96.939999999999998</ele>
        <time>2019-04-14T08:48:46Z</time>
      </trkpt>
      <trkpt lat="50.767756719142199" lon="4.449977958574891">
        <ele>96.599999999999994</ele>
        <time>2019-04-14T08:49:11Z</time>
      </trkpt>
      <trkpt lat="50.767830479890108" lon="4.450038056820631">
        <ele>96.530000000000001</ele>
        <time>2019-04-14T08:49:17Z</time>
      </trkpt>
      <trkpt lat="50.767882196232677" lon="4.450087677687407">
        <ele>96.549999999999997</ele>
        <time>2019-04-14T08:49:20Z</time>
      </trkpt>
      <trkpt lat="50.76794782653451" lon="4.450199073180556">
        <ele>96.439999999999998</ele>
        <time>2019-04-14T08:49:27Z</time>
      </trkpt>
      <trkpt lat="50.768021000549197" lon="4.450290855020285">
        <ele>95.379999999999995</ele>
        <time>2019-04-14T08:49:33Z</time>
      </trkpt>
      <trkpt lat="50.768122337758541" lon="4.450379367917776">
        <ele>94.310000000000002</ele>
        <time>2019-04-14T08:49:42Z</time>
      </trkpt>
      <trkpt lat="50.768148405477405" lon="4.45039520971477">
        <ele>93.609999999999999</ele>
        <time>2019-04-14T08:49:45Z</time>
      </trkpt>
      <trkpt lat="50.768222585320473" lon="4.450467461720109">
        <ele>92.319999999999993</ele>
        <time>2019-04-14T08:49:52Z</time>
      </trkpt>
      <trkpt lat="50.768416542559862" lon="4.450667202472687">
        <ele>90.569999999999993</ele>
        <time>2019-04-14T08:50:10Z</time>
      </trkpt>
      <trkpt lat="50.768568590283394" lon="4.450811455026269">
        <ele>89.719999999999999</ele>
        <time>2019-04-14T08:50:23Z</time>
      </trkpt>
      <trkpt lat="50.768703874200583" lon="4.450895022600889">
        <ele>88.859999999999999</ele>
        <time>2019-04-14T08:50:35Z</time>
      </trkpt>
      <trkpt lat="50.768780065700412" lon="4.450999712571502">
        <ele>87.609999999999999</ele>
        <time>2019-04-14T08:50:43Z</time>
      </trkpt>
      <trkpt lat="50.76878878287971" lon="4.451014464721084">
        <ele>87.620000000000005</ele>
        <time>2019-04-14T08:50:44Z</time>
      </trkpt>
      <trkpt lat="50.768948122859001" lon="4.451217725872994">
        <ele>87.409999999999997</ele>
        <time>2019-04-14T08:50:58Z</time>
      </trkpt>
      <trkpt lat="50.769080221652985" lon="4.451380670070648">
        <ele>86.230000000000004</ele>
        <time>2019-04-14T08:51:12Z</time>
      </trkpt>
      <trkpt lat="50.76918063685298" lon="4.451602958142757">
        <ele>86.260000000000005</ele>
        <time>2019-04-14T08:51:24Z</time>
      </trkpt>
      <trkpt lat="50.769247775897384" lon="4.451709408313036">
        <ele>85.159999999999997</ele>
        <time>2019-04-14T08:51:31Z</time>
      </trkpt>
      <trkpt lat="50.769312400370836" lon="4.45186011493206">
        <ele>87.790000000000006</ele>
        <time>2019-04-14T08:51:42Z</time>
      </trkpt>
      <trkpt lat="50.769420694559813" lon="4.452107883989811">
        <ele>87.689999999999998</ele>
        <time>2019-04-14T08:51:55Z</time>
      </trkpt>
      <trkpt lat="50.76947039924562" lon="4.452205281704664">
        <ele>87.510000000000005</ele>
        <time>2019-04-14T08:52:00Z</time>
      </trkpt>
      <trkpt lat="50.769625548273325" lon="4.45245279930532">
        <ele>87.530000000000001</ele>
        <time>2019-04-14T08:52:12Z</time>
      </trkpt>
      <trkpt lat="50.769656812772155" lon="4.452537959441543">
        <ele>87.540000000000006</ele>
        <time>2019-04-14T08:52:15Z</time>
      </trkpt>
      <trkpt lat="50.769664691761136" lon="4.452562518417835">
        <ele>87.519999999999996</ele>
        <time>2019-04-14T08:52:16Z</time>
      </trkpt>
      <trkpt lat="50.769673576578498" lon="4.452583389356732">
        <ele>87.510000000000005</ele>
        <time>2019-04-14T08:52:17Z</time>
      </trkpt>
      <trkpt lat="50.769685814157128" lon="4.452608283609152">
        <ele>87.510000000000005</ele>
        <time>2019-04-14T08:52:18Z</time>
      </trkpt>
      <trkpt lat="50.769699476659298" lon="4.452639045193791">
        <ele>87.670000000000002</ele>
        <time>2019-04-14T08:52:19Z</time>
      </trkpt>
      <trkpt lat="50.769720515236259" lon="4.452667208388448">
        <ele>87.510000000000005</ele>
        <time>2019-04-14T08:52:20Z</time>
      </trkpt>
      <trkpt lat="50.769741972908378" lon="4.452698305249214">
        <ele>87.519999999999996</ele>
        <time>2019-04-14T08:52:21Z</time>
      </trkpt>
      <trkpt lat="50.769762508571148" lon="4.452740298584104">
        <ele>87.519999999999996</ele>
        <time>2019-04-14T08:52:22Z</time>
      </trkpt>
      <trkpt lat="50.769786480814219" lon="4.452781369909644">
        <ele>87.560000000000002</ele>
        <time>2019-04-14T08:52:23Z</time>
      </trkpt>
      <trkpt lat="50.769811123609543" lon="4.452817663550377">
        <ele>87.519999999999996</ele>
        <time>2019-04-14T08:52:24Z</time>
      </trkpt>
      <trkpt lat="50.769835263490677" lon="4.452850939705968">
        <ele>87.670000000000002</ele>
        <time>2019-04-14T08:52:25Z</time>
      </trkpt>
      <trkpt lat="50.77006216160953" lon="4.453219324350357">
        <ele>85.319999999999993</ele>
        <time>2019-04-14T08:52:37Z</time>
      </trkpt>
      <trkpt lat="50.770084876567125" lon="4.45325369015336">
        <ele>85.260000000000005</ele>
        <time>2019-04-14T08:52:38Z</time>
      </trkpt>
      <trkpt lat="50.770400874316692" lon="4.453426357358694">
        <ele>84.129999999999995</ele>
        <time>2019-04-14T08:52:50Z</time>
      </trkpt>
      <trkpt lat="50.770569685846567" lon="4.453427363187075">
        <ele>82.730000000000004</ele>
        <time>2019-04-14T08:53:04Z</time>
      </trkpt>
      <trkpt lat="50.770575804635882" lon="4.45342811755836">
        <ele>82.760000000000005</ele>
        <time>2019-04-14T08:53:05Z</time>
      </trkpt>
      <trkpt lat="50.770724415779114" lon="4.453324768692255">
        <ele>80.829999999999998</ele>
        <time>2019-04-14T08:53:19Z</time>
      </trkpt>
      <trkpt lat="50.770769845694304" lon="4.453250840306282">
        <ele>79.370000000000005</ele>
        <time>2019-04-14T08:53:26Z</time>
      </trkpt>
      <trkpt lat="50.770788621157408" lon="4.453193759545684">
        <ele>79.370000000000005</ele>
        <time>2019-04-14T08:53:29Z</time>
      </trkpt>
      <trkpt lat="50.770829189568758" lon="4.453156460076571">
        <ele>77.140000000000001</ele>
        <time>2019-04-14T08:53:37Z</time>
      </trkpt>
      <trkpt lat="50.770907392725348" lon="4.453118992969394">
        <ele>77.859999999999999</ele>
        <time>2019-04-14T08:53:46Z</time>
      </trkpt>
      <trkpt lat="50.770919546484947" lon="4.453108683228493">
        <ele>77.909999999999997</ele>
        <time>2019-04-14T08:53:47Z</time>
      </trkpt>
      <trkpt lat="50.770929856225848" lon="4.453102648258209">
        <ele>77.849999999999994</ele>
        <time>2019-04-14T08:53:48Z</time>
      </trkpt>
      <trkpt lat="50.770973861217499" lon="4.453086387366056">
        <ele>75.230000000000004</ele>
        <time>2019-04-14T08:53:52Z</time>
      </trkpt>
      <trkpt lat="50.77125339768827" lon="4.452891424298286">
        <ele>74.040000000000006</ele>
        <time>2019-04-14T08:54:08Z</time>
      </trkpt>
      <trkpt lat="50.77135800383985" lon="4.452846497297287">
        <ele>73.159999999999997</ele>
        <time>2019-04-14T08:54:15Z</time>
      </trkpt>
      <trkpt lat="50.771406786516309" lon="4.452830320224166">
        <ele>73.140000000000001</ele>
        <time>2019-04-14T08:54:18Z</time>
      </trkpt>
      <trkpt lat="50.771425645798445" lon="4.45281389169395">
        <ele>73.129999999999995</ele>
        <time>2019-04-14T08:54:19Z</time>
      </trkpt>
      <trkpt lat="50.771439727395773" lon="4.452799391001463">
        <ele>73.209999999999994</ele>
        <time>2019-04-14T08:54:20Z</time>
      </trkpt>
      <trkpt lat="50.771453306078911" lon="4.452784806489945">
        <ele>73.25</ele>
        <time>2019-04-14T08:54:21Z</time>
      </trkpt>
      <trkpt lat="50.771467303857207" lon="4.452772233635187">
        <ele>73.219999999999999</ele>
        <time>2019-04-14T08:54:22Z</time>
      </trkpt>
      <trkpt lat="50.771505776792765" lon="4.452733928337693">
        <ele>73.200000000000003</ele>
        <time>2019-04-14T08:54:26Z</time>
      </trkpt>
      <trkpt lat="50.77151290141046" lon="4.452720014378429">
        <ele>73.209999999999994</ele>
        <time>2019-04-14T08:54:27Z</time>
      </trkpt>
      <trkpt lat="50.771536286920309" lon="4.452695455402136">
        <ele>73.180000000000007</ele>
        <time>2019-04-14T08:54:29Z</time>
      </trkpt>
      <trkpt lat="50.771545758470893" lon="4.452683301642537">
        <ele>73.170000000000002</ele>
        <time>2019-04-14T08:54:30Z</time>
      </trkpt>
      <trkpt lat="50.771558079868555" lon="4.452624209225178">
        <ele>73.150000000000006</ele>
        <time>2019-04-14T08:54:34Z</time>
      </trkpt>
      <trkpt lat="50.771566545590758" lon="4.452589424327016">
        <ele>73.120000000000005</ele>
        <time>2019-04-14T08:54:36Z</time>
      </trkpt>
      <trkpt lat="50.771577609702945" lon="4.452560422942042">
        <ele>73.060000000000002</ele>
        <time>2019-04-14T08:54:37Z</time>
      </trkpt>
      <trkpt lat="50.771583644673228" lon="4.452535109594464">
        <ele>72.989999999999995</ele>
        <time>2019-04-14T08:54:38Z</time>
      </trkpt>
      <trkpt lat="50.771589931100607" lon="4.452513316646218">
        <ele>72.980000000000004</ele>
        <time>2019-04-14T08:54:39Z</time>
      </trkpt>
      <trkpt lat="50.771593619138002" lon="4.452491691336036">
        <ele>75.400000000000006</ele>
        <time>2019-04-14T08:54:40Z</time>
      </trkpt>
      <trkpt lat="50.771593619138002" lon="4.452470317482948">
        <ele>75.390000000000001</ele>
        <time>2019-04-14T08:54:41Z</time>
      </trkpt>
      <trkpt lat="50.771597810089588" lon="4.452450955286622">
        <ele>75.379999999999995</ele>
        <time>2019-04-14T08:54:42Z</time>
      </trkpt>
      <trkpt lat="50.771597642451525" lon="4.452432598918676">
        <ele>75.450000000000003</ele>
        <time>2019-04-14T08:54:43Z</time>
      </trkpt>
      <trkpt lat="50.771598061546683" lon="4.452411727979779">
        <ele>75.359999999999999</ele>
        <time>2019-04-14T08:54:44Z</time>
      </trkpt>
      <trkpt lat="50.771608958020806" lon="4.452356155961752">
        <ele>75.310000000000002</ele>
        <time>2019-04-14T08:54:50Z</time>
      </trkpt>
      <trkpt lat="50.771639216691256" lon="4.452181728556752">
        <ele>75.049999999999997</ele>
        <time>2019-04-14T08:55:04Z</time>
      </trkpt>
      <trkpt lat="50.771633433178067" lon="4.451955249533057">
        <ele>75.120000000000005</ele>
        <time>2019-04-14T08:55:17Z</time>
      </trkpt>
      <trkpt lat="50.771629326045513" lon="4.451781492680311">
        <ele>75.040000000000006</ele>
        <time>2019-04-14T08:55:26Z</time>
      </trkpt>
      <trkpt lat="50.771422795951366" lon="4.451167099177837">
        <ele>75.700000000000003</ele>
        <time>2019-04-14T08:55:53Z</time>
      </trkpt>
      <trkpt lat="50.771391950547695" lon="4.451120244339109">
        <ele>75.700000000000003</ele>
        <time>2019-04-14T08:55:54Z</time>
      </trkpt>
      <trkpt lat="50.771387172862887" lon="4.451097110286355">
        <ele>75.680000000000007</ele>
        <time>2019-04-14T08:55:55Z</time>
      </trkpt>
      <trkpt lat="50.771380886435509" lon="4.451072886586189">
        <ele>75.670000000000002</ele>
        <time>2019-04-14T08:55:56Z</time>
      </trkpt>
      <trkpt lat="50.771263372153044" lon="4.450805922970176">
        <ele>75.680000000000007</ele>
        <time>2019-04-14T08:56:07Z</time>
      </trkpt>
      <trkpt lat="50.771228251978755" lon="4.450745657086372">
        <ele>75.709999999999994</ele>
        <time>2019-04-14T08:56:10Z</time>
      </trkpt>
      <trkpt lat="50.771142169833183" lon="4.45011324249208">
        <ele>80.879999999999995</ele>
        <time>2019-04-14T08:56:42Z</time>
      </trkpt>
      <trkpt lat="50.771070756018162" lon="4.449705127626658">
        <ele>83.439999999999998</ele>
        <time>2019-04-14T08:56:59Z</time>
      </trkpt>
      <trkpt lat="50.770994564518332" lon="4.44946238771081">
        <ele>85.140000000000001</ele>
        <time>2019-04-14T08:57:16Z</time>
      </trkpt>
      <trkpt lat="50.770961958914995" lon="4.449199698865414">
        <ele>85.760000000000005</ele>
        <time>2019-04-14T08:57:36Z</time>
      </trkpt>
      <trkpt lat="50.770773030817509" lon="4.448794266209006">
        <ele>85.650000000000006</ele>
        <time>2019-04-14T08:57:55Z</time>
      </trkpt>
      <trkpt lat="50.770847462117672" lon="4.448805497959256">
        <ele>87.219999999999999</ele>
        <time>2019-04-14T08:58:10Z</time>
      </trkpt>
      <trkpt lat="50.770928766578436" lon="4.448873810470104">
        <ele>87.980000000000004</ele>
        <time>2019-04-14T08:58:19Z</time>
      </trkpt>
      <trkpt lat="50.771148791536689" lon="4.448989480733872">
        <ele>87.810000000000002</ele>
        <time>2019-04-14T08:58:40Z</time>
      </trkpt>
      <trkpt lat="50.771391363814473" lon="4.449013201519847">
        <ele>87.530000000000001</ele>
        <time>2019-04-14T08:59:01Z</time>
      </trkpt>
      <trkpt lat="50.771670816466212" lon="4.448973974213004">
        <ele>87.359999999999999</ele>
        <time>2019-04-14T08:59:21Z</time>
      </trkpt>
      <trkpt lat="50.77183241955936" lon="4.448896944522858">
        <ele>84.819999999999993</ele>
        <time>2019-04-14T08:59:36Z</time>
      </trkpt>
      <trkpt lat="50.772222932428122" lon="4.449074221774936">
        <ele>77.950000000000003</ele>
        <time>2019-04-14T09:00:06Z</time>
      </trkpt>
      <trkpt lat="50.772342206910253" lon="4.449187712743878">
        <ele>76.170000000000002</ele>
        <time>2019-04-14T09:00:13Z</time>
      </trkpt>
      <trkpt lat="50.772505821660161" lon="4.449391141533852">
        <ele>74.560000000000002</ele>
        <time>2019-04-14T09:00:29Z</time>
      </trkpt>
      <trkpt lat="50.772700700908899" lon="4.449414610862732">
        <ele>74.540000000000006</ele>
        <time>2019-04-14T09:00:46Z</time>
      </trkpt>
      <trkpt lat="50.772777395322919" lon="4.449445540085435">
        <ele>77.010000000000005</ele>
        <time>2019-04-14T09:00:51Z</time>
      </trkpt>
      <trkpt lat="50.773133039474487" lon="4.449547715485096">
        <ele>82.180000000000007</ele>
        <time>2019-04-14T09:01:14Z</time>
      </trkpt>
      <trkpt lat="50.7733896933496" lon="4.449523407965899">
        <ele>84.219999999999999</ele>
        <time>2019-04-14T09:01:34Z</time>
      </trkpt>
      <trkpt lat="50.773411318659782" lon="4.449526090174913">
        <ele>84.209999999999994</ele>
        <time>2019-04-14T09:01:35Z</time>
      </trkpt>
      <trkpt lat="50.773914568126202" lon="4.449459118768573">
        <ele>88.609999999999999</ele>
        <time>2019-04-14T09:02:14Z</time>
      </trkpt>
      <trkpt lat="50.774236433207989" lon="4.449436822906137">
        <ele>90.790000000000006</ele>
        <time>2019-04-14T09:02:34Z</time>
      </trkpt>
      <trkpt lat="50.774469953030348" lon="4.449441935867071">
        <ele>92.099999999999994</ele>
        <time>2019-04-14T09:02:51Z</time>
      </trkpt>
      <trkpt lat="50.774739682674408" lon="4.449542351067066">
        <ele>92.709999999999994</ele>
        <time>2019-04-14T09:03:07Z</time>
      </trkpt>
      <trkpt lat="50.774891814216971" lon="4.449610831215978">
        <ele>94.180000000000007</ele>
        <time>2019-04-14T09:03:12Z</time>
      </trkpt>
      <trkpt lat="50.774993486702442" lon="4.449647460132837">
        <ele>94.109999999999999</ele>
        <time>2019-04-14T09:03:16Z</time>
      </trkpt>
      <trkpt lat="50.775019470602274" lon="4.449653495103121">
        <ele>94.069999999999993</ele>
        <time>2019-04-14T09:03:17Z</time>
      </trkpt>
      <trkpt lat="50.775057105347514" lon="4.449666319414973">
        <ele>94.060000000000002</ele>
        <time>2019-04-14T09:03:18Z</time>
      </trkpt>
      <trkpt lat="50.775083005428314" lon="4.449670426547527">
        <ele>94.040000000000006</ele>
        <time>2019-04-14T09:03:19Z</time>
      </trkpt>
      <trkpt lat="50.775109073147178" lon="4.449674114584923">
        <ele>94.900000000000006</ele>
        <time>2019-04-14T09:03:20Z</time>
      </trkpt>
      <trkpt lat="50.77513656578958" lon="4.449685011059046">
        <ele>94.909999999999997</ele>
        <time>2019-04-14T09:03:21Z</time>
      </trkpt>
      <trkpt lat="50.775158107280731" lon="4.449694063514471">
        <ele>94.890000000000001</ele>
        <time>2019-04-14T09:03:22Z</time>
      </trkpt>
      <trkpt lat="50.775180235505104" lon="4.449701439589262">
        <ele>94.840000000000003</ele>
        <time>2019-04-14T09:03:23Z</time>
      </trkpt>
      <trkpt lat="50.775210661813617" lon="4.449705211445689">
        <ele>94.819999999999993</ele>
        <time>2019-04-14T09:03:24Z</time>
      </trkpt>
      <trkpt lat="50.775238992646337" lon="4.44970621727407">
        <ele>94.799999999999997</ele>
        <time>2019-04-14T09:03:25Z</time>
      </trkpt>
      <trkpt lat="50.775608383119106" lon="4.449808141216636">
        <ele>96.980000000000004</ele>
        <time>2019-04-14T09:03:38Z</time>
      </trkpt>
      <trkpt lat="50.77563202008605" lon="4.449814260005951">
        <ele>98.060000000000002</ele>
        <time>2019-04-14T09:03:39Z</time>
      </trkpt>
      <trkpt lat="50.775691950693727" lon="4.449801938608289">
        <ele>97.989999999999995</ele>
        <time>2019-04-14T09:03:41Z</time>
      </trkpt>
      <trkpt lat="50.775711229071021" lon="4.449761873111129">
        <ele>97.959999999999994</ele>
        <time>2019-04-14T09:03:42Z</time>
      </trkpt>
      <trkpt lat="50.775850033387542" lon="4.44979565218091">
        <ele>97.819999999999993</ele>
        <time>2019-04-14T09:03:47Z</time>
      </trkpt>
      <trkpt lat="50.775882722809911" lon="4.44981467910111">
        <ele>97.790000000000006</ele>
        <time>2019-04-14T09:03:48Z</time>
      </trkpt>
      <trkpt lat="50.775914490222931" lon="4.44982155226171">
        <ele>97.769999999999996</ele>
        <time>2019-04-14T09:03:49Z</time>
      </trkpt>
      <trkpt lat="50.775943994522095" lon="4.449824234470725">
        <ele>97.730000000000004</ele>
        <time>2019-04-14T09:03:50Z</time>
      </trkpt>
      <trkpt lat="50.775978695601225" lon="4.449836723506451">
        <ele>97.700000000000003</ele>
        <time>2019-04-14T09:03:51Z</time>
      </trkpt>
      <trkpt lat="50.776023454964161" lon="4.449847955256701">
        <ele>97.670000000000002</ele>
        <time>2019-04-14T09:03:52Z</time>
      </trkpt>
      <trkpt lat="50.776426959782839" lon="4.449847033247352">
        <ele>98.890000000000001</ele>
        <time>2019-04-14T09:04:03Z</time>
      </trkpt>
      <trkpt lat="50.776740442961454" lon="4.449806800112128">
        <ele>99.540000000000006</ele>
        <time>2019-04-14T09:04:13Z</time>
      </trkpt>
      <trkpt lat="50.776839097961783" lon="4.449804956093431">
        <ele>99.290000000000006</ele>
        <time>2019-04-14T09:04:16Z</time>
      </trkpt>
      <trkpt lat="50.776875475421548" lon="4.449815349653363">
        <ele>99.319999999999993</ele>
        <time>2019-04-14T09:04:17Z</time>
      </trkpt>
      <trkpt lat="50.777098350226879" lon="4.449855079874396">
        <ele>99.010000000000005</ele>
        <time>2019-04-14T09:04:23Z</time>
      </trkpt>
      <trkpt lat="50.777124334126711" lon="4.449863126501441">
        <ele>98.939999999999998</ele>
        <time>2019-04-14T09:04:24Z</time>
      </trkpt>
      <trkpt lat="50.777500933036208" lon="4.449962116777897">
        <ele>98.480000000000004</ele>
        <time>2019-04-14T09:04:35Z</time>
      </trkpt>
      <trkpt lat="50.777583830058575" lon="4.450015006586909">
        <ele>96.049999999999997</ele>
        <time>2019-04-14T09:04:39Z</time>
      </trkpt>
      <trkpt lat="50.777773344889283" lon="4.450098490342498">
        <ele>94.489999999999995</ele>
        <time>2019-04-14T09:04:46Z</time>
      </trkpt>
      <trkpt lat="50.778096048161387" lon="4.450319269672036">
        <ele>92.920000000000002</ele>
        <time>2019-04-14T09:05:08Z</time>
      </trkpt>
      <trkpt lat="50.778325796127319" lon="4.450521022081375">
        <ele>91.590000000000003</ele>
        <time>2019-04-14T09:05:23Z</time>
      </trkpt>
      <trkpt lat="50.778518663719296" lon="4.450236037373543">
        <ele>92.120000000000005</ele>
        <time>2019-04-14T09:05:50Z</time>
      </trkpt>
      <trkpt lat="50.778542719781399" lon="4.450202090665698">
        <ele>92.099999999999994</ele>
        <time>2019-04-14T09:05:51Z</time>
      </trkpt>
      <trkpt lat="50.778666017577052" lon="4.449781235307455">
        <ele>91.75</ele>
        <time>2019-04-14T09:06:02Z</time>
      </trkpt>
      <trkpt lat="50.778718069195747" lon="4.449576968327165">
        <ele>92.090000000000003</ele>
        <time>2019-04-14T09:06:12Z</time>
      </trkpt>
      <trkpt lat="50.778831895440817" lon="4.449071874842048">
        <ele>95.060000000000002</ele>
        <time>2019-04-14T09:06:47Z</time>
      </trkpt>
      <trkpt lat="50.77885452657938" lon="4.449040191248059">
        <ele>96.540000000000006</ele>
        <time>2019-04-14T09:06:50Z</time>
      </trkpt>
      <trkpt lat="50.778940357267857" lon="4.448929466307163">
        <ele>96.230000000000004</ele>
        <time>2019-04-14T09:06:59Z</time>
      </trkpt>
      <trkpt lat="50.779072539880872" lon="4.448651606217027">
        <ele>96.659999999999997</ele>
        <time>2019-04-14T09:07:11Z</time>
      </trkpt>
      <trkpt lat="50.77922978438437" lon="4.448367543518543">
        <ele>98.010000000000005</ele>
        <time>2019-04-14T09:07:22Z</time>
      </trkpt>
      <trkpt lat="50.779246129095554" lon="4.448340050876141">
        <ele>97.969999999999999</ele>
        <time>2019-04-14T09:07:23Z</time>
      </trkpt>
      <trkpt lat="50.779496245086193" lon="4.447972839698196">
        <ele>99.569999999999993</ele>
        <time>2019-04-14T09:07:37Z</time>
      </trkpt>
      <trkpt lat="50.77949708327651" lon="4.447928247973323">
        <ele>96.060000000000002</ele>
        <time>2019-04-14T09:07:39Z</time>
      </trkpt>
      <trkpt lat="50.779504375532269" lon="4.447884913533926">
        <ele>99.390000000000001</ele>
        <time>2019-04-14T09:07:40Z</time>
      </trkpt>
      <trkpt lat="50.779623733833432" lon="4.447648292407394">
        <ele>100.64</ele>
        <time>2019-04-14T09:07:49Z</time>
      </trkpt>
      <trkpt lat="50.77967100776732" lon="4.447467159479857">
        <ele>100.52</ele>
        <time>2019-04-14T09:07:53Z</time>
      </trkpt>
      <trkpt lat="50.779690286144614" lon="4.447407564148307">
        <ele>101.93000000000001</ele>
        <time>2019-04-14T09:07:55Z</time>
      </trkpt>
      <trkpt lat="50.779739152640104" lon="4.447225341573358">
        <ele>101.75</ele>
        <time>2019-04-14T09:08:01Z</time>
      </trkpt>
      <trkpt lat="50.779752479866147" lon="4.447196926921606">
        <ele>101.73</ele>
        <time>2019-04-14T09:08:02Z</time>
      </trkpt>
      <trkpt lat="50.779894469305873" lon="4.446757044643164">
        <ele>101.37</ele>
        <time>2019-04-14T09:08:15Z</time>
      </trkpt>
      <trkpt lat="50.779920369386673" lon="4.446528889238834">
        <ele>101.19</ele>
        <time>2019-04-14T09:08:19Z</time>
      </trkpt>
      <trkpt lat="50.779952723532915" lon="4.44626972079277">
        <ele>98.469999999999999</ele>
        <time>2019-04-14T09:08:25Z</time>
      </trkpt>
      <trkpt lat="50.779938474297523" lon="4.44579228758812">
        <ele>97.370000000000005</ele>
        <time>2019-04-14T09:08:36Z</time>
      </trkpt>
      <trkpt lat="50.779950460419059" lon="4.445560863241553">
        <ele>96.299999999999997</ele>
        <time>2019-04-14T09:08:45Z</time>
      </trkpt>
      <trkpt lat="50.780030759051442" lon="4.445244446396828">
        <ele>95.920000000000002</ele>
        <time>2019-04-14T09:08:55Z</time>
      </trkpt>
      <trkpt lat="50.780523614957929" lon="4.444333165884018">
        <ele>98.629999999999995</ele>
        <time>2019-04-14T09:09:36Z</time>
      </trkpt>
      <trkpt lat="50.780617408454418" lon="4.444276336580515">
        <ele>98.5</ele>
        <time>2019-04-14T09:09:41Z</time>
      </trkpt>
      <trkpt lat="50.780635932460427" lon="4.444262841716409">
        <ele>99.310000000000002</ele>
        <time>2019-04-14T09:09:42Z</time>
      </trkpt>
      <trkpt lat="50.780657809227705" lon="4.44425068795681">
        <ele>99.290000000000006</ele>
        <time>2019-04-14T09:09:43Z</time>
      </trkpt>
      <trkpt lat="50.780675746500492" lon="4.444242557510734">
        <ele>99.269999999999996</ele>
        <time>2019-04-14T09:09:44Z</time>
      </trkpt>
      <trkpt lat="50.780751518905163" lon="4.444199223071337">
        <ele>99.180000000000007</ele>
        <time>2019-04-14T09:09:48Z</time>
      </trkpt>
      <trkpt lat="50.780858639627695" lon="4.444130659103394">
        <ele>99.019999999999996</ele>
        <time>2019-04-14T09:09:56Z</time>
      </trkpt>
      <trkpt lat="50.780866434797645" lon="4.444118505343795">
        <ele>99.769999999999996</ele>
        <time>2019-04-14T09:09:57Z</time>
      </trkpt>
      <trkpt lat="50.780878001824021" lon="4.444105597212911">
        <ele>99.739999999999995</ele>
        <time>2019-04-14T09:09:58Z</time>
      </trkpt>
      <trkpt lat="50.780957462266088" lon="4.444014402106404">
        <ele>99.620000000000005</ele>
        <time>2019-04-14T09:10:04Z</time>
      </trkpt>
      <trkpt lat="50.781089728698134" lon="4.443905940279365">
        <ele>99.5</ele>
        <time>2019-04-14T09:10:12Z</time>
      </trkpt>
      <trkpt lat="50.78112225048244" lon="4.443879369646311">
        <ele>99.469999999999999</ele>
        <time>2019-04-14T09:10:14Z</time>
      </trkpt>
      <trkpt lat="50.781134404242039" lon="4.443860342726111">
        <ele>99.459999999999994</ele>
        <time>2019-04-14T09:10:15Z</time>
      </trkpt>
      <trkpt lat="50.781146474182606" lon="4.443847769871354">
        <ele>99.439999999999998</ele>
        <time>2019-04-14T09:10:16Z</time>
      </trkpt>
      <trkpt lat="50.78132500872016" lon="4.443688932806253">
        <ele>100.06</ele>
        <time>2019-04-14T09:10:27Z</time>
      </trkpt>
      <trkpt lat="50.781405558809638" lon="4.443588266149163">
        <ele>100.90000000000001</ele>
        <time>2019-04-14T09:10:35Z</time>
      </trkpt>
      <trkpt lat="50.781468842178583" lon="4.44351676851511">
        <ele>102.27</ele>
        <time>2019-04-14T09:10:40Z</time>
      </trkpt>
      <trkpt lat="50.781488791108131" lon="4.44349673576653">
        <ele>102.23999999999999</ele>
        <time>2019-04-14T09:10:41Z</time>
      </trkpt>
      <trkpt lat="50.78149801120162" lon="4.443482235074043">
        <ele>102.23999999999999</ele>
        <time>2019-04-14T09:10:42Z</time>
      </trkpt>
      <trkpt lat="50.781556013971567" lon="4.443370252847672">
        <ele>102.15000000000001</ele>
        <time>2019-04-14T09:10:50Z</time>
      </trkpt>
      <trkpt lat="50.78156054019928" lon="4.443353237584233">
        <ele>102.15000000000001</ele>
        <time>2019-04-14T09:10:51Z</time>
      </trkpt>
      <trkpt lat="50.781643269583583" lon="4.443191969767213">
        <ele>101.97</ele>
        <time>2019-04-14T09:11:00Z</time>
      </trkpt>
      <trkpt lat="50.781664894893765" lon="4.443159196525812">
        <ele>100.26000000000001</ele>
        <time>2019-04-14T09:11:03Z</time>
      </trkpt>
      <trkpt lat="50.781686855480075" lon="4.443113012239337">
        <ele>103.59</ele>
        <time>2019-04-14T09:11:07Z</time>
      </trkpt>
      <trkpt lat="50.781753743067384" lon="4.443054590374231">
        <ele>103.53</ele>
        <time>2019-04-14T09:11:14Z</time>
      </trkpt>
      <trkpt lat="50.781795652583241" lon="4.443056266754866">
        <ele>103.48999999999999</ele>
        <time>2019-04-14T09:11:17Z</time>
      </trkpt>
      <trkpt lat="50.781809231266379" lon="4.443063223734498">
        <ele>103.45999999999999</ele>
        <time>2019-04-14T09:11:18Z</time>
      </trkpt>
      <trkpt lat="50.781822307035327" lon="4.44307554513216">
        <ele>103.44</ele>
        <time>2019-04-14T09:11:19Z</time>
      </trkpt>
      <trkpt lat="50.781832113862038" lon="4.443087615072727">
        <ele>103.43000000000001</ele>
        <time>2019-04-14T09:11:20Z</time>
      </trkpt>
      <trkpt lat="50.781849045306444" lon="4.443097673356533">
        <ele>103.39</ele>
        <time>2019-04-14T09:11:21Z</time>
      </trkpt>
      <trkpt lat="50.78186446800828" lon="4.443109156563878">
        <ele>103.38</ele>
        <time>2019-04-14T09:11:22Z</time>
      </trkpt>
      <trkpt lat="50.781881734728813" lon="4.443120304495096">
        <ele>103.36</ele>
        <time>2019-04-14T09:11:23Z</time>
      </trkpt>
      <trkpt lat="50.781897157430649" lon="4.443132290616632">
        <ele>103.34</ele>
        <time>2019-04-14T09:11:24Z</time>
      </trkpt>
      <trkpt lat="50.781926913186908" lon="4.443158358335495">
        <ele>103.3</ele>
        <time>2019-04-14T09:11:26Z</time>
      </trkpt>
      <trkpt lat="50.782388420775533" lon="4.443712905049324">
        <ele>102.56</ele>
        <time>2019-04-14T09:12:07Z</time>
      </trkpt>
      <trkpt lat="50.782562680542469" lon="4.444020604714751">
        <ele>102.31</ele>
        <time>2019-04-14T09:12:25Z</time>
      </trkpt>
      <trkpt lat="50.782784968614578" lon="4.444354372099042">
        <ele>102.2</ele>
        <time>2019-04-14T09:12:42Z</time>
      </trkpt>
      <trkpt lat="50.783040784299374" lon="4.444575654342771">
        <ele>102.19</ele>
        <time>2019-04-14T09:12:56Z</time>
      </trkpt>
      <trkpt lat="50.783061655238271" lon="4.444602560251951">
        <ele>102.2</ele>
        <time>2019-04-14T09:12:57Z</time>
      </trkpt>
      <trkpt lat="50.783079424872994" lon="4.444634327664971">
        <ele>102.2</ele>
        <time>2019-04-14T09:12:58Z</time>
      </trkpt>
      <trkpt lat="50.783101134002209" lon="4.444668358191848">
        <ele>102.20999999999999</ele>
        <time>2019-04-14T09:12:59Z</time>
      </trkpt>
      <trkpt lat="50.78312074765563" lon="4.444699957966805">
        <ele>102.20999999999999</ele>
        <time>2019-04-14T09:13:00Z</time>
      </trkpt>
      <trkpt lat="50.783401289954782" lon="4.444974716752768">
        <ele>99.189999999999998</ele>
        <time>2019-04-14T09:13:17Z</time>
      </trkpt>
      <trkpt lat="50.783429034054279" lon="4.444979662075639">
        <ele>99.200000000000003</ele>
        <time>2019-04-14T09:13:18Z</time>
      </trkpt>
      <trkpt lat="50.783458538353443" lon="4.444981589913368">
        <ele>99.159999999999997</ele>
        <time>2019-04-14T09:13:19Z</time>
      </trkpt>
      <trkpt lat="50.783860282972455" lon="4.445205805823207">
        <ele>97.230000000000004</ele>
        <time>2019-04-14T09:13:32Z</time>
      </trkpt>
      <trkpt lat="50.784054575487971" lon="4.445357350632548">
        <ele>94.849999999999994</ele>
        <time>2019-04-14T09:13:40Z</time>
      </trkpt>
      <trkpt lat="50.784280383959413" lon="4.445461621508002">
        <ele>93.150000000000006</ele>
        <time>2019-04-14T09:13:51Z</time>
      </trkpt>
      <trkpt lat="50.784405022859573" lon="4.445492466911674">
        <ele>91.340000000000003</ele>
        <time>2019-04-14T09:14:00Z</time>
      </trkpt>
      <trkpt lat="50.784442909061909" lon="4.445454329252243">
        <ele>91.299999999999997</ele>
        <time>2019-04-14T09:14:04Z</time>
      </trkpt>
      <trkpt lat="50.784461600705981" lon="4.445428932085633">
        <ele>91.340000000000003</ele>
        <time>2019-04-14T09:14:06Z</time>
      </trkpt>
      <trkpt lat="50.784586658701301" lon="4.445340251550078">
        <ele>90.609999999999999</ele>
        <time>2019-04-14T09:14:16Z</time>
      </trkpt>
      <trkpt lat="50.78466871753335" lon="4.445048812776804">
        <ele>89.969999999999999</ele>
        <time>2019-04-14T09:14:34Z</time>
      </trkpt>
      <trkpt lat="50.784732922911644" lon="4.444294273853302">
        <ele>90.170000000000002</ele>
        <time>2019-04-14T09:15:03Z</time>
      </trkpt>
      <trkpt lat="50.784723367542028" lon="4.444144321605563">
        <ele>90.209999999999994</ele>
        <time>2019-04-14T09:15:11Z</time>
      </trkpt>
      <trkpt lat="50.784702580422163" lon="4.443708965554833">
        <ele>90.319999999999993</ele>
        <time>2019-04-14T09:15:29Z</time>
      </trkpt>
      <trkpt lat="50.784692019224167" lon="4.443647107109428">
        <ele>92.939999999999998</ele>
        <time>2019-04-14T09:15:32Z</time>
      </trkpt>
      <trkpt lat="50.784701239317656" lon="4.443315770477057">
        <ele>94.700000000000003</ele>
        <time>2019-04-14T09:15:48Z</time>
      </trkpt>
      <trkpt lat="50.784702161327004" lon="4.443189203739166">
        <ele>95.469999999999999</ele>
        <time>2019-04-14T09:15:53Z</time>
      </trkpt>
      <trkpt lat="50.784680368378758" lon="4.442290831357241">
        <ele>98.019999999999996</ele>
        <time>2019-04-14T09:16:30Z</time>
      </trkpt>
      <trkpt lat="50.784661676734686" lon="4.441905682906508">
        <ele>98.870000000000005</ele>
        <time>2019-04-14T09:16:45Z</time>
      </trkpt>
      <trkpt lat="50.784643823280931" lon="4.441679203882814">
        <ele>98.890000000000001</ele>
        <time>2019-04-14T09:16:55Z</time>
      </trkpt>
      <trkpt lat="50.784649522975087" lon="4.441659171134234">
        <ele>98.890000000000001</ele>
        <time>2019-04-14T09:16:56Z</time>
      </trkpt>
      <trkpt lat="50.784651869907975" lon="4.441640563309193">
        <ele>99.650000000000006</ele>
        <time>2019-04-14T09:16:57Z</time>
      </trkpt>
      <trkpt lat="50.784665029495955" lon="4.441438391804695">
        <ele>99.659999999999997</ele>
        <time>2019-04-14T09:17:08Z</time>
      </trkpt>
      <trkpt lat="50.784687409177423" lon="4.441111832857132">
        <ele>99.640000000000001</ele>
        <time>2019-04-14T09:17:24Z</time>
      </trkpt>
      <trkpt lat="50.784691600129008" lon="4.440774377435446">
        <ele>97.329999999999998</ele>
        <time>2019-04-14T09:17:40Z</time>
      </trkpt>
      <trkpt lat="50.784723535180092" lon="4.440516633912921">
        <ele>96.540000000000006</ele>
        <time>2019-04-14T09:17:53Z</time>
      </trkpt>
      <trkpt lat="50.784727977588773" lon="4.440488638356328">
        <ele>96.540000000000006</ele>
        <time>2019-04-14T09:17:54Z</time>
      </trkpt>
      <trkpt lat="50.784720266237855" lon="4.44040272384882">
        <ele>96.540000000000006</ele>
        <time>2019-04-14T09:17:56Z</time>
      </trkpt>
      <trkpt lat="50.784719260409474" lon="4.440360562875867">
        <ele>96.549999999999997</ele>
        <time>2019-04-14T09:17:57Z</time>
      </trkpt>
      <trkpt lat="50.784721523523331" lon="4.440328544005752">
        <ele>96.549999999999997</ele>
        <time>2019-04-14T09:17:58Z</time>
      </trkpt>
      <trkpt lat="50.784724708646536" lon="4.440296441316605">
        <ele>95.709999999999994</ele>
        <time>2019-04-14T09:17:59Z</time>
      </trkpt>
      <trkpt lat="50.784726133570075" lon="4.440264506265521">
        <ele>95.709999999999994</ele>
        <time>2019-04-14T09:18:00Z</time>
      </trkpt>
      <trkpt lat="50.784728061407804" lon="4.440235085785389">
        <ele>98.060000000000002</ele>
        <time>2019-04-14T09:18:01Z</time>
      </trkpt>
      <trkpt lat="50.784732755273581" lon="4.440207928419113">
        <ele>98.069999999999993</ele>
        <time>2019-04-14T09:18:02Z</time>
      </trkpt>
      <trkpt lat="50.784734850749373" lon="4.440180268138647">
        <ele>98.079999999999998</ele>
        <time>2019-04-14T09:18:03Z</time>
      </trkpt>
      <trkpt lat="50.784735940396786" lon="4.440141711384058">
        <ele>99.590000000000003</ele>
        <time>2019-04-14T09:18:04Z</time>
      </trkpt>
      <trkpt lat="50.784734515473247" lon="4.440080272033811">
        <ele>99.590000000000003</ele>
        <time>2019-04-14T09:18:05Z</time>
      </trkpt>
      <trkpt lat="50.784735688939691" lon="4.440026879310608">
        <ele>99.599999999999994</ele>
        <time>2019-04-14T09:18:06Z</time>
      </trkpt>
      <trkpt lat="50.784736694768071" lon="4.439980275928974">
        <ele>99.609999999999999</ele>
        <time>2019-04-14T09:18:07Z</time>
      </trkpt>
      <trkpt lat="50.784739209339023" lon="4.439937444403768">
        <ele>99.609999999999999</ele>
        <time>2019-04-14T09:18:08Z</time>
      </trkpt>
      <trkpt lat="50.784743400290608" lon="4.439899725839496">
        <ele>97.040000000000006</ele>
        <time>2019-04-14T09:18:09Z</time>
      </trkpt>
      <trkpt lat="50.784749016165733" lon="4.439864186570048">
        <ele>100.06</ele>
        <time>2019-04-14T09:18:10Z</time>
      </trkpt>
      <trkpt lat="50.784743400290608" lon="4.43956227041781">
        <ele>100</ele>
        <time>2019-04-14T09:18:20Z</time>
      </trkpt>
      <trkpt lat="50.784729905426502" lon="4.439412234351039">
        <ele>101.01000000000001</ele>
        <time>2019-04-14T09:18:26Z</time>
      </trkpt>
      <trkpt lat="50.784735521301627" lon="4.439396560192108">
        <ele>101.01000000000001</ele>
        <time>2019-04-14T09:18:27Z</time>
      </trkpt>
      <trkpt lat="50.784741975367069" lon="4.439379125833511">
        <ele>101.01000000000001</ele>
        <time>2019-04-14T09:18:28Z</time>
      </trkpt>
      <trkpt lat="50.784749770537019" lon="4.43935951218009">
        <ele>101.01000000000001</ele>
        <time>2019-04-14T09:18:29Z</time>
      </trkpt>
      <trkpt lat="50.784814478829503" lon="4.43856742233038">
        <ele>101.13</ele>
        <time>2019-04-14T09:18:59Z</time>
      </trkpt>
      <trkpt lat="50.784885892644525" lon="4.438334740698338">
        <ele>101.22</ele>
        <time>2019-04-14T09:19:11Z</time>
      </trkpt>
      <trkpt lat="50.784899890422821" lon="4.438308421522379">
        <ele>101.23</ele>
        <time>2019-04-14T09:19:12Z</time>
      </trkpt>
      <trkpt lat="50.784909194335341" lon="4.438285538926721">
        <ele>101.23999999999999</ele>
        <time>2019-04-14T09:19:13Z</time>
      </trkpt>
      <trkpt lat="50.784921264275908" lon="4.438262740150094">
        <ele>101.23999999999999</ele>
        <time>2019-04-14T09:19:14Z</time>
      </trkpt>
      <trkpt lat="50.784931741654873" lon="4.43824203684926">
        <ele>101.25</ele>
        <time>2019-04-14T09:19:15Z</time>
      </trkpt>
      <trkpt lat="50.785025618970394" lon="4.438065262511373">
        <ele>102.26000000000001</ele>
        <time>2019-04-14T09:19:25Z</time>
      </trkpt>
      <trkpt lat="50.785042801871896" lon="4.438033662736416">
        <ele>102.28</ele>
        <time>2019-04-14T09:19:27Z</time>
      </trkpt>
      <trkpt lat="50.785095859318972" lon="4.437757898122072">
        <ele>102.31999999999999</ele>
        <time>2019-04-14T09:19:42Z</time>
      </trkpt>
      <trkpt lat="50.785174230113626" lon="4.437510799616575">
        <ele>102.39</ele>
        <time>2019-04-14T09:19:53Z</time>
      </trkpt>
      <trkpt lat="50.785232149064541" lon="4.437260515987873">
        <ele>102.43000000000001</ele>
        <time>2019-04-14T09:20:02Z</time>
      </trkpt>
      <trkpt lat="50.785247152671218" lon="4.43722128868103">
        <ele>100.16</ele>
        <time>2019-04-14T09:20:04Z</time>
      </trkpt>
      <trkpt lat="50.785278500989079" lon="4.437039736658335">
        <ele>100.20999999999999</ele>
        <time>2019-04-14T09:20:12Z</time>
      </trkpt>
      <trkpt lat="50.785284284502268" lon="4.437019368633628">
        <ele>100.20999999999999</ele>
        <time>2019-04-14T09:20:13Z</time>
      </trkpt>
      <trkpt lat="50.785292498767376" lon="4.437001515179873">
        <ele>100.23</ele>
        <time>2019-04-14T09:20:14Z</time>
      </trkpt>
      <trkpt lat="50.785341029986739" lon="4.436878887936473">
        <ele>97.920000000000002</ele>
        <time>2019-04-14T09:20:21Z</time>
      </trkpt>
      <trkpt lat="50.785355027765036" lon="4.436815520748496">
        <ele>97.939999999999998</ele>
        <time>2019-04-14T09:20:24Z</time>
      </trkpt>
      <trkpt lat="50.785361481830478" lon="4.436794314533472">
        <ele>97.930000000000007</ele>
        <time>2019-04-14T09:20:25Z</time>
      </trkpt>
      <trkpt lat="50.78537480905652" lon="4.436755506321788">
        <ele>97.980000000000004</ele>
        <time>2019-04-14T09:20:27Z</time>
      </trkpt>
      <trkpt lat="50.785380927845836" lon="4.436740251258016">
        <ele>97.969999999999999</ele>
        <time>2019-04-14T09:20:28Z</time>
      </trkpt>
      <trkpt lat="50.785389309749007" lon="4.43672675639391">
        <ele>97.969999999999999</ele>
        <time>2019-04-14T09:20:29Z</time>
      </trkpt>
      <trkpt lat="50.785461645573378" lon="4.436469431966543">
        <ele>98.019999999999996</ele>
        <time>2019-04-14T09:20:43Z</time>
      </trkpt>
      <trkpt lat="50.785464160144329" lon="4.436439592391253">
        <ele>98.030000000000001</ele>
        <time>2019-04-14T09:20:44Z</time>
      </trkpt>
      <trkpt lat="50.785529958084226" lon="4.436269858852029">
        <ele>98.319999999999993</ele>
        <time>2019-04-14T09:20:53Z</time>
      </trkpt>
      <trkpt lat="50.785601958632469" lon="4.436077913269401">
        <ele>98.359999999999999</ele>
        <time>2019-04-14T09:21:04Z</time>
      </trkpt>
      <trkpt lat="50.785674965009093" lon="4.435829473659396">
        <ele>98.390000000000001</ele>
        <time>2019-04-14T09:21:15Z</time>
      </trkpt>
      <trkpt lat="50.785824162885547" lon="4.435596456751227">
        <ele>98.400000000000006</ele>
        <time>2019-04-14T09:21:29Z</time>
      </trkpt>
      <trkpt lat="50.78605885617435" lon="4.43549394607544">
        <ele>98.379999999999995</ele>
        <time>2019-04-14T09:21:41Z</time>
      </trkpt>
      <trkpt lat="50.78609892167151" lon="4.435487659648061">
        <ele>98.379999999999995</ele>
        <time>2019-04-14T09:21:42Z</time>
      </trkpt>
      <trkpt lat="50.786130856722593" lon="4.435476511716843">
        <ele>98.370000000000005</ele>
        <time>2019-04-14T09:21:43Z</time>
      </trkpt>
      <trkpt lat="50.786162288859487" lon="4.435461591929197">
        <ele>98.379999999999995</ele>
        <time>2019-04-14T09:21:44Z</time>
      </trkpt>
      <trkpt lat="50.786200594156981" lon="4.435449773445725">
        <ele>98.379999999999995</ele>
        <time>2019-04-14T09:21:45Z</time>
      </trkpt>
      <trkpt lat="50.78623772598803" lon="4.435433261096478">
        <ele>98.379999999999995</ele>
        <time>2019-04-14T09:21:46Z</time>
      </trkpt>
      <trkpt lat="50.786267230287194" lon="4.435420604422689">
        <ele>98.379999999999995</ele>
        <time>2019-04-14T09:21:47Z</time>
      </trkpt>
      <trkpt lat="50.786301260814071" lon="4.435412473976612">
        <ele>98.379999999999995</ele>
        <time>2019-04-14T09:21:48Z</time>
      </trkpt>
      <trkpt lat="50.786327328532934" lon="4.435399733483791">
        <ele>98.379999999999995</ele>
        <time>2019-04-14T09:21:49Z</time>
      </trkpt>
      <trkpt lat="50.786632932722569" lon="4.435320440679789">
        <ele>98.409999999999997</ele>
        <time>2019-04-14T09:22:01Z</time>
      </trkpt>
      <trkpt lat="50.787019673734903" lon="4.435187336057425">
        <ele>98.420000000000002</ele>
        <time>2019-04-14T09:22:13Z</time>
      </trkpt>
      <trkpt lat="50.787442205473781" lon="4.435043754056096">
        <ele>98.469999999999999</ele>
        <time>2019-04-14T09:22:26Z</time>
      </trkpt>
      <trkpt lat="50.787512948736548" lon="4.435011651366949">
        <ele>96.189999999999998</ele>
        <time>2019-04-14T09:22:28Z</time>
      </trkpt>
      <trkpt lat="50.787826683372259" lon="4.434951553121209">
        <ele>95.390000000000001</ele>
        <time>2019-04-14T09:22:40Z</time>
      </trkpt>
      <trkpt lat="50.788028603419662" lon="4.434899333864451">
        <ele>93.090000000000003</ele>
        <time>2019-04-14T09:22:54Z</time>
      </trkpt>
      <trkpt lat="50.788226164877415" lon="4.43486119620502">
        <ele>92.319999999999993</ele>
        <time>2019-04-14T09:23:06Z</time>
      </trkpt>
      <trkpt lat="50.788297327235341" lon="4.434838481247425">
        <ele>91.549999999999997</ele>
        <time>2019-04-14T09:23:10Z</time>
      </trkpt>
      <trkpt lat="50.788416936993599" lon="4.434793721884489">
        <ele>91.579999999999998</ele>
        <time>2019-04-14T09:23:18Z</time>
      </trkpt>
      <trkpt lat="50.788450632244349" lon="4.434782322496176">
        <ele>91.590000000000003</ele>
        <time>2019-04-14T09:23:20Z</time>
      </trkpt>
      <trkpt lat="50.788572337478399" lon="4.434753069654107">
        <ele>90.739999999999995</ele>
        <time>2019-04-14T09:23:29Z</time>
      </trkpt>
      <trkpt lat="50.78867744654417" lon="4.434724487364292">
        <ele>89.859999999999999</ele>
        <time>2019-04-14T09:23:39Z</time>
      </trkpt>
      <trkpt lat="50.78876000829041" lon="4.434694983065128">
        <ele>89.150000000000006</ele>
        <time>2019-04-14T09:23:45Z</time>
      </trkpt>
      <trkpt lat="50.788868386298418" lon="4.434676626697183">
        <ele>88.219999999999999</ele>
        <time>2019-04-14T09:23:51Z</time>
      </trkpt>
      <trkpt lat="50.788881964981556" lon="4.434676542878151">
        <ele>88.200000000000003</ele>
        <time>2019-04-14T09:23:52Z</time>
      </trkpt>
      <trkpt lat="50.789041975513101" lon="4.434634214267135">
        <ele>85.890000000000001</ele>
        <time>2019-04-14T09:24:05Z</time>
      </trkpt>
      <trkpt lat="50.789554612711072" lon="4.434346966445446">
        <ele>83.620000000000005</ele>
        <time>2019-04-14T09:24:42Z</time>
      </trkpt>
      <trkpt lat="50.789586883038282" lon="4.434312768280506">
        <ele>82.849999999999994</ele>
        <time>2019-04-14T09:24:45Z</time>
      </trkpt>
      <trkpt lat="50.789615046232939" lon="4.434301033616066">
        <ele>82.859999999999999</ele>
        <time>2019-04-14T09:24:47Z</time>
      </trkpt>
      <trkpt lat="50.789701296016574" lon="4.434279492124915">
        <ele>82.909999999999997</ele>
        <time>2019-04-14T09:24:53Z</time>
      </trkpt>
      <trkpt lat="50.789883937686682" lon="4.434229116886854">
        <ele>82.180000000000007</ele>
        <time>2019-04-14T09:25:08Z</time>
      </trkpt>
      <trkpt lat="50.79008124768734" lon="4.434186704456806">
        <ele>81.510000000000005</ele>
        <time>2019-04-14T09:25:22Z</time>
      </trkpt>
      <trkpt lat="50.790288280695677" lon="4.434132976457477">
        <ele>81.640000000000001</ele>
        <time>2019-04-14T09:25:37Z</time>
      </trkpt>
      <trkpt lat="50.79048634506762" lon="4.434137251228094">
        <ele>81.700000000000003</ele>
        <time>2019-04-14T09:25:53Z</time>
      </trkpt>
      <trkpt lat="50.790521297603846" lon="4.434138089418411">
        <ele>81.719999999999999</ele>
        <time>2019-04-14T09:25:59Z</time>
      </trkpt>
      <trkpt lat="50.790712656453252" lon="4.434084612876177">
        <ele>81.739999999999995</ele>
        <time>2019-04-14T09:26:15Z</time>
      </trkpt>
      <trkpt lat="50.790752889588475" lon="4.434089893475175">
        <ele>81.730000000000004</ele>
        <time>2019-04-14T09:26:18Z</time>
      </trkpt>
      <trkpt lat="50.790796978399158" lon="4.434088133275509">
        <ele>81.730000000000004</ele>
        <time>2019-04-14T09:26:21Z</time>
      </trkpt>
      <trkpt lat="50.790824051946402" lon="4.43408913910389">
        <ele>81.730000000000004</ele>
        <time>2019-04-14T09:26:22Z</time>
      </trkpt>
      <trkpt lat="50.79089823178947" lon="4.434088049456477">
        <ele>84.030000000000001</ele>
        <time>2019-04-14T09:26:25Z</time>
      </trkpt>
      <trkpt lat="50.791065115481615" lon="4.434022754430771">
        <ele>84.890000000000001</ele>
        <time>2019-04-14T09:26:38Z</time>
      </trkpt>
      <trkpt lat="50.791306849569082" lon="4.433891074731946">
        <ele>86.599999999999994</ele>
        <time>2019-04-14T09:26:54Z</time>
      </trkpt>
      <trkpt lat="50.791384465992451" lon="4.433871628716588">
        <ele>87.379999999999995</ele>
        <time>2019-04-14T09:26:58Z</time>
      </trkpt>
      <trkpt lat="50.791548918932676" lon="4.433839609846473">
        <ele>89.829999999999998</ele>
        <time>2019-04-14T09:27:10Z</time>
      </trkpt>
      <trkpt lat="50.791704319417477" lon="4.433736009523273">
        <ele>91.549999999999997</ele>
        <time>2019-04-14T09:27:23Z</time>
      </trkpt>
      <trkpt lat="50.791950579732656" lon="4.433525875210762">
        <ele>93.120000000000005</ele>
        <time>2019-04-14T09:27:42Z</time>
      </trkpt>
      <trkpt lat="50.791973378509283" lon="4.433438451960683">
        <ele>93.120000000000005</ele>
        <time>2019-04-14T09:27:47Z</time>
      </trkpt>
      <trkpt lat="50.792428515851498" lon="4.432769492268562">
        <ele>86.859999999999999</ele>
        <time>2019-04-14T09:37:29Z</time>
      </trkpt>
      <trkpt lat="50.792570086196065" lon="4.432651391252875">
        <ele>84.200000000000003</ele>
        <time>2019-04-14T09:37:47Z</time>
      </trkpt>
      <trkpt lat="50.792924808338284" lon="4.432231793180108">
        <ele>79.890000000000001</ele>
        <time>2019-04-14T09:38:21Z</time>
      </trkpt>
      <trkpt lat="50.793540962040424" lon="4.430867219343782">
        <ele>71.400000000000006</ele>
        <time>2019-04-14T09:39:37Z</time>
      </trkpt>
      <trkpt lat="50.793774062767625" lon="4.430027855560184">
        <ele>71.180000000000007</ele>
        <time>2019-04-14T09:40:14Z</time>
      </trkpt>
      <trkpt lat="50.793908089399338" lon="4.429658968001604">
        <ele>71.140000000000001</ele>
        <time>2019-04-14T09:40:28Z</time>
      </trkpt>
      <trkpt lat="50.793951256200671" lon="4.429421005770564">
        <ele>70.189999999999998</ele>
        <time>2019-04-14T09:40:39Z</time>
      </trkpt>
      <trkpt lat="50.793968522921205" lon="4.429296953603625">
        <ele>70.129999999999995</ele>
        <time>2019-04-14T09:40:44Z</time>
      </trkpt>
      <trkpt lat="50.794063406065106" lon="4.428960336372256">
        <ele>70.129999999999995</ele>
        <time>2019-04-14T09:41:00Z</time>
      </trkpt>
      <trkpt lat="50.794070195406675" lon="4.428939130157232">
        <ele>70.129999999999995</ele>
        <time>2019-04-14T09:41:01Z</time>
      </trkpt>
      <trkpt lat="50.794185446575284" lon="4.428731091320515">
        <ele>69.299999999999997</ele>
        <time>2019-04-14T09:41:13Z</time>
      </trkpt>
      <trkpt lat="50.794189134612679" lon="4.428673088550568">
        <ele>69.290000000000006</ele>
        <time>2019-04-14T09:41:14Z</time>
      </trkpt>
      <trkpt lat="50.794363813474774" lon="4.428139328956604">
        <ele>69.180000000000007</ele>
        <time>2019-04-14T09:41:40Z</time>
      </trkpt>
      <trkpt lat="50.79446179792285" lon="4.427901031449437">
        <ele>68.269999999999996</ele>
        <time>2019-04-14T09:41:54Z</time>
      </trkpt>
      <trkpt lat="50.794643266126513" lon="4.427588302642107">
        <ele>68.209999999999994</ele>
        <time>2019-04-14T09:42:12Z</time>
      </trkpt>
      <trkpt lat="50.794709734618664" lon="4.427564246580005">
        <ele>68.209999999999994</ele>
        <time>2019-04-14T09:42:16Z</time>
      </trkpt>
      <trkpt lat="50.794793469831347" lon="4.427582016214728">
        <ele>69.189999999999998</ele>
        <time>2019-04-14T09:42:25Z</time>
      </trkpt>
      <trkpt lat="50.794963371008635" lon="4.427673211321235">
        <ele>69.090000000000003</ele>
        <time>2019-04-14T09:42:38Z</time>
      </trkpt>
      <trkpt lat="50.795095721259713" lon="4.427767591550946">
        <ele>69.120000000000005</ele>
        <time>2019-04-14T09:42:51Z</time>
      </trkpt>
      <trkpt lat="50.795301077887416" lon="4.427992980927229">
        <ele>69.189999999999998</ele>
        <time>2019-04-14T09:43:11Z</time>
      </trkpt>
      <trkpt lat="50.795486150309443" lon="4.428306883201003">
        <ele>69.239999999999995</ele>
        <time>2019-04-14T09:43:29Z</time>
      </trkpt>
      <trkpt lat="50.795770967379212" lon="4.428704772144556">
        <ele>69.260000000000005</ele>
        <time>2019-04-14T09:43:40Z</time>
      </trkpt>
      <trkpt lat="50.795958051458001" lon="4.428907530382276">
        <ele>70.170000000000002</ele>
        <time>2019-04-14T09:43:52Z</time>
      </trkpt>
      <trkpt lat="50.796219650655985" lon="4.429138116538525">
        <ele>72.799999999999997</ele>
        <time>2019-04-14T09:44:08Z</time>
      </trkpt>
      <trkpt lat="50.796252926811576" lon="4.429217241704464">
        <ele>72.75</ele>
        <time>2019-04-14T09:44:11Z</time>
      </trkpt>
      <trkpt lat="50.796261141076684" lon="4.429250434041023">
        <ele>72.75</ele>
        <time>2019-04-14T09:44:12Z</time>
      </trkpt>
      <trkpt lat="50.796286202967167" lon="4.429309526458383">
        <ele>72.760000000000005</ele>
        <time>2019-04-14T09:44:14Z</time>
      </trkpt>
      <trkpt lat="50.796303972601891" lon="4.429346825927496">
        <ele>72.709999999999994</ele>
        <time>2019-04-14T09:44:15Z</time>
      </trkpt>
      <trkpt lat="50.796332219615579" lon="4.429401224479079">
        <ele>72.719999999999999</ele>
        <time>2019-04-14T09:44:16Z</time>
      </trkpt>
      <trkpt lat="50.796344457194209" lon="4.429453108459711">
        <ele>72.719999999999999</ele>
        <time>2019-04-14T09:44:17Z</time>
      </trkpt>
      <trkpt lat="50.796368261799216" lon="4.429504489526153">
        <ele>72.739999999999995</ele>
        <time>2019-04-14T09:44:18Z</time>
      </trkpt>
      <trkpt lat="50.796381337568164" lon="4.429558804258704">
        <ele>72.730000000000004</ele>
        <time>2019-04-14T09:44:19Z</time>
      </trkpt>
      <trkpt lat="50.796389970928431" lon="4.429615968838334">
        <ele>72.730000000000004</ele>
        <time>2019-04-14T09:44:20Z</time>
      </trkpt>
      <trkpt lat="50.796393156051636" lon="4.429665338248015">
        <ele>72.700000000000003</ele>
        <time>2019-04-14T09:44:21Z</time>
      </trkpt>
      <trkpt lat="50.796396676450968" lon="4.429710851982236">
        <ele>72.719999999999999</ele>
        <time>2019-04-14T09:44:22Z</time>
      </trkpt>
      <trkpt lat="50.796409249305725" lon="4.429754856973887">
        <ele>72.709999999999994</ele>
        <time>2019-04-14T09:44:23Z</time>
      </trkpt>
      <trkpt lat="50.796423330903053" lon="4.429797437041998">
        <ele>72.719999999999999</ele>
        <time>2019-04-14T09:44:24Z</time>
      </trkpt>
      <trkpt lat="50.796474711969495" lon="4.430200355127454">
        <ele>72.640000000000001</ele>
        <time>2019-04-14T09:44:33Z</time>
      </trkpt>
      <trkpt lat="50.796499773859978" lon="4.430258022621274">
        <ele>72.640000000000001</ele>
        <time>2019-04-14T09:44:34Z</time>
      </trkpt>
      <trkpt lat="50.796504132449627" lon="4.430302027612925">
        <ele>72.629999999999995</ele>
        <time>2019-04-14T09:44:35Z</time>
      </trkpt>
      <trkpt lat="50.796508491039276" lon="4.430347122251988">
        <ele>72.599999999999994</ele>
        <time>2019-04-14T09:44:36Z</time>
      </trkpt>
      <trkpt lat="50.796514609828591" lon="4.430378889665008">
        <ele>72.590000000000003</ele>
        <time>2019-04-14T09:44:37Z</time>
      </trkpt>
      <trkpt lat="50.796543611213565" lon="4.430482992902398">
        <ele>72.549999999999997</ele>
        <time>2019-04-14T09:44:40Z</time>
      </trkpt>
      <trkpt lat="50.796565152704716" lon="4.430520543828607">
        <ele>72.519999999999996</ele>
        <time>2019-04-14T09:44:41Z</time>
      </trkpt>
      <trkpt lat="50.796582084149122" lon="4.430547282099724">
        <ele>72.519999999999996</ele>
        <time>2019-04-14T09:44:42Z</time>
      </trkpt>
      <trkpt lat="50.796631453558803" lon="4.43062431178987">
        <ele>72.480000000000004</ele>
        <time>2019-04-14T09:44:44Z</time>
      </trkpt>
      <trkpt lat="50.796660538762808" lon="4.43065021187067">
        <ele>72.469999999999999</ele>
        <time>2019-04-14T09:44:45Z</time>
      </trkpt>
      <trkpt lat="50.796746956184506" lon="4.43083930760622">
        <ele>72.349999999999994</ele>
        <time>2019-04-14T09:44:51Z</time>
      </trkpt>
      <trkpt lat="50.796760870143771" lon="4.430865710601211">
        <ele>72.359999999999999</ele>
        <time>2019-04-14T09:44:52Z</time>
      </trkpt>
      <trkpt lat="50.796786434948444" lon="4.430904937908053">
        <ele>72.349999999999994</ele>
        <time>2019-04-14T09:44:53Z</time>
      </trkpt>
      <trkpt lat="50.796809485182166" lon="4.43094190210104">
        <ele>72.329999999999998</ele>
        <time>2019-04-14T09:44:54Z</time>
      </trkpt>
      <trkpt lat="50.796836223453283" lon="4.430986912921071">
        <ele>73.090000000000003</ele>
        <time>2019-04-14T09:44:55Z</time>
      </trkpt>
      <trkpt lat="50.797036634758115" lon="4.431367451325059">
        <ele>73.769999999999996</ele>
        <time>2019-04-14T09:45:05Z</time>
      </trkpt>
      <trkpt lat="50.797240482643247" lon="4.43166115321219">
        <ele>73.5</ele>
        <time>2019-04-14T09:45:12Z</time>
      </trkpt>
      <trkpt lat="50.797493699938059" lon="4.432483250275254">
        <ele>73.079999999999998</ele>
        <time>2019-04-14T09:45:23Z</time>
      </trkpt>
      <trkpt lat="50.797551367431879" lon="4.433030085638166">
        <ele>70.480000000000004</ele>
        <time>2019-04-14T09:45:28Z</time>
      </trkpt>
      <trkpt lat="50.797563437372446" lon="4.433133099228144">
        <ele>70.430000000000007</ele>
        <time>2019-04-14T09:45:29Z</time>
      </trkpt>
      <trkpt lat="50.797557570040226" lon="4.433238543570042">
        <ele>70.420000000000002</ele>
        <time>2019-04-14T09:45:30Z</time>
      </trkpt>
      <trkpt lat="50.797545835375786" lon="4.433334851637483">
        <ele>70.359999999999999</ele>
        <time>2019-04-14T09:45:31Z</time>
      </trkpt>
      <trkpt lat="50.797546589747071" lon="4.433563677594066">
        <ele>69.480000000000004</ele>
        <time>2019-04-14T09:45:33Z</time>
      </trkpt>
      <trkpt lat="50.797551032155752" lon="4.43396894261241">
        <ele>69.340000000000003</ele>
        <time>2019-04-14T09:45:38Z</time>
      </trkpt>
      <trkpt lat="50.797564359381795" lon="4.434059467166662">
        <ele>69.319999999999993</ele>
        <time>2019-04-14T09:45:39Z</time>
      </trkpt>
      <trkpt lat="50.797551618888974" lon="4.434358365833759">
        <ele>68.480000000000004</ele>
        <time>2019-04-14T09:45:43Z</time>
      </trkpt>
      <trkpt lat="50.797540806233883" lon="4.434446040540934">
        <ele>68.469999999999999</ele>
        <time>2019-04-14T09:45:44Z</time>
      </trkpt>
      <trkpt lat="50.797524880617857" lon="4.435009052976966">
        <ele>68.340000000000003</ele>
        <time>2019-04-14T09:45:52Z</time>
      </trkpt>
      <trkpt lat="50.797524880617857" lon="4.4350625295192">
        <ele>68.290000000000006</ele>
        <time>2019-04-14T09:45:54Z</time>
      </trkpt>
      <trkpt lat="50.797589169815183" lon="4.43557164631784">
        <ele>65.489999999999995</ele>
        <time>2019-04-14T09:46:08Z</time>
      </trkpt>
      <trkpt lat="50.797589840367436" lon="4.435755545273423">
        <ele>64.629999999999995</ele>
        <time>2019-04-14T09:46:15Z</time>
      </trkpt>
      <trkpt lat="50.797625798732042" lon="4.436176987364888">
        <ele>66.719999999999999</ele>
        <time>2019-04-14T09:46:27Z</time>
      </trkpt>
      <trkpt lat="50.797638958320022" lon="4.436256531625986">
        <ele>67.519999999999996</ele>
        <time>2019-04-14T09:46:32Z</time>
      </trkpt>
      <trkpt lat="50.797654716297984" lon="4.436304224655032">
        <ele>67.459999999999994</ele>
        <time>2019-04-14T09:46:35Z</time>
      </trkpt>
      <trkpt lat="50.797756304964423" lon="4.436439843848348">
        <ele>68.75</ele>
        <time>2019-04-14T09:46:44Z</time>
      </trkpt>
      <trkpt lat="50.797831993550062" lon="4.436535313725472">
        <ele>65.409999999999997</ele>
        <time>2019-04-14T09:46:51Z</time>
      </trkpt>
      <trkpt lat="50.79788806848228" lon="4.436598094180226">
        <ele>70.290000000000006</ele>
        <time>2019-04-14T09:46:56Z</time>
      </trkpt>
      <trkpt lat="50.797892091795802" lon="4.436613935977221">
        <ele>70.269999999999996</ele>
        <time>2019-04-14T09:46:57Z</time>
      </trkpt>
      <trkpt lat="50.797904497012496" lon="4.436635309830308">
        <ele>67.799999999999997</ele>
        <time>2019-04-14T09:46:59Z</time>
      </trkpt>
      <trkpt lat="50.79792226664722" lon="4.436686439439654">
        <ele>65.819999999999993</ele>
        <time>2019-04-14T09:47:02Z</time>
      </trkpt>
      <trkpt lat="50.798066100105643" lon="4.436872601509094">
        <ele>65.760000000000005</ele>
        <time>2019-04-14T09:47:14Z</time>
      </trkpt>
      <trkpt lat="50.798320826143026" lon="4.437147527933121">
        <ele>68.590000000000003</ele>
        <time>2019-04-14T09:47:32Z</time>
      </trkpt>
      <trkpt lat="50.798408836126328" lon="4.437285326421261">
        <ele>68.540000000000006</ele>
        <time>2019-04-14T09:47:41Z</time>
      </trkpt>
      <trkpt lat="50.798544706776738" lon="4.437385406345129">
        <ele>65.709999999999994</ele>
        <time>2019-04-14T09:47:51Z</time>
      </trkpt>
      <trkpt lat="50.798647804185748" lon="4.437508201226592">
        <ele>65.640000000000001</ele>
        <time>2019-04-14T09:48:00Z</time>
      </trkpt>
      <trkpt lat="50.798813095316291" lon="4.437763681635261">
        <ele>64.859999999999999</ele>
        <time>2019-04-14T09:48:16Z</time>
      </trkpt>
      <trkpt lat="50.798855759203434" lon="4.437795616686344">
        <ele>64.890000000000001</ele>
        <time>2019-04-14T09:48:19Z</time>
      </trkpt>
      <trkpt lat="50.799046279862523" lon="4.438032153993845">
        <ele>64.870000000000005</ele>
        <time>2019-04-14T09:48:33Z</time>
      </trkpt>
      <trkpt lat="50.799285583198071" lon="4.438551161438227">
        <ele>64.879999999999995</ele>
        <time>2019-04-14T09:49:02Z</time>
      </trkpt>
      <trkpt lat="50.799286086112261" lon="4.438666412606835">
        <ele>64.879999999999995</ele>
        <time>2019-04-14T09:49:06Z</time>
      </trkpt>
      <trkpt lat="50.799284661188722" lon="4.438687535002828">
        <ele>64.870000000000005</ele>
        <time>2019-04-14T09:49:07Z</time>
      </trkpt>
      <trkpt lat="50.799292707815766" lon="4.438714860007167">
        <ele>64.870000000000005</ele>
        <time>2019-04-14T09:49:09Z</time>
      </trkpt>
      <trkpt lat="50.799297988414764" lon="4.438795745372772">
        <ele>64.879999999999995</ele>
        <time>2019-04-14T09:49:13Z</time>
      </trkpt>
      <trkpt lat="50.799302263185382" lon="4.438839666545391">
        <ele>67.510000000000005</ele>
        <time>2019-04-14T09:49:15Z</time>
      </trkpt>
      <trkpt lat="50.799303185194731" lon="4.438860202208161">
        <ele>67.5</ele>
        <time>2019-04-14T09:49:16Z</time>
      </trkpt>
      <trkpt lat="50.799273177981377" lon="4.439158597961068">
        <ele>67.489999999999995</ele>
        <time>2019-04-14T09:49:34Z</time>
      </trkpt>
      <trkpt lat="50.799272507429123" lon="4.439191874116659">
        <ele>64.930000000000007</ele>
        <time>2019-04-14T09:49:36Z</time>
      </trkpt>
      <trkpt lat="50.79920930787921" lon="4.439501166343689">
        <ele>64.150000000000006</ele>
        <time>2019-04-14T09:49:48Z</time>
      </trkpt>
      <trkpt lat="50.799205703660846" lon="4.43953150883317">
        <ele>64.150000000000006</ele>
        <time>2019-04-14T09:49:49Z</time>
      </trkpt>
      <trkpt lat="50.799200590699911" lon="4.439556738361716">
        <ele>64.159999999999997</ele>
        <time>2019-04-14T09:49:50Z</time>
      </trkpt>
      <trkpt lat="50.799183491617441" lon="4.439936270937324">
        <ele>64.209999999999994</ele>
        <time>2019-04-14T09:50:05Z</time>
      </trkpt>
      <trkpt lat="50.799175528809428" lon="4.440122684463859">
        <ele>59.890000000000001</ele>
        <time>2019-04-14T09:50:13Z</time>
      </trkpt>
      <trkpt lat="50.79917561262846" lon="4.440141543745995">
        <ele>64.260000000000005</ele>
        <time>2019-04-14T09:50:14Z</time>
      </trkpt>
      <trkpt lat="50.799179468303919" lon="4.440161408856511">
        <ele>64.230000000000004</ele>
        <time>2019-04-14T09:50:15Z</time>
      </trkpt>
      <trkpt lat="50.799176618456841" lon="4.440219579264522">
        <ele>64.25</ele>
        <time>2019-04-14T09:50:18Z</time>
      </trkpt>
      <trkpt lat="50.799170667305589" lon="4.440239192917943">
        <ele>64.239999999999995</ele>
        <time>2019-04-14T09:50:19Z</time>
      </trkpt>
      <trkpt lat="50.799182569608092" lon="4.440569942817092">
        <ele>64.310000000000002</ele>
        <time>2019-04-14T09:50:31Z</time>
      </trkpt>
      <trkpt lat="50.799211990088224" lon="4.440661808475852">
        <ele>65.109999999999999</ele>
        <time>2019-04-14T09:50:36Z</time>
      </trkpt>
      <trkpt lat="50.799214756116271" lon="4.440751159563661">
        <ele>65.069999999999993</ele>
        <time>2019-04-14T09:50:40Z</time>
      </trkpt>
      <trkpt lat="50.799223808571696" lon="4.440770437940955">
        <ele>65.069999999999993</ele>
        <time>2019-04-14T09:50:41Z</time>
      </trkpt>
      <trkpt lat="50.799263454973698" lon="4.440938159823418">
        <ele>65.069999999999993</ele>
        <time>2019-04-14T09:50:48Z</time>
      </trkpt>
      <trkpt lat="50.79931391403079" lon="4.441262371838093">
        <ele>59.18</ele>
        <time>2019-04-14T09:51:06Z</time>
      </trkpt>
      <trkpt lat="50.799323217943311" lon="4.441285924986005">
        <ele>65.519999999999996</ele>
        <time>2019-04-14T09:51:07Z</time>
      </trkpt>
      <trkpt lat="50.799333695322275" lon="4.441369408741593">
        <ele>61.289999999999999</ele>
        <time>2019-04-14T09:51:12Z</time>
      </trkpt>
      <trkpt lat="50.799338221549988" lon="4.441387848928571">
        <ele>61.32</ele>
        <time>2019-04-14T09:51:13Z</time>
      </trkpt>
      <trkpt lat="50.799341909587383" lon="4.441406289115548">
        <ele>64.670000000000002</ele>
        <time>2019-04-14T09:51:14Z</time>
      </trkpt>
      <trkpt lat="50.799348363652825" lon="4.441423304378986">
        <ele>64.689999999999998</ele>
        <time>2019-04-14T09:51:15Z</time>
      </trkpt>
      <trkpt lat="50.799405025318265" lon="4.441720694303513">
        <ele>64.719999999999999</ele>
        <time>2019-04-14T09:51:27Z</time>
      </trkpt>
      <trkpt lat="50.799410725012422" lon="4.441756401211023">
        <ele>64.700000000000003</ele>
        <time>2019-04-14T09:51:28Z</time>
      </trkpt>
      <trkpt lat="50.799429835751653" lon="4.441850110888481">
        <ele>64.719999999999999</ele>
        <time>2019-04-14T09:51:32Z</time>
      </trkpt>
      <trkpt lat="50.799433020874858" lon="4.441969636827707">
        <ele>64.620000000000005</ele>
        <time>2019-04-14T09:51:37Z</time>
      </trkpt>
      <trkpt lat="50.799441318958998" lon="4.441997045651078">
        <ele>64.629999999999995</ele>
        <time>2019-04-14T09:51:38Z</time>
      </trkpt>
      <trkpt lat="50.799458753317595" lon="4.44205186329782">
        <ele>62.100000000000001</ele>
        <time>2019-04-14T09:51:41Z</time>
      </trkpt>
      <trkpt lat="50.799511643126607" lon="4.442152110859752">
        <ele>62.18</ele>
        <time>2019-04-14T09:51:47Z</time>
      </trkpt>
      <trkpt lat="50.799571992829442" lon="4.442334584891796">
        <ele>62.770000000000003</ele>
        <time>2019-04-14T09:51:57Z</time>
      </trkpt>
      <trkpt lat="50.799601916223764" lon="4.4425761513412">
        <ele>60.350000000000001</ele>
        <time>2019-04-14T09:52:07Z</time>
      </trkpt>
      <trkpt lat="50.799603927880526" lon="4.442603895440698">
        <ele>60.469999999999999</ele>
        <time>2019-04-14T09:52:08Z</time>
      </trkpt>
      <trkpt lat="50.799605855718255" lon="4.442633064463735">
        <ele>60.32</ele>
        <time>2019-04-14T09:52:09Z</time>
      </trkpt>
      <trkpt lat="50.799873741343617" lon="4.443118711933494">
        <ele>55.810000000000002</ele>
        <time>2019-04-14T09:52:40Z</time>
      </trkpt>
      <trkpt lat="50.799893606454134" lon="4.443131871521473">
        <ele>55.799999999999997</ele>
        <time>2019-04-14T09:52:41Z</time>
      </trkpt>
      <trkpt lat="50.799957141280174" lon="4.443209655582905">
        <ele>54.810000000000002</ele>
        <time>2019-04-14T09:52:46Z</time>
      </trkpt>
      <trkpt lat="50.80028529278934" lon="4.443861600011587">
        <ele>46.359999999999999</ele>
        <time>2019-04-14T09:53:17Z</time>
      </trkpt>
      <trkpt lat="50.800301302224398" lon="4.443877022713423">
        <ele>46.390000000000001</ele>
        <time>2019-04-14T09:53:18Z</time>
      </trkpt>
      <trkpt lat="50.800332482904196" lon="4.443907281383872">
        <ele>46.380000000000003</ele>
        <time>2019-04-14T09:53:20Z</time>
      </trkpt>
      <trkpt lat="50.800345810130239" lon="4.443922201171517">
        <ele>46.409999999999997</ele>
        <time>2019-04-14T09:53:21Z</time>
      </trkpt>
      <trkpt lat="50.800782172009349" lon="4.444445902481675">
        <ele>43.689999999999998</ele>
        <time>2019-04-14T09:53:52Z</time>
      </trkpt>
      <trkpt lat="50.800806395709515" lon="4.444468701258302">
        <ele>43.689999999999998</ele>
        <time>2019-04-14T09:53:53Z</time>
      </trkpt>
      <trkpt lat="50.801732763648033" lon="4.44539506919682">
        <ele>41.490000000000002</ele>
        <time>2019-04-14T09:54:21Z</time>
      </trkpt>
      <trkpt lat="50.801754388958216" lon="4.445430189371109">
        <ele>41.479999999999997</ele>
        <time>2019-04-14T09:54:22Z</time>
      </trkpt>
      <trkpt lat="50.801772577688098" lon="4.44545223377645">
        <ele>41.469999999999999</ele>
        <time>2019-04-14T09:54:23Z</time>
      </trkpt>
      <trkpt lat="50.801873663440347" lon="4.445507135242224">
        <ele>41.420000000000002</ele>
        <time>2019-04-14T09:54:25Z</time>
      </trkpt>
      <trkpt lat="50.80205412581563" lon="4.445695476606488">
        <ele>41.200000000000003</ele>
        <time>2019-04-14T09:54:32Z</time>
      </trkpt>
      <trkpt lat="50.802160743623972" lon="4.445870574563742">
        <ele>40.840000000000003</ele>
        <time>2019-04-14T09:54:44Z</time>
      </trkpt>
      <trkpt lat="50.802171137183905" lon="4.445877363905311">
        <ele>40.82</ele>
        <time>2019-04-14T09:54:45Z</time>
      </trkpt>
      <trkpt lat="50.802170131355524" lon="4.445894211530685">
        <ele>40.799999999999997</ele>
        <time>2019-04-14T09:54:46Z</time>
      </trkpt>
      <trkpt lat="50.802159737795591" lon="4.445965960621834">
        <ele>40.700000000000003</ele>
        <time>2019-04-14T09:54:50Z</time>
      </trkpt>
      <trkpt lat="50.8021523617208" lon="4.445986580103636">
        <ele>40.659999999999997</ele>
        <time>2019-04-14T09:54:51Z</time>
      </trkpt>
      <trkpt lat="50.802144063636661" lon="4.446005523204804">
        <ele>40.640000000000001</ele>
        <time>2019-04-14T09:54:52Z</time>
      </trkpt>
      <trkpt lat="50.802135346457362" lon="4.446017509326339">
        <ele>40.600000000000001</ele>
        <time>2019-04-14T09:54:53Z</time>
      </trkpt>
      <trkpt lat="50.802075667306781" lon="4.446116918697953">
        <ele>38.460000000000001</ele>
        <time>2019-04-14T09:55:00Z</time>
      </trkpt>
      <trkpt lat="50.802069129422307" lon="4.446131000295281">
        <ele>40.689999999999998</ele>
        <time>2019-04-14T09:55:01Z</time>
      </trkpt>
      <trkpt lat="50.801910711452365" lon="4.44648614153266">
        <ele>40.219999999999999</ele>
        <time>2019-04-14T09:55:20Z</time>
      </trkpt>
      <trkpt lat="50.801887242123485" lon="4.446530397981405">
        <ele>40.170000000000002</ele>
        <time>2019-04-14T09:55:23Z</time>
      </trkpt>
      <trkpt lat="50.801823791116476" lon="4.446621257811785">
        <ele>35.899999999999999</ele>
        <time>2019-04-14T09:55:30Z</time>
      </trkpt>
      <trkpt lat="50.801806524395943" lon="4.446646068245173">
        <ele>40.049999999999997</ele>
        <time>2019-04-14T09:55:31Z</time>
      </trkpt>
      <trkpt lat="50.80165539868176" lon="4.446866931393743">
        <ele>38.869999999999997</ele>
        <time>2019-04-14T09:55:45Z</time>
      </trkpt>
      <trkpt lat="50.801508296281099" lon="4.447133308276534">
        <ele>38.609999999999999</ele>
        <time>2019-04-14T09:55:58Z</time>
      </trkpt>
      <trkpt lat="50.801409557461739" lon="4.447342017665505">
        <ele>38.390000000000001</ele>
        <time>2019-04-14T09:56:08Z</time>
      </trkpt>
      <trkpt lat="50.80140377394855" lon="4.447363559156656">
        <ele>39.219999999999999</ele>
        <time>2019-04-14T09:56:09Z</time>
      </trkpt>
      <trkpt lat="50.801391787827015" lon="4.447435392066836">
        <ele>39.119999999999997</ele>
        <time>2019-04-14T09:56:13Z</time>
      </trkpt>
      <trkpt lat="50.801193052902818" lon="4.447801765054464">
        <ele>39.770000000000003</ele>
        <time>2019-04-14T09:56:40Z</time>
      </trkpt>
      <trkpt lat="50.801207721233368" lon="4.448354216292501">
        <ele>43.979999999999997</ele>
        <time>2019-04-14T09:56:45Z</time>
      </trkpt>
      <trkpt lat="50.80120830796659" lon="4.448462426662445">
        <ele>43.969999999999999</ele>
        <time>2019-04-14T09:56:46Z</time>
      </trkpt>
      <trkpt lat="50.801211325451732" lon="4.448898453265429">
        <ele>48.280000000000001</ele>
        <time>2019-04-14T09:56:53Z</time>
      </trkpt>
      <trkpt lat="50.801195735111833" lon="4.449331797659397">
        <ele>51.469999999999999</ele>
        <time>2019-04-14T09:57:01Z</time>
      </trkpt>
      <trkpt lat="50.801197160035372" lon="4.449409916996956">
        <ele>51.340000000000003</ele>
        <time>2019-04-14T09:57:02Z</time>
      </trkpt>
      <trkpt lat="50.801241584122181" lon="4.450285993516445">
        <ele>54.979999999999997</ele>
        <time>2019-04-14T09:57:14Z</time>
      </trkpt>
      <trkpt lat="50.801232699304819" lon="4.450382385402918">
        <ele>55.719999999999999</ele>
        <time>2019-04-14T09:57:15Z</time>
      </trkpt>
      <trkpt lat="50.801230687648058" lon="4.450459834188223">
        <ele>55.689999999999998</ele>
        <time>2019-04-14T09:57:16Z</time>
      </trkpt>
      <trkpt lat="50.801234124228358" lon="4.450524961575866">
        <ele>55.560000000000002</ele>
        <time>2019-04-14T09:57:17Z</time>
      </trkpt>
      <trkpt lat="50.801242925226688" lon="4.450598554685712">
        <ele>56.859999999999999</ele>
        <time>2019-04-14T09:57:18Z</time>
      </trkpt>
      <trkpt lat="50.801243344321847" lon="4.450679272413254">
        <ele>56.909999999999997</ele>
        <time>2019-04-14T09:57:19Z</time>
      </trkpt>
      <trkpt lat="50.801249882206321" lon="4.450761582702398">
        <ele>56.810000000000002</ele>
        <time>2019-04-14T09:57:20Z</time>
      </trkpt>
      <trkpt lat="50.80126061104238" lon="4.450850430876017">
        <ele>57.899999999999999</ele>
        <time>2019-04-14T09:57:21Z</time>
      </trkpt>
      <trkpt lat="50.801304951310158" lon="4.452842893078923">
        <ele>62.43</ele>
        <time>2019-04-14T09:57:43Z</time>
      </trkpt>
      <trkpt lat="50.801294138655066" lon="4.453296102583408">
        <ele>62.210000000000001</ele>
        <time>2019-04-14T09:57:49Z</time>
      </trkpt>
      <trkpt lat="50.801310399547219" lon="4.453341364860535">
        <ele>63.600000000000001</ele>
        <time>2019-04-14T09:57:50Z</time>
      </trkpt>
      <trkpt lat="50.801320960745215" lon="4.453448317945004">
        <ele>63.520000000000003</ele>
        <time>2019-04-14T09:57:52Z</time>
      </trkpt>
      <trkpt lat="50.801323307678103" lon="4.453495088964701">
        <ele>63.490000000000002</ele>
        <time>2019-04-14T09:57:53Z</time>
      </trkpt>
      <trkpt lat="50.801325486972928" lon="4.453528616577387">
        <ele>63.469999999999999</ele>
        <time>2019-04-14T09:57:54Z</time>
      </trkpt>
      <trkpt lat="50.801338981837034" lon="4.453660463914275">
        <ele>63.390000000000001</ele>
        <time>2019-04-14T09:57:56Z</time>
      </trkpt>
      <trkpt lat="50.801409473642707" lon="4.45439119823277">
        <ele>63.979999999999997</ele>
        <time>2019-04-14T09:58:04Z</time>
      </trkpt>
      <trkpt lat="50.801457585766912" lon="4.454717757180333">
        <ele>60.159999999999997</ele>
        <time>2019-04-14T09:58:11Z</time>
      </trkpt>
      <trkpt lat="50.801475942134857" lon="4.454788416624069">
        <ele>65.290000000000006</ele>
        <time>2019-04-14T09:58:12Z</time>
      </trkpt>
      <trkpt lat="50.801512319594622" lon="4.454865613952279">
        <ele>61.909999999999997</ele>
        <time>2019-04-14T09:58:15Z</time>
      </trkpt>
      <trkpt lat="50.801563868299127" lon="4.454967370256782">
        <ele>64.159999999999997</ele>
        <time>2019-04-14T09:58:19Z</time>
      </trkpt>
      <trkpt lat="50.802374482154846" lon="4.45669362321496">
        <ele>64.680000000000007</ele>
        <time>2019-04-14T09:59:54Z</time>
      </trkpt>
      <trkpt lat="50.802273396402597" lon="4.456960083916783">
        <ele>66.099999999999994</ele>
        <time>2019-04-14T10:00:09Z</time>
      </trkpt>
      <trkpt lat="50.802263924852014" lon="4.457014482468367">
        <ele>66.819999999999993</ele>
        <time>2019-04-14T10:00:11Z</time>
      </trkpt>
      <trkpt lat="50.802243473008275" lon="4.457226041704416">
        <ele>68.200000000000003</ele>
        <time>2019-04-14T10:00:21Z</time>
      </trkpt>
      <trkpt lat="50.802036356180906" lon="4.457452772185206">
        <ele>69.400000000000006</ele>
        <time>2019-04-14T10:00:38Z</time>
      </trkpt>
      <trkpt lat="50.801998972892761" lon="4.457557797431946">
        <ele>71.290000000000006</ele>
        <time>2019-04-14T10:00:42Z</time>
      </trkpt>
      <trkpt lat="50.801958153024316" lon="4.457602640613914">
        <ele>67.890000000000001</ele>
        <time>2019-04-14T10:00:44Z</time>
      </trkpt>
      <trkpt lat="50.801890762522817" lon="4.457655614241958">
        <ele>70.700000000000003</ele>
        <time>2019-04-14T10:00:50Z</time>
      </trkpt>
      <trkpt lat="50.801801159977913" lon="4.457698781043291">
        <ele>70.650000000000006</ele>
        <time>2019-04-14T10:00:53Z</time>
      </trkpt>
      <trkpt lat="50.801338562741876" lon="4.458037996664643">
        <ele>67.629999999999995</ele>
        <time>2019-04-14T10:01:46Z</time>
      </trkpt>
      <trkpt lat="50.801142258569598" lon="4.458623053506017">
        <ele>65.769999999999996</ele>
        <time>2019-04-14T10:02:00Z</time>
      </trkpt>
      <trkpt lat="50.801060115918517" lon="4.458874175325036">
        <ele>64.040000000000006</ele>
        <time>2019-04-14T10:02:14Z</time>
      </trkpt>
      <trkpt lat="50.800963221117854" lon="4.459114233031869">
        <ele>63.130000000000003</ele>
        <time>2019-04-14T10:02:30Z</time>
      </trkpt>
      <trkpt lat="50.800946038216352" lon="4.459172235801816">
        <ele>63.119999999999997</ele>
        <time>2019-04-14T10:02:35Z</time>
      </trkpt>
      <trkpt lat="50.80094201490283" lon="4.459266448393464">
        <ele>63.149999999999999</ele>
        <time>2019-04-14T10:02:42Z</time>
      </trkpt>
      <trkpt lat="50.80089658498764" lon="4.459497621282935">
        <ele>63.159999999999997</ele>
        <time>2019-04-14T10:02:49Z</time>
      </trkpt>
      <trkpt lat="50.800518812611699" lon="4.460113272070885">
        <ele>60.490000000000002</ele>
        <time>2019-04-14T10:03:33Z</time>
      </trkpt>
      <trkpt lat="50.800409512594342" lon="4.460284681990743">
        <ele>57.590000000000003</ele>
        <time>2019-04-14T10:03:48Z</time>
      </trkpt>
      <trkpt lat="50.800197869539261" lon="4.460505712777376">
        <ele>52.799999999999997</ele>
        <time>2019-04-14T10:04:09Z</time>
      </trkpt>
      <trkpt lat="50.800183955579996" lon="4.460510406643152">
        <ele>52.75</ele>
        <time>2019-04-14T10:04:10Z</time>
      </trkpt>
      <trkpt lat="50.799991087988019" lon="4.460635297000408">
        <ele>48.509999999999998</ele>
        <time>2019-04-14T10:04:24Z</time>
      </trkpt>
      <trkpt lat="50.799919171258807" lon="4.460606630891562">
        <ele>48.490000000000002</ele>
        <time>2019-04-14T10:04:28Z</time>
      </trkpt>
      <trkpt lat="50.799729824066162" lon="4.460607804358006">
        <ele>48.43</ele>
        <time>2019-04-14T10:04:42Z</time>
      </trkpt>
      <trkpt lat="50.799598479643464" lon="4.460494145751">
        <ele>45.590000000000003</ele>
        <time>2019-04-14T10:04:54Z</time>
      </trkpt>
      <trkpt lat="50.799408964812756" lon="4.460796480998397">
        <ele>47.789999999999999</ele>
        <time>2019-04-14T10:05:12Z</time>
      </trkpt>
      <trkpt lat="50.799404606223106" lon="4.460903685539961">
        <ele>47.710000000000001</ele>
        <time>2019-04-14T10:05:18Z</time>
      </trkpt>
      <trkpt lat="50.799348279833794" lon="4.461091356351972">
        <ele>50.630000000000003</ele>
        <time>2019-04-14T10:05:33Z</time>
      </trkpt>
      <trkpt lat="50.799338892102242" lon="4.461261676624417">
        <ele>50.600000000000001</ele>
        <time>2019-04-14T10:05:34Z</time>
      </trkpt>
      <trkpt lat="50.799370827153325" lon="4.46130040101707">
        <ele>46.890000000000001</ele>
        <time>2019-04-14T10:05:35Z</time>
      </trkpt>
      <trkpt lat="50.799410222098231" lon="4.461424704641104">
        <ele>49.990000000000002</ele>
        <time>2019-04-14T10:05:36Z</time>
      </trkpt>
      <trkpt lat="50.799553217366338" lon="4.461659817025065">
        <ele>52.219999999999999</ele>
        <time>2019-04-14T10:05:57Z</time>
      </trkpt>
      <trkpt lat="50.799635779112577" lon="4.461749084293842">
        <ele>52.140000000000001</ele>
        <time>2019-04-14T10:06:02Z</time>
      </trkpt>
      <trkpt lat="50.799687998369336" lon="4.461868777871132">
        <ele>52.039999999999999</ele>
        <time>2019-04-14T10:06:08Z</time>
      </trkpt>
      <trkpt lat="50.799784474074841" lon="4.462045887485147">
        <ele>52.740000000000002</ele>
        <time>2019-04-14T10:06:17Z</time>
      </trkpt>
      <trkpt lat="50.799786821007729" lon="4.462067931890488">
        <ele>52.719999999999999</ele>
        <time>2019-04-14T10:06:18Z</time>
      </trkpt>
      <trkpt lat="50.799906263127923" lon="4.462294662371278">
        <ele>53.210000000000001</ele>
        <time>2019-04-14T10:06:33Z</time>
      </trkpt>
      <trkpt lat="50.799939371645451" lon="4.462337912991643">
        <ele>53.939999999999998</ele>
        <time>2019-04-14T10:06:37Z</time>
      </trkpt>
      <trkpt lat="50.800027633085847" lon="4.462491301819682">
        <ele>56.640000000000001</ele>
        <time>2019-04-14T10:06:47Z</time>
      </trkpt>
      <trkpt lat="50.800037523731589" lon="4.462501611560583">
        <ele>56.609999999999999</ele>
        <time>2019-04-14T10:06:48Z</time>
      </trkpt>
      <trkpt lat="50.800142548978329" lon="4.462595991790295">
        <ele>56.399999999999999</ele>
        <time>2019-04-14T10:06:57Z</time>
      </trkpt>
      <trkpt lat="50.800219243392348" lon="4.462666735053062">
        <ele>56.880000000000003</ele>
        <time>2019-04-14T10:07:08Z</time>
      </trkpt>
      <trkpt lat="50.800283784046769" lon="4.462720211595297">
        <ele>56.799999999999997</ele>
        <time>2019-04-14T10:07:11Z</time>
      </trkpt>
      <trkpt lat="50.800393000245094" lon="4.462811909615994">
        <ele>57.460000000000001</ele>
        <time>2019-04-14T10:07:16Z</time>
      </trkpt>
      <trkpt lat="50.800507832318544" lon="4.462910732254386">
        <ele>57.359999999999999</ele>
        <time>2019-04-14T10:07:20Z</time>
      </trkpt>
      <trkpt lat="50.800550580024719" lon="4.462937721982598">
        <ele>58.350000000000001</ele>
        <time>2019-04-14T10:07:21Z</time>
      </trkpt>
      <trkpt lat="50.800612606108189" lon="4.462964711710811">
        <ele>58.32</ele>
        <time>2019-04-14T10:07:22Z</time>
      </trkpt>
      <trkpt lat="50.800648313015699" lon="4.462981894612312">
        <ele>58.299999999999997</ele>
        <time>2019-04-14T10:07:23Z</time>
      </trkpt>
      <trkpt lat="50.800915192812681" lon="4.463931564241648">
        <ele>60.659999999999997</ele>
        <time>2019-04-14T10:08:21Z</time>
      </trkpt>
      <trkpt lat="50.800455110147595" lon="4.465655470266938">
        <ele>62.140000000000001</ele>
        <time>2019-04-14T10:09:08Z</time>
      </trkpt>
      <trkpt lat="50.800342541188002" lon="4.465904664248228">
        <ele>65.709999999999994</ele>
        <time>2019-04-14T10:09:22Z</time>
      </trkpt>
      <trkpt lat="50.800147745758295" lon="4.466190487146378">
        <ele>67.769999999999996</ele>
        <time>2019-04-14T10:09:40Z</time>
      </trkpt>
      <trkpt lat="50.800050348043442" lon="4.466343289241195">
        <ele>68.879999999999995</ele>
        <time>2019-04-14T10:09:54Z</time>
      </trkpt>
      <trkpt lat="50.800034673884511" lon="4.466351084411144">
        <ele>68.900000000000006</ele>
        <time>2019-04-14T10:09:55Z</time>
      </trkpt>
      <trkpt lat="50.800018161535263" lon="4.466361980885267">
        <ele>68.920000000000002</ele>
        <time>2019-04-14T10:09:56Z</time>
      </trkpt>
      <trkpt lat="50.799984466284513" lon="4.466385953128338">
        <ele>68.980000000000004</ele>
        <time>2019-04-14T10:09:59Z</time>
      </trkpt>
      <trkpt lat="50.799970803782344" lon="4.46639877744019">
        <ele>69</ele>
        <time>2019-04-14T10:10:00Z</time>
      </trkpt>
      <trkpt lat="50.799919087439775" lon="4.466439764946699">
        <ele>70.930000000000007</ele>
        <time>2019-04-14T10:10:04Z</time>
      </trkpt>
      <trkpt lat="50.799717335030437" lon="4.466580497100949">
        <ele>72.049999999999997</ele>
        <time>2019-04-14T10:10:19Z</time>
      </trkpt>
      <trkpt lat="50.799499405547976" lon="4.466683678328991">
        <ele>73.230000000000004</ele>
        <time>2019-04-14T10:10:35Z</time>
      </trkpt>
      <trkpt lat="50.799353225156665" lon="4.466768587008119">
        <ele>73.390000000000001</ele>
        <time>2019-04-14T10:10:47Z</time>
      </trkpt>
      <trkpt lat="50.799340736120939" lon="4.46677403524518">
        <ele>73.400000000000006</ele>
        <time>2019-04-14T10:10:48Z</time>
      </trkpt>
      <trkpt lat="50.799328163266182" lon="4.466782165691257">
        <ele>73.420000000000002</ele>
        <time>2019-04-14T10:10:49Z</time>
      </trkpt>
      <trkpt lat="50.7993134111166" lon="4.466787530109286">
        <ele>73.430000000000007</ele>
        <time>2019-04-14T10:10:50Z</time>
      </trkpt>
      <trkpt lat="50.799296898767352" lon="4.466790882870555">
        <ele>73.439999999999998</ele>
        <time>2019-04-14T10:10:51Z</time>
      </trkpt>
      <trkpt lat="50.799281895160675" lon="4.466795325279236">
        <ele>73.450000000000003</ele>
        <time>2019-04-14T10:10:52Z</time>
      </trkpt>
      <trkpt lat="50.799266640096903" lon="4.466806137934327">
        <ele>73.459999999999994</ele>
        <time>2019-04-14T10:10:53Z</time>
      </trkpt>
      <trkpt lat="50.799251804128289" lon="4.466816615313292">
        <ele>73.469999999999999</ele>
        <time>2019-04-14T10:10:54Z</time>
      </trkpt>
      <trkpt lat="50.798999257385731" lon="4.466969752684236">
        <ele>73.569999999999993</ele>
        <time>2019-04-14T10:11:08Z</time>
      </trkpt>
      <trkpt lat="50.798672949895263" lon="4.467169409617782">
        <ele>73.620000000000005</ele>
        <time>2019-04-14T10:11:19Z</time>
      </trkpt>
      <trkpt lat="50.798302302137017" lon="4.467388847842813">
        <ele>71.069999999999993</ele>
        <time>2019-04-14T10:11:30Z</time>
      </trkpt>
      <trkpt lat="50.797733925282955" lon="4.467656649649143">
        <ele>70.450000000000003</ele>
        <time>2019-04-14T10:11:45Z</time>
      </trkpt>
      <trkpt lat="50.797528652474284" lon="4.467726219445467">
        <ele>70.549999999999997</ele>
        <time>2019-04-14T10:11:53Z</time>
      </trkpt>
      <trkpt lat="50.797203686088324" lon="4.467872902750969">
        <ele>70.719999999999999</ele>
        <time>2019-04-14T10:12:05Z</time>
      </trkpt>
      <trkpt lat="50.796962035819888" lon="4.467990752309561">
        <ele>73.090000000000003</ele>
        <time>2019-04-14T10:12:12Z</time>
      </trkpt>
      <trkpt lat="50.796819040551782" lon="4.468057807534933">
        <ele>77.060000000000002</ele>
        <time>2019-04-14T10:12:16Z</time>
      </trkpt>
      <trkpt lat="50.7967818249017" lon="4.468073900789022">
        <ele>77.090000000000003</ele>
        <time>2019-04-14T10:12:17Z</time>
      </trkpt>
      <trkpt lat="50.796745782718062" lon="4.468088736757636">
        <ele>73.810000000000002</ele>
        <time>2019-04-14T10:12:18Z</time>
      </trkpt>
      <trkpt lat="50.796712087467313" lon="4.468103153631091">
        <ele>73.840000000000003</ele>
        <time>2019-04-14T10:12:19Z</time>
      </trkpt>
      <trkpt lat="50.796218812465668" lon="4.468318317085505">
        <ele>74.049999999999997</ele>
        <time>2019-04-14T10:12:32Z</time>
      </trkpt>
      <trkpt lat="50.796136250719428" lon="4.468371625989676">
        <ele>76.390000000000001</ele>
        <time>2019-04-14T10:12:34Z</time>
      </trkpt>
      <trkpt lat="50.795726627111435" lon="4.468604559078813">
        <ele>79.670000000000002</ele>
        <time>2019-04-14T10:12:47Z</time>
      </trkpt>
      <trkpt lat="50.79568924382329" lon="4.468629620969296">
        <ele>79.680000000000007</ele>
        <time>2019-04-14T10:12:48Z</time>
      </trkpt>
      <trkpt lat="50.795326307415962" lon="4.468833301216364">
        <ele>79.859999999999999</ele>
        <time>2019-04-14T10:13:00Z</time>
      </trkpt>
      <trkpt lat="50.794916599988937" lon="4.469095068052411">
        <ele>80.019999999999996</ele>
        <time>2019-04-14T10:13:13Z</time>
      </trkpt>
      <trkpt lat="50.794586353003979" lon="4.469265388324857">
        <ele>80.150000000000006</ele>
        <time>2019-04-14T10:13:24Z</time>
      </trkpt>
      <trkpt lat="50.794313186779618" lon="4.469427242875099">
        <ele>80.209999999999994</ele>
        <time>2019-04-14T10:13:35Z</time>
      </trkpt>
      <trkpt lat="50.794082768261433" lon="4.469512989744544">
        <ele>80.189999999999998</ele>
        <time>2019-04-14T10:13:48Z</time>
      </trkpt>
      <trkpt lat="50.794067848473787" lon="4.469515839591622">
        <ele>77.620000000000005</ele>
        <time>2019-04-14T10:13:52Z</time>
      </trkpt>
      <trkpt lat="50.794062567874789" lon="4.469519946724176">
        <ele>80.25</ele>
        <time>2019-04-14T10:13:54Z</time>
      </trkpt>
      <trkpt lat="50.79398931004107" lon="4.469499830156565">
        <ele>82.010000000000005</ele>
        <time>2019-04-14T10:14:06Z</time>
      </trkpt>
      <trkpt lat="50.793973384425044" lon="4.469488179311156">
        <ele>82</ele>
        <time>2019-04-14T10:14:07Z</time>
      </trkpt>
      <trkpt lat="50.793957794085145" lon="4.469482814893127">
        <ele>81.980000000000004</ele>
        <time>2019-04-14T10:14:08Z</time>
      </trkpt>
      <trkpt lat="50.793944299221039" lon="4.469476360827684">
        <ele>79.659999999999997</ele>
        <time>2019-04-14T10:14:09Z</time>
      </trkpt>
      <trkpt lat="50.793932313099504" lon="4.469467476010323">
        <ele>77.409999999999997</ele>
        <time>2019-04-14T10:14:10Z</time>
      </trkpt>
      <trkpt lat="50.793918147683144" lon="4.46945708245039">
        <ele>79.939999999999998</ele>
        <time>2019-04-14T10:14:11Z</time>
      </trkpt>
      <trkpt lat="50.793830305337906" lon="4.469381226226687">
        <ele>77.489999999999995</ele>
        <time>2019-04-14T10:14:19Z</time>
      </trkpt>
      <trkpt lat="50.793819157406688" lon="4.469369323924184">
        <ele>77.5</ele>
        <time>2019-04-14T10:14:20Z</time>
      </trkpt>
      <trkpt lat="50.793688148260117" lon="4.469234710559249">
        <ele>80.359999999999999</ele>
        <time>2019-04-14T10:14:31Z</time>
      </trkpt>
      <trkpt lat="50.793483546003699" lon="4.469003537669778">
        <ele>80.299999999999997</ele>
        <time>2019-04-14T10:14:50Z</time>
      </trkpt>
      <trkpt lat="50.793452113866806" lon="4.468981241807342">
        <ele>77.890000000000001</ele>
        <time>2019-04-14T10:14:52Z</time>
      </trkpt>
      <trkpt lat="50.793348178267479" lon="4.468862051144242">
        <ele>75.370000000000005</ele>
        <time>2019-04-14T10:14:59Z</time>
      </trkpt>
      <trkpt lat="50.793336192145944" lon="4.468857860192657">
        <ele>75.329999999999998</ele>
        <time>2019-04-14T10:15:00Z</time>
      </trkpt>
      <trkpt lat="50.79332135617733" lon="4.468848304823041">
        <ele>78.239999999999995</ele>
        <time>2019-04-14T10:15:01Z</time>
      </trkpt>
      <trkpt lat="50.792486853897572" lon="4.46818714030087">
        <ele>71.120000000000005</ele>
        <time>2019-04-14T10:15:59Z</time>
      </trkpt>
      <trkpt lat="50.792392808943987" lon="4.468148164451122">
        <ele>64.829999999999998</ele>
        <time>2019-04-14T10:16:05Z</time>
      </trkpt>
      <trkpt lat="50.792375961318612" lon="4.468147410079837">
        <ele>70.900000000000006</ele>
        <time>2019-04-14T10:16:06Z</time>
      </trkpt>
      <trkpt lat="50.792303960770369" lon="4.468087311834097">
        <ele>67</ele>
        <time>2019-04-14T10:16:11Z</time>
      </trkpt>
      <trkpt lat="50.792289627715945" lon="4.468074068427086">
        <ele>67</ele>
        <time>2019-04-14T10:16:12Z</time>
      </trkpt>
      <trkpt lat="50.792162222787738" lon="4.467950686812401">
        <ele>69.400000000000006</ele>
        <time>2019-04-14T10:16:20Z</time>
      </trkpt>
      <trkpt lat="50.792135316878557" lon="4.46793258190155">
        <ele>70.989999999999995</ele>
        <time>2019-04-14T10:16:22Z</time>
      </trkpt>
      <trkpt lat="50.791930882260203" lon="4.467762596905232">
        <ele>69.739999999999995</ele>
        <time>2019-04-14T10:16:38Z</time>
      </trkpt>
      <trkpt lat="50.791874891147017" lon="4.467699900269508">
        <ele>68.469999999999999</ele>
        <time>2019-04-14T10:16:42Z</time>
      </trkpt>
      <trkpt lat="50.791625194251537" lon="4.467426231130958">
        <ele>68.959999999999994</ele>
        <time>2019-04-14T10:16:58Z</time>
      </trkpt>
      <trkpt lat="50.791591499000788" lon="4.467376777902246">
        <ele>71.359999999999999</ele>
        <time>2019-04-14T10:17:00Z</time>
      </trkpt>
      <trkpt lat="50.791415311396122" lon="4.467187765985727">
        <ele>74.799999999999997</ele>
        <time>2019-04-14T10:17:13Z</time>
      </trkpt>
      <trkpt lat="50.791400726884604" lon="4.467174941673875">
        <ele>75.010000000000005</ele>
        <time>2019-04-14T10:17:14Z</time>
      </trkpt>
      <trkpt lat="50.791232753545046" lon="4.467003531754017">
        <ele>78.75</ele>
        <time>2019-04-14T10:17:24Z</time>
      </trkpt>
      <trkpt lat="50.791218923404813" lon="4.466992970556021">
        <ele>78.540000000000006</ele>
        <time>2019-04-14T10:17:25Z</time>
      </trkpt>
      <trkpt lat="50.791136277839541" lon="4.466897835955024">
        <ele>80.590000000000003</ele>
        <time>2019-04-14T10:17:32Z</time>
      </trkpt>
      <trkpt lat="50.791072323918343" lon="4.466841677203775">
        <ele>81.840000000000003</ele>
        <time>2019-04-14T10:17:37Z</time>
      </trkpt>
      <trkpt lat="50.790925640612841" lon="4.466704381629825">
        <ele>82.140000000000001</ele>
        <time>2019-04-14T10:17:50Z</time>
      </trkpt>
      <trkpt lat="50.790911978110671" lon="4.46668703109026">
        <ele>82.140000000000001</ele>
        <time>2019-04-14T10:17:51Z</time>
      </trkpt>
      <trkpt lat="50.790899824351072" lon="4.466674542054534">
        <ele>82.150000000000006</ele>
        <time>2019-04-14T10:17:52Z</time>
      </trkpt>
      <trkpt lat="50.790887083858252" lon="4.466664148494601">
        <ele>83.150000000000006</ele>
        <time>2019-04-14T10:17:53Z</time>
      </trkpt>
      <trkpt lat="50.790877025574446" lon="4.4666504021734">
        <ele>83.170000000000002</ele>
        <time>2019-04-14T10:17:54Z</time>
      </trkpt>
      <trkpt lat="50.790864620357752" lon="4.466635230928659">
        <ele>84.079999999999998</ele>
        <time>2019-04-14T10:17:55Z</time>
      </trkpt>
      <trkpt lat="50.790852969512343" lon="4.466619975864887">
        <ele>84.150000000000006</ele>
        <time>2019-04-14T10:17:56Z</time>
      </trkpt>
      <trkpt lat="50.790839474648237" lon="4.466607151553035">
        <ele>84.200000000000003</ele>
        <time>2019-04-14T10:17:57Z</time>
      </trkpt>
      <trkpt lat="50.790825979784131" lon="4.466590136289597">
        <ele>84.189999999999998</ele>
        <time>2019-04-14T10:17:58Z</time>
      </trkpt>
      <trkpt lat="50.790813742205501" lon="4.466574210673571">
        <ele>84.239999999999995</ele>
        <time>2019-04-14T10:17:59Z</time>
      </trkpt>
      <trkpt lat="50.790622550994158" lon="4.466367680579424">
        <ele>83.230000000000004</ele>
        <time>2019-04-14T10:18:15Z</time>
      </trkpt>
      <trkpt lat="50.790532864630222" lon="4.46618814021349">
        <ele>83.599999999999994</ele>
        <time>2019-04-14T10:18:28Z</time>
      </trkpt>
      <trkpt lat="50.790518950670958" lon="4.46598781272769">
        <ele>83.790000000000006</ele>
        <time>2019-04-14T10:18:39Z</time>
      </trkpt>
      <trkpt lat="50.79050000756979" lon="4.465771056711674">
        <ele>83.989999999999995</ele>
        <time>2019-04-14T10:18:51Z</time>
      </trkpt>
      <trkpt lat="50.79049221239984" lon="4.465656643733382">
        <ele>81.849999999999994</ele>
        <time>2019-04-14T10:18:56Z</time>
      </trkpt>
      <trkpt lat="50.79050537198782" lon="4.46544106118381">
        <ele>81.969999999999999</ele>
        <time>2019-04-14T10:19:06Z</time>
      </trkpt>
      <trkpt lat="50.790515346452594" lon="4.46514442563057">
        <ele>82.180000000000007</ele>
        <time>2019-04-14T10:19:19Z</time>
      </trkpt>
      <trkpt lat="50.790523309260607" lon="4.465077873319387">
        <ele>81.25</ele>
        <time>2019-04-14T10:19:22Z</time>
      </trkpt>
      <trkpt lat="50.790546694770455" lon="4.464613096788526">
        <ele>80.379999999999995</ele>
        <time>2019-04-14T10:19:36Z</time>
      </trkpt>
      <trkpt lat="50.790550298988819" lon="4.464591136202216">
        <ele>80.469999999999999</ele>
        <time>2019-04-14T10:19:37Z</time>
      </trkpt>
      <trkpt lat="50.790546610951424" lon="4.464553249999881">
        <ele>80.409999999999997</ele>
        <time>2019-04-14T10:19:38Z</time>
      </trkpt>
      <trkpt lat="50.790547281503677" lon="4.464527769014239">
        <ele>80.359999999999999</ele>
        <time>2019-04-14T10:19:39Z</time>
      </trkpt>
      <trkpt lat="50.790555160492659" lon="4.464513687416911">
        <ele>80.329999999999998</ele>
        <time>2019-04-14T10:19:40Z</time>
      </trkpt>
      <trkpt lat="50.790556920692325" lon="4.464494492858648">
        <ele>80.400000000000006</ele>
        <time>2019-04-14T10:19:41Z</time>
      </trkpt>
      <trkpt lat="50.790557842701674" lon="4.464471274986863">
        <ele>80.400000000000006</ele>
        <time>2019-04-14T10:19:42Z</time>
      </trkpt>
      <trkpt lat="50.790522806346416" lon="4.464190229773521">
        <ele>79.5</ele>
        <time>2019-04-14T10:19:51Z</time>
      </trkpt>
      <trkpt lat="50.790520710870624" lon="4.464162988588214">
        <ele>79.540000000000006</ele>
        <time>2019-04-14T10:19:52Z</time>
      </trkpt>
      <trkpt lat="50.790518615394831" lon="4.464139854535461">
        <ele>79.569999999999993</ele>
        <time>2019-04-14T10:19:53Z</time>
      </trkpt>
      <trkpt lat="50.790514005348086" lon="4.46411001496017">
        <ele>79.590000000000003</ele>
        <time>2019-04-14T10:19:54Z</time>
      </trkpt>
      <trkpt lat="50.790510484948754" lon="4.46408411487937">
        <ele>79.569999999999993</ele>
        <time>2019-04-14T10:19:55Z</time>
      </trkpt>
      <trkpt lat="50.79050880856812" lon="4.464053856208921">
        <ele>79.609999999999999</ele>
        <time>2019-04-14T10:19:56Z</time>
      </trkpt>
      <trkpt lat="50.790490955114365" lon="4.463328989222646">
        <ele>77.319999999999993</ele>
        <time>2019-04-14T10:20:22Z</time>
      </trkpt>
      <trkpt lat="50.79050243832171" lon="4.462633961811662">
        <ele>77.790000000000006</ele>
        <time>2019-04-14T10:20:48Z</time>
      </trkpt>
      <trkpt lat="50.790513418614864" lon="4.4621467217803">
        <ele>77.299999999999997</ele>
        <time>2019-04-14T10:21:07Z</time>
      </trkpt>
      <trkpt lat="50.790604278445244" lon="4.461694434285164">
        <ele>77.629999999999995</ele>
        <time>2019-04-14T10:21:24Z</time>
      </trkpt>
      <trkpt lat="50.790697149932384" lon="4.461271734908223">
        <ele>77.849999999999994</ele>
        <time>2019-04-14T10:21:36Z</time>
      </trkpt>
      <trkpt lat="50.790755990892649" lon="4.460930339992046">
        <ele>77.909999999999997</ele>
        <time>2019-04-14T10:21:50Z</time>
      </trkpt>
      <trkpt lat="50.790757667273283" lon="4.460907457396388">
        <ele>77.909999999999997</ele>
        <time>2019-04-14T10:21:51Z</time>
      </trkpt>
      <trkpt lat="50.790761858224869" lon="4.46088507771492">
        <ele>77.909999999999997</ele>
        <time>2019-04-14T10:21:52Z</time>
      </trkpt>
      <trkpt lat="50.790766719728708" lon="4.46086160838604">
        <ele>77.939999999999998</ele>
        <time>2019-04-14T10:21:53Z</time>
      </trkpt>
      <trkpt lat="50.79077024012804" lon="4.460840821266174">
        <ele>77.969999999999999</ele>
        <time>2019-04-14T10:21:54Z</time>
      </trkpt>
      <trkpt lat="50.790797816589475" lon="4.460777621716261">
        <ele>78.010000000000005</ele>
        <time>2019-04-14T10:21:58Z</time>
      </trkpt>
      <trkpt lat="50.790847605094314" lon="4.460602607578039">
        <ele>78.079999999999998</ele>
        <time>2019-04-14T10:22:07Z</time>
      </trkpt>
      <trkpt lat="50.79085573554039" lon="4.460583748295903">
        <ele>78.099999999999994</ele>
        <time>2019-04-14T10:22:08Z</time>
      </trkpt>
      <trkpt lat="50.79086160287261" lon="4.460509987547994">
        <ele>78.120000000000005</ele>
        <time>2019-04-14T10:22:11Z</time>
      </trkpt>
      <trkpt lat="50.790863446891308" lon="4.460487188771367">
        <ele>78.129999999999995</ele>
        <time>2019-04-14T10:22:12Z</time>
      </trkpt>
      <trkpt lat="50.790868140757084" lon="4.460467658936977">
        <ele>78.129999999999995</ele>
        <time>2019-04-14T10:22:13Z</time>
      </trkpt>
      <trkpt lat="50.790870906785131" lon="4.460379481315613">
        <ele>78.170000000000002</ele>
        <time>2019-04-14T10:22:16Z</time>
      </trkpt>
      <trkpt lat="50.790886413305998" lon="4.460294153541327">
        <ele>78.209999999999994</ele>
        <time>2019-04-14T10:22:19Z</time>
      </trkpt>
      <trkpt lat="50.790894376114011" lon="4.46026842109859">
        <ele>78.219999999999999</ele>
        <time>2019-04-14T10:22:20Z</time>
      </trkpt>
      <trkpt lat="50.790899069979787" lon="4.460241766646504">
        <ele>78.230000000000004</ele>
        <time>2019-04-14T10:22:21Z</time>
      </trkpt>
      <trkpt lat="50.790908457711339" lon="4.460198013111949">
        <ele>78.260000000000005</ele>
        <time>2019-04-14T10:22:23Z</time>
      </trkpt>
      <trkpt lat="50.790913654491305" lon="4.460178315639496">
        <ele>78.260000000000005</ele>
        <time>2019-04-14T10:22:24Z</time>
      </trkpt>
      <trkpt lat="50.790922623127699" lon="4.46015702560544">
        <ele>78.280000000000001</ele>
        <time>2019-04-14T10:22:25Z</time>
      </trkpt>
      <trkpt lat="50.79092706553638" lon="4.460125677287579">
        <ele>78.280000000000001</ele>
        <time>2019-04-14T10:22:26Z</time>
      </trkpt>
      <trkpt lat="50.790934693068266" lon="4.460104973986745">
        <ele>78.290000000000006</ele>
        <time>2019-04-14T10:22:27Z</time>
      </trkpt>
      <trkpt lat="50.790935447439551" lon="4.460072033107281">
        <ele>78.299999999999997</ele>
        <time>2019-04-14T10:22:28Z</time>
      </trkpt>
      <trkpt lat="50.790938716381788" lon="4.460042277351022">
        <ele>78.310000000000002</ele>
        <time>2019-04-14T10:22:29Z</time>
      </trkpt>
      <trkpt lat="50.790944583714008" lon="4.460020232945681">
        <ele>78.319999999999993</ele>
        <time>2019-04-14T10:22:30Z</time>
      </trkpt>
      <trkpt lat="50.790946846827865" lon="4.45999818854034">
        <ele>78.329999999999998</ele>
        <time>2019-04-14T10:22:31Z</time>
      </trkpt>
      <trkpt lat="50.79095053486526" lon="4.459973378106952">
        <ele>78.329999999999998</ele>
        <time>2019-04-14T10:22:32Z</time>
      </trkpt>
      <trkpt lat="50.790950870141387" lon="4.459943789988756">
        <ele>78.340000000000003</ele>
        <time>2019-04-14T10:22:33Z</time>
      </trkpt>
      <trkpt lat="50.790952714160085" lon="4.459920404478908">
        <ele>78.349999999999994</ele>
        <time>2019-04-14T10:22:34Z</time>
      </trkpt>
      <trkpt lat="50.791088417172432" lon="4.459479181095958">
        <ele>76.579999999999998</ele>
        <time>2019-04-14T10:22:57Z</time>
      </trkpt>
      <trkpt lat="50.791086656972766" lon="4.459450766444206">
        <ele>76.590000000000003</ele>
        <time>2019-04-14T10:22:58Z</time>
      </trkpt>
      <trkpt lat="50.791108282282948" lon="4.459402821958065">
        <ele>75.780000000000001</ele>
        <time>2019-04-14T10:23:00Z</time>
      </trkpt>
      <trkpt lat="50.791117753833532" lon="4.459379520267248">
        <ele>75.760000000000005</ele>
        <time>2019-04-14T10:23:01Z</time>
      </trkpt>
      <trkpt lat="50.791126219555736" lon="4.459358314052224">
        <ele>75.790000000000006</ele>
        <time>2019-04-14T10:23:02Z</time>
      </trkpt>
      <trkpt lat="50.791138121858239" lon="4.45933467708528">
        <ele>75.799999999999997</ele>
        <time>2019-04-14T10:23:03Z</time>
      </trkpt>
      <trkpt lat="50.791150443255901" lon="4.459319086745381">
        <ele>75.799999999999997</ele>
        <time>2019-04-14T10:23:04Z</time>
      </trkpt>
      <trkpt lat="50.791206015273929" lon="4.459144324064255">
        <ele>74.879999999999995</ele>
        <time>2019-04-14T10:23:17Z</time>
      </trkpt>
      <trkpt lat="50.791407767683268" lon="4.458321975544095">
        <ele>74.939999999999998</ele>
        <time>2019-04-14T10:23:46Z</time>
      </trkpt>
      <trkpt lat="50.791496951133013" lon="4.457964655011892">
        <ele>77.400000000000006</ele>
        <time>2019-04-14T10:23:59Z</time>
      </trkpt>
      <trkpt lat="50.791556043550372" lon="4.457714706659317">
        <ele>78.140000000000001</ele>
        <time>2019-04-14T10:24:07Z</time>
      </trkpt>
      <trkpt lat="50.791580267250538" lon="4.457511948421598">
        <ele>79</ele>
        <time>2019-04-14T10:24:14Z</time>
      </trkpt>
      <trkpt lat="50.791616812348366" lon="4.457332491874695">
        <ele>80.980000000000004</ele>
        <time>2019-04-14T10:24:25Z</time>
      </trkpt>
      <trkpt lat="50.791650172322989" lon="4.457147335633636">
        <ele>81.859999999999999</ele>
        <time>2019-04-14T10:24:34Z</time>
      </trkpt>
      <trkpt lat="50.791658302769065" lon="4.457113388925791">
        <ele>81.849999999999994</ele>
        <time>2019-04-14T10:24:35Z</time>
      </trkpt>
      <trkpt lat="50.791661152616143" lon="4.457088829949498">
        <ele>81.840000000000003</ele>
        <time>2019-04-14T10:24:36Z</time>
      </trkpt>
      <trkpt lat="50.791673306375742" lon="4.457076592370868">
        <ele>81.859999999999999</ele>
        <time>2019-04-14T10:24:37Z</time>
      </trkpt>
      <trkpt lat="50.791677329689264" lon="4.457036945968866">
        <ele>81.849999999999994</ele>
        <time>2019-04-14T10:24:39Z</time>
      </trkpt>
      <trkpt lat="50.791668277233839" lon="4.456810131669045">
        <ele>81.870000000000005</ele>
        <time>2019-04-14T10:24:51Z</time>
      </trkpt>
      <trkpt lat="50.791731476783752" lon="4.456490864977241">
        <ele>81.980000000000004</ele>
        <time>2019-04-14T10:25:05Z</time>
      </trkpt>
      <trkpt lat="50.791793670505285" lon="4.456217279657722">
        <ele>82.109999999999999</ele>
        <time>2019-04-14T10:25:17Z</time>
      </trkpt>
      <trkpt lat="50.791804064065218" lon="4.456198085099459">
        <ele>82.120000000000005</ele>
        <time>2019-04-14T10:25:18Z</time>
      </trkpt>
      <trkpt lat="50.791812278330326" lon="4.456141926348209">
        <ele>82.129999999999995</ele>
        <time>2019-04-14T10:25:20Z</time>
      </trkpt>
      <trkpt lat="50.791813535615802" lon="4.456111835315824">
        <ele>82.140000000000001</ele>
        <time>2019-04-14T10:25:21Z</time>
      </trkpt>
      <trkpt lat="50.791827281937003" lon="4.456070177257061">
        <ele>82.159999999999997</ele>
        <time>2019-04-14T10:25:23Z</time>
      </trkpt>
      <trkpt lat="50.791830383241177" lon="4.456043355166912">
        <ele>82.170000000000002</ele>
        <time>2019-04-14T10:25:24Z</time>
      </trkpt>
      <trkpt lat="50.791845135390759" lon="4.455967834219337">
        <ele>79.890000000000001</ele>
        <time>2019-04-14T10:25:27Z</time>
      </trkpt>
      <trkpt lat="50.791915627196431" lon="4.455632893368602">
        <ele>80.019999999999996</ele>
        <time>2019-04-14T10:25:41Z</time>
      </trkpt>
      <trkpt lat="50.791920237243176" lon="4.45561277680099">
        <ele>80.010000000000005</ele>
        <time>2019-04-14T10:25:42Z</time>
      </trkpt>
      <trkpt lat="50.791945634409785" lon="4.45543684065342">
        <ele>79.349999999999994</ele>
        <time>2019-04-14T10:25:54Z</time>
      </trkpt>
      <trkpt lat="50.791867431253195" lon="4.455282194539905">
        <ele>79.400000000000006</ele>
        <time>2019-04-14T10:26:03Z</time>
      </trkpt>
      <trkpt lat="50.791722172871232" lon="4.455071808770299">
        <ele>77.730000000000004</ele>
        <time>2019-04-14T10:26:16Z</time>
      </trkpt>
      <trkpt lat="50.79154908657074" lon="4.454732593148947">
        <ele>76.019999999999996</ele>
        <time>2019-04-14T10:26:34Z</time>
      </trkpt>
      <trkpt lat="50.791402403265238" lon="4.454427994787693">
        <ele>75.189999999999998</ele>
        <time>2019-04-14T10:26:47Z</time>
      </trkpt>
      <trkpt lat="50.791269885376096" lon="4.454216100275517">
        <ele>74.409999999999997</ele>
        <time>2019-04-14T10:27:01Z</time>
      </trkpt>
      <trkpt lat="50.791067127138376" lon="4.454171089455485">
        <ele>72.609999999999999</ele>
        <time>2019-04-14T10:27:14Z</time>
      </trkpt>
      <trkpt lat="50.7908845692873" lon="4.453908149152994">
        <ele>70.890000000000001</ele>
        <time>2019-04-14T10:27:31Z</time>
      </trkpt>
      <trkpt lat="50.790725983679295" lon="4.453709749504924">
        <ele>69</ele>
        <time>2019-04-14T10:27:47Z</time>
      </trkpt>
      <trkpt lat="50.790585419163108" lon="4.453530963510275">
        <ele>66.269999999999996</ele>
        <time>2019-04-14T10:28:01Z</time>
      </trkpt>
      <trkpt lat="50.790523225441575" lon="4.45329568348825">
        <ele>62.590000000000003</ele>
        <time>2019-04-14T10:28:14Z</time>
      </trkpt>
      <trkpt lat="50.790527416393161" lon="4.453100804239512">
        <ele>61.960000000000001</ele>
        <time>2019-04-14T10:28:22Z</time>
      </trkpt>
      <trkpt lat="50.790531691163778" lon="4.452799139544368">
        <ele>61.490000000000002</ele>
        <time>2019-04-14T10:28:35Z</time>
      </trkpt>
      <trkpt lat="50.790479891002178" lon="4.452593866735697">
        <ele>61.609999999999999</ele>
        <time>2019-04-14T10:28:43Z</time>
      </trkpt>
      <trkpt lat="50.790466144680977" lon="4.452568469569087">
        <ele>61.619999999999997</ele>
        <time>2019-04-14T10:28:44Z</time>
      </trkpt>
      <trkpt lat="50.79045407474041" lon="4.452541982755065">
        <ele>61.649999999999999</ele>
        <time>2019-04-14T10:28:45Z</time>
      </trkpt>
      <trkpt lat="50.790367238223553" lon="4.45241223089397">
        <ele>64.180000000000007</ele>
        <time>2019-04-14T10:28:58Z</time>
      </trkpt>
      <trkpt lat="50.790291549637914" lon="4.452270995825529">
        <ele>66.450000000000003</ele>
        <time>2019-04-14T10:29:09Z</time>
      </trkpt>
      <trkpt lat="50.790162216871977" lon="4.45208877325058">
        <ele>68.75</ele>
        <time>2019-04-14T10:29:24Z</time>
      </trkpt>
      <trkpt lat="50.79014235176146" lon="4.452069494873285">
        <ele>68.799999999999997</ele>
        <time>2019-04-14T10:29:26Z</time>
      </trkpt>
      <trkpt lat="50.789887206628919" lon="4.451908646151424">
        <ele>71.439999999999998</ele>
        <time>2019-04-14T10:29:47Z</time>
      </trkpt>
      <trkpt lat="50.789875891059637" lon="4.451899593695998">
        <ele>71.450000000000003</ele>
        <time>2019-04-14T10:29:48Z</time>
      </trkpt>
      <trkpt lat="50.789761478081346" lon="4.451680826023221">
        <ele>76.310000000000002</ele>
        <time>2019-04-14T10:34:17Z</time>
      </trkpt>
      <trkpt lat="50.789556289091706" lon="4.451606310904026">
        <ele>78.870000000000005</ele>
        <time>2019-04-14T10:34:46Z</time>
      </trkpt>
      <trkpt lat="50.789530891925097" lon="4.451547218486667">
        <ele>80.480000000000004</ele>
        <time>2019-04-14T10:35:05Z</time>
      </trkpt>
      <trkpt lat="50.789501303806901" lon="4.451528359204531">
        <ele>78.079999999999998</ele>
        <time>2019-04-14T10:35:08Z</time>
      </trkpt>
      <trkpt lat="50.789489066228271" lon="4.451521150767803">
        <ele>78.099999999999994</ele>
        <time>2019-04-14T10:35:09Z</time>
      </trkpt>
      <trkpt lat="50.789475906640291" lon="4.451515534892678">
        <ele>78.109999999999999</ele>
        <time>2019-04-14T10:35:10Z</time>
      </trkpt>
      <trkpt lat="50.789440032094717" lon="4.451498268172145">
        <ele>81.180000000000007</ele>
        <time>2019-04-14T10:35:13Z</time>
      </trkpt>
      <trkpt lat="50.789428297430277" lon="4.451492903754115">
        <ele>81.180000000000007</ele>
        <time>2019-04-14T10:35:14Z</time>
      </trkpt>
      <trkpt lat="50.789405163377523" lon="4.451490389183164">
        <ele>81.219999999999999</ele>
        <time>2019-04-14T10:35:16Z</time>
      </trkpt>
      <trkpt lat="50.789392422884703" lon="4.451482258737087">
        <ele>81.170000000000002</ele>
        <time>2019-04-14T10:35:17Z</time>
      </trkpt>
      <trkpt lat="50.789216151461005" lon="4.451312441378832">
        <ele>81.299999999999997</ele>
        <time>2019-04-14T10:35:28Z</time>
      </trkpt>
      <trkpt lat="50.788951870054007" lon="4.451015722006559">
        <ele>81.510000000000005</ele>
        <time>2019-04-14T10:35:39Z</time>
      </trkpt>
      <trkpt lat="50.788651295006275" lon="4.450728138908744">
        <ele>82.480000000000004</ele>
        <time>2019-04-14T10:35:51Z</time>
      </trkpt>
      <trkpt lat="50.788315683603287" lon="4.450398059561849">
        <ele>82.549999999999997</ele>
        <time>2019-04-14T10:36:03Z</time>
      </trkpt>
      <trkpt lat="50.78802801668644" lon="4.45005607791245">
        <ele>83.329999999999998</ele>
        <time>2019-04-14T10:36:14Z</time>
      </trkpt>
      <trkpt lat="50.787776140496135" lon="4.449818870052695">
        <ele>83.390000000000001</ele>
        <time>2019-04-14T10:36:23Z</time>
      </trkpt>
      <trkpt lat="50.787455784156919" lon="4.449492981657386">
        <ele>84.349999999999994</ele>
        <time>2019-04-14T10:36:34Z</time>
      </trkpt>
      <trkpt lat="50.787435416132212" lon="4.449476050212979">
        <ele>84.359999999999999</ele>
        <time>2019-04-14T10:36:35Z</time>
      </trkpt>
      <trkpt lat="50.787405241280794" lon="4.449451491236687">
        <ele>84.349999999999994</ele>
        <time>2019-04-14T10:36:36Z</time>
      </trkpt>
      <trkpt lat="50.787370121106505" lon="4.449417712166905">
        <ele>84.349999999999994</ele>
        <time>2019-04-14T10:36:37Z</time>
      </trkpt>
      <trkpt lat="50.787339946255088" lon="4.449385358020663">
        <ele>84.379999999999995</ele>
        <time>2019-04-14T10:36:38Z</time>
      </trkpt>
      <trkpt lat="50.787314549088478" lon="4.449363816529512">
        <ele>84.379999999999995</ele>
        <time>2019-04-14T10:36:39Z</time>
      </trkpt>
      <trkpt lat="50.787050602957606" lon="4.449134655296803">
        <ele>84.420000000000002</ele>
        <time>2019-04-14T10:36:49Z</time>
      </trkpt>
      <trkpt lat="50.786742148920894" lon="4.448813460767269">
        <ele>84.469999999999999</ele>
        <time>2019-04-14T10:37:00Z</time>
      </trkpt>
      <trkpt lat="50.786362113431096" lon="4.448407106101513">
        <ele>84.510000000000005</ele>
        <time>2019-04-14T10:37:14Z</time>
      </trkpt>
      <trkpt lat="50.78624015673995" lon="4.448225554078817">
        <ele>84.450000000000003</ele>
        <time>2019-04-14T10:37:20Z</time>
      </trkpt>
      <trkpt lat="50.78621719032526" lon="4.448201414197683">
        <ele>82.049999999999997</ele>
        <time>2019-04-14T10:37:21Z</time>
      </trkpt>
      <trkpt lat="50.786201180890203" lon="4.448183057829738">
        <ele>82.049999999999997</ele>
        <time>2019-04-14T10:37:22Z</time>
      </trkpt>
      <trkpt lat="50.786071764305234" lon="4.448050623759627">
        <ele>82.090000000000003</ele>
        <time>2019-04-14T10:37:29Z</time>
      </trkpt>
      <trkpt lat="50.786036057397723" lon="4.448018940165639">
        <ele>82.099999999999994</ele>
        <time>2019-04-14T10:37:32Z</time>
      </trkpt>
      <trkpt lat="50.785876801237464" lon="4.447870831936598">
        <ele>81.329999999999998</ele>
        <time>2019-04-14T10:37:45Z</time>
      </trkpt>
      <trkpt lat="50.785759370774031" lon="4.447721634060144">
        <ele>80.019999999999996</ele>
        <time>2019-04-14T10:37:54Z</time>
      </trkpt>
      <trkpt lat="50.785618722438812" lon="4.447488030418754">
        <ele>80.129999999999995</ele>
        <time>2019-04-14T10:38:11Z</time>
      </trkpt>
      <trkpt lat="50.785498106852174" lon="4.44735542871058">
        <ele>82.760000000000005</ele>
        <time>2019-04-14T10:38:21Z</time>
      </trkpt>
      <trkpt lat="50.785486036911607" lon="4.447337575256825">
        <ele>80.25</ele>
        <time>2019-04-14T10:38:22Z</time>
      </trkpt>
      <trkpt lat="50.785472122952342" lon="4.447319889441133">
        <ele>80.280000000000001</ele>
        <time>2019-04-14T10:38:23Z</time>
      </trkpt>
      <trkpt lat="50.785425938665867" lon="4.447300024330616">
        <ele>82.379999999999995</ele>
        <time>2019-04-14T10:38:26Z</time>
      </trkpt>
      <trkpt lat="50.785369696095586" lon="4.447266831994057">
        <ele>82.439999999999998</ele>
        <time>2019-04-14T10:38:30Z</time>
      </trkpt>
      <trkpt lat="50.785349076613784" lon="4.447267251089215">
        <ele>82.370000000000005</ele>
        <time>2019-04-14T10:38:31Z</time>
      </trkpt>
      <trkpt lat="50.78504741191864" lon="4.447077065706253">
        <ele>84.400000000000006</ele>
        <time>2019-04-14T10:38:51Z</time>
      </trkpt>
      <trkpt lat="50.784862339496613" lon="4.446902805939317">
        <ele>86.019999999999996</ele>
        <time>2019-04-14T10:39:03Z</time>
      </trkpt>
      <trkpt lat="50.784800397232175" lon="4.446837510913611">
        <ele>86</ele>
        <time>2019-04-14T10:39:08Z</time>
      </trkpt>
      <trkpt lat="50.784791177138686" lon="4.446826362982392">
        <ele>86.019999999999996</ele>
        <time>2019-04-14T10:39:09Z</time>
      </trkpt>
      <trkpt lat="50.784665448591113" lon="4.446659814566374">
        <ele>86.760000000000005</ele>
        <time>2019-04-14T10:39:22Z</time>
      </trkpt>
      <trkpt lat="50.784656312316656" lon="4.446646319702268">
        <ele>86.75</ele>
        <time>2019-04-14T10:39:23Z</time>
      </trkpt>
      <trkpt lat="50.784594202414155" lon="4.446386815980077">
        <ele>87.629999999999995</ele>
        <time>2019-04-14T10:39:36Z</time>
      </trkpt>
      <trkpt lat="50.784597974270582" lon="4.446305762976408">
        <ele>87.640000000000001</ele>
        <time>2019-04-14T10:39:39Z</time>
      </trkpt>
      <trkpt lat="50.784600572660565" lon="4.446276091039181">
        <ele>87.629999999999995</ele>
        <time>2019-04-14T10:39:40Z</time>
      </trkpt>
      <trkpt lat="50.784584730863571" lon="4.445920782163739">
        <ele>87.640000000000001</ele>
        <time>2019-04-14T10:39:53Z</time>
      </trkpt>
      <trkpt lat="50.783946113660932" lon="4.445203458890319">
        <ele>92.420000000000002</ele>
        <time>2019-04-14T10:40:42Z</time>
      </trkpt>
      <trkpt lat="50.782815562561154" lon="4.444076009094715">
        <ele>97.010000000000005</ele>
        <time>2019-04-14T10:41:19Z</time>
      </trkpt>
      <trkpt lat="50.782758481800556" lon="4.443955896422267">
        <ele>96.989999999999995</ele>
        <time>2019-04-14T10:41:21Z</time>
      </trkpt>
      <trkpt lat="50.782728558406234" lon="4.443890685215592">
        <ele>96.980000000000004</ele>
        <time>2019-04-14T10:41:22Z</time>
      </trkpt>
      <trkpt lat="50.782699389383197" lon="4.443828659132123">
        <ele>96.969999999999999</ele>
        <time>2019-04-14T10:41:23Z</time>
      </trkpt>
      <trkpt lat="50.78267315402627" lon="4.443761603906751">
        <ele>96.959999999999994</ele>
        <time>2019-04-14T10:41:24Z</time>
      </trkpt>
      <trkpt lat="50.782637950032949" lon="4.443693123757839">
        <ele>96.939999999999998</ele>
        <time>2019-04-14T10:41:25Z</time>
      </trkpt>
      <trkpt lat="50.782609786838293" lon="4.443640485405922">
        <ele>96.920000000000002</ele>
        <time>2019-04-14T10:41:26Z</time>
      </trkpt>
      <trkpt lat="50.782570894807577" lon="4.443569490686059">
        <ele>96.909999999999997</ele>
        <time>2019-04-14T10:41:27Z</time>
      </trkpt>
      <trkpt lat="50.782276941463351" lon="4.443142767995596">
        <ele>96.829999999999998</ele>
        <time>2019-04-14T10:41:36Z</time>
      </trkpt>
      <trkpt lat="50.782186584547162" lon="4.443027349188924">
        <ele>97.719999999999999</ele>
        <time>2019-04-14T10:41:41Z</time>
      </trkpt>
      <trkpt lat="50.782052390277386" lon="4.442871361970902">
        <ele>98.840000000000003</ele>
        <time>2019-04-14T10:42:31Z</time>
      </trkpt>
      <trkpt lat="50.782036129385233" lon="4.442800199612975">
        <ele>98.900000000000006</ele>
        <time>2019-04-14T10:42:36Z</time>
      </trkpt>
      <trkpt lat="50.782033028081059" lon="4.442779161036015">
        <ele>98.909999999999997</ele>
        <time>2019-04-14T10:42:37Z</time>
      </trkpt>
      <trkpt lat="50.782015845179558" lon="4.442707328125835">
        <ele>99.890000000000001</ele>
        <time>2019-04-14T10:42:41Z</time>
      </trkpt>
      <trkpt lat="50.782008301466703" lon="4.442690899595618">
        <ele>97.489999999999995</ele>
        <time>2019-04-14T10:42:42Z</time>
      </trkpt>
      <trkpt lat="50.782000506296754" lon="4.442675644531846">
        <ele>97.489999999999995</ele>
        <time>2019-04-14T10:42:43Z</time>
      </trkpt>
      <trkpt lat="50.781981898471713" lon="4.44262552075088">
        <ele>97.519999999999996</ele>
        <time>2019-04-14T10:42:46Z</time>
      </trkpt>
      <trkpt lat="50.781975779682398" lon="4.442605739459395">
        <ele>97.540000000000006</ele>
        <time>2019-04-14T10:42:47Z</time>
      </trkpt>
      <trkpt lat="50.781968822702765" lon="4.442587131634355">
        <ele>97.540000000000006</ele>
        <time>2019-04-14T10:42:48Z</time>
      </trkpt>
      <trkpt lat="50.781940324231982" lon="4.44240122102201">
        <ele>96.510000000000005</ele>
        <time>2019-04-14T10:42:55Z</time>
      </trkpt>
      <trkpt lat="50.781934624537826" lon="4.442323017865419">
        <ele>96.540000000000006</ele>
        <time>2019-04-14T10:42:56Z</time>
      </trkpt>
      <trkpt lat="50.781931523233652" lon="4.442250430583954">
        <ele>96.530000000000001</ele>
        <time>2019-04-14T10:42:57Z</time>
      </trkpt>
      <trkpt lat="50.781924398615956" lon="4.442180525511503">
        <ele>96.579999999999998</ele>
        <time>2019-04-14T10:42:58Z</time>
      </trkpt>
      <trkpt lat="50.781917944550514" lon="4.442117074504495">
        <ele>96.599999999999994</ele>
        <time>2019-04-14T10:42:59Z</time>
      </trkpt>
      <trkpt lat="50.78182733617723" lon="4.44130277261138">
        <ele>96.760000000000005</ele>
        <time>2019-04-14T10:43:12Z</time>
      </trkpt>
      <trkpt lat="50.781714683398604" lon="4.440762307494879">
        <ele>96.799999999999997</ele>
        <time>2019-04-14T10:43:22Z</time>
      </trkpt>
      <trkpt lat="50.781685179099441" lon="4.440655438229442">
        <ele>99.209999999999994</ele>
        <time>2019-04-14T10:43:24Z</time>
      </trkpt>
      <trkpt lat="50.781619213521481" lon="4.440347738564014">
        <ele>99.189999999999998</ele>
        <time>2019-04-14T10:43:28Z</time>
      </trkpt>
      <trkpt lat="50.781570766121149" lon="4.440003242343664">
        <ele>99.200000000000003</ele>
        <time>2019-04-14T10:43:32Z</time>
      </trkpt>
      <trkpt lat="50.781551403924823" lon="4.439938114956021">
        <ele>99.200000000000003</ele>
        <time>2019-04-14T10:43:33Z</time>
      </trkpt>
      <trkpt lat="50.781539250165224" lon="4.439882794395089">
        <ele>99.219999999999999</ele>
        <time>2019-04-14T10:43:34Z</time>
      </trkpt>
      <trkpt lat="50.781514020636678" lon="4.439811799675226">
        <ele>99.209999999999994</ele>
        <time>2019-04-14T10:43:35Z</time>
      </trkpt>
      <trkpt lat="50.781500525772572" lon="4.439750108867884">
        <ele>99.200000000000003</ele>
        <time>2019-04-14T10:43:36Z</time>
      </trkpt>
      <trkpt lat="50.781486863270402" lon="4.439699985086918">
        <ele>99.189999999999998</ele>
        <time>2019-04-14T10:43:37Z</time>
      </trkpt>
      <trkpt lat="50.781443361192942" lon="4.439482893794775">
        <ele>99.189999999999998</ele>
        <time>2019-04-14T10:43:41Z</time>
      </trkpt>
      <trkpt lat="50.781425423920155" lon="4.439424555748701">
        <ele>99.170000000000002</ele>
        <time>2019-04-14T10:43:42Z</time>
      </trkpt>
      <trkpt lat="50.781391393393278" lon="4.439343083649874">
        <ele>99.200000000000003</ele>
        <time>2019-04-14T10:43:44Z</time>
      </trkpt>
      <trkpt lat="50.781354010105133" lon="4.439268903806806">
        <ele>99.180000000000007</ele>
        <time>2019-04-14T10:43:45Z</time>
      </trkpt>
      <trkpt lat="50.781322075054049" lon="4.439198579639196">
        <ele>99.189999999999998</ele>
        <time>2019-04-14T10:43:46Z</time>
      </trkpt>
      <trkpt lat="50.781299779191613" lon="4.439130267128348">
        <ele>99.189999999999998</ele>
        <time>2019-04-14T10:43:47Z</time>
      </trkpt>
      <trkpt lat="50.781278237700462" lon="4.439056254923344">
        <ele>99.189999999999998</ele>
        <time>2019-04-14T10:43:48Z</time>
      </trkpt>
      <trkpt lat="50.78111294656992" lon="4.438596004620194">
        <ele>99.180000000000007</ele>
        <time>2019-04-14T10:43:56Z</time>
      </trkpt>
      <trkpt lat="50.780975734815001" lon="4.438115218654275">
        <ele>95.989999999999995</ele>
        <time>2019-04-14T10:44:04Z</time>
      </trkpt>
      <trkpt lat="50.780966095626354" lon="4.438065094873309">
        <ele>101.98999999999999</ele>
        <time>2019-04-14T10:44:05Z</time>
      </trkpt>
      <trkpt lat="50.780957462266088" lon="4.43802603520453">
        <ele>97.790000000000006</ele>
        <time>2019-04-14T10:44:06Z</time>
      </trkpt>
      <trkpt lat="50.780951092019677" lon="4.43797524087131">
        <ele>101.48999999999999</ele>
        <time>2019-04-14T10:44:07Z</time>
      </trkpt>
      <trkpt lat="50.780697371810675" lon="4.43745338357985">
        <ele>101.38</ele>
        <time>2019-04-14T10:44:20Z</time>
      </trkpt>
      <trkpt lat="50.780555298551917" lon="4.437142331153154">
        <ele>101.43000000000001</ele>
        <time>2019-04-14T10:44:32Z</time>
      </trkpt>
      <trkpt lat="50.780389420688152" lon="4.436749638989568">
        <ele>101.5</ele>
        <time>2019-04-14T10:44:43Z</time>
      </trkpt>
      <trkpt lat="50.780213233083487" lon="4.436327107250691">
        <ele>101.59</ele>
        <time>2019-04-14T10:44:54Z</time>
      </trkpt>
      <trkpt lat="50.780066717416048" lon="4.435960231348872">
        <ele>101.68000000000001</ele>
        <time>2019-04-14T10:45:10Z</time>
      </trkpt>
      <trkpt lat="50.779951466247439" lon="4.43575780838728">
        <ele>101.76000000000001</ele>
        <time>2019-04-14T10:45:21Z</time>
      </trkpt>
      <trkpt lat="50.7799431681633" lon="4.435733668506146">
        <ele>101.77</ele>
        <time>2019-04-14T10:45:22Z</time>
      </trkpt>
      <trkpt lat="50.779931182041764" lon="4.435712127014995">
        <ele>101.78</ele>
        <time>2019-04-14T10:45:23Z</time>
      </trkpt>
      <trkpt lat="50.779761951416731" lon="4.435468213632703">
        <ele>101.92</ele>
        <time>2019-04-14T10:45:36Z</time>
      </trkpt>
      <trkpt lat="50.779736470431089" lon="4.435441810637713">
        <ele>99.670000000000002</ele>
        <time>2019-04-14T10:45:38Z</time>
      </trkpt>
      <trkpt lat="50.77970964834094" lon="4.435407780110836">
        <ele>99.709999999999994</ele>
        <time>2019-04-14T10:45:41Z</time>
      </trkpt>
      <trkpt lat="50.779703194275498" lon="4.435393195599318">
        <ele>99.719999999999999</ele>
        <time>2019-04-14T10:45:42Z</time>
      </trkpt>
      <trkpt lat="50.779695818200707" lon="4.435377940535545">
        <ele>99.730000000000004</ele>
        <time>2019-04-14T10:45:43Z</time>
      </trkpt>
      <trkpt lat="50.7795943133533" lon="4.435136625543237">
        <ele>99.099999999999994</ele>
        <time>2019-04-14T10:45:56Z</time>
      </trkpt>
      <trkpt lat="50.77947017736733" lon="4.434983907267451">
        <ele>99.209999999999994</ele>
        <time>2019-04-14T10:46:07Z</time>
      </trkpt>
      <trkpt lat="50.779416281729937" lon="4.434930179268122">
        <ele>99.25</ele>
        <time>2019-04-14T10:46:12Z</time>
      </trkpt>
      <trkpt lat="50.779404463246465" lon="4.43491643294692">
        <ele>99.260000000000005</ele>
        <time>2019-04-14T10:46:13Z</time>
      </trkpt>
      <trkpt lat="50.77926691621542" lon="4.434676123782992">
        <ele>98.599999999999994</ele>
        <time>2019-04-14T10:46:28Z</time>
      </trkpt>
      <trkpt lat="50.779150994494557" lon="4.434458194300532">
        <ele>97.799999999999997</ele>
        <time>2019-04-14T10:46:40Z</time>
      </trkpt>
      <trkpt lat="50.779007412493229" lon="4.434239929541946">
        <ele>97.040000000000006</ele>
        <time>2019-04-14T10:46:49Z</time>
      </trkpt>
      <trkpt lat="50.778998108580709" lon="4.434206401929259">
        <ele>96.189999999999998</ele>
        <time>2019-04-14T10:46:50Z</time>
      </trkpt>
      <trkpt lat="50.778959887102246" lon="4.434088468551636">
        <ele>95.489999999999995</ele>
        <time>2019-04-14T10:46:55Z</time>
      </trkpt>
      <trkpt lat="50.778944632038474" lon="4.434072375297546">
        <ele>95.469999999999999</ele>
        <time>2019-04-14T10:46:56Z</time>
      </trkpt>
      <trkpt lat="50.778925269842148" lon="4.434038093313575">
        <ele>95.459999999999994</ele>
        <time>2019-04-14T10:46:57Z</time>
      </trkpt>
      <trkpt lat="50.77891705557704" lon="4.434004565700889">
        <ele>94.709999999999994</ele>
        <time>2019-04-14T10:46:58Z</time>
      </trkpt>
      <trkpt lat="50.778903225436807" lon="4.433969613164663">
        <ele>94.719999999999999</ele>
        <time>2019-04-14T10:46:59Z</time>
      </trkpt>
      <trkpt lat="50.778736928477883" lon="4.43363668397069">
        <ele>93.170000000000002</ele>
        <time>2019-04-14T10:47:12Z</time>
      </trkpt>
      <trkpt lat="50.778722846880555" lon="4.433599719777703">
        <ele>93.150000000000006</ele>
        <time>2019-04-14T10:47:13Z</time>
      </trkpt>
      <trkpt lat="50.77870742417872" lon="4.433568539097905">
        <ele>93.159999999999997</ele>
        <time>2019-04-14T10:47:14Z</time>
      </trkpt>
      <trkpt lat="50.778695521876216" lon="4.433534927666187">
        <ele>93.159999999999997</ele>
        <time>2019-04-14T10:47:15Z</time>
      </trkpt>
      <trkpt lat="50.778666352853179" lon="4.433480026200414">
        <ele>93.159999999999997</ele>
        <time>2019-04-14T10:47:18Z</time>
      </trkpt>
      <trkpt lat="50.778652522712946" lon="4.433459658175707">
        <ele>92.25</ele>
        <time>2019-04-14T10:47:19Z</time>
      </trkpt>
      <trkpt lat="50.778472814708948" lon="4.433231251314282">
        <ele>91.439999999999998</ele>
        <time>2019-04-14T10:47:34Z</time>
      </trkpt>
      <trkpt lat="50.778437443077564" lon="4.433196466416121">
        <ele>91.459999999999994</ele>
        <time>2019-04-14T10:47:37Z</time>
      </trkpt>
      <trkpt lat="50.778423110023141" lon="4.433188587427139">
        <ele>91.469999999999999</ele>
        <time>2019-04-14T10:47:38Z</time>
      </trkpt>
      <trkpt lat="50.778380781412125" lon="4.433165369555354">
        <ele>91.469999999999999</ele>
        <time>2019-04-14T10:47:42Z</time>
      </trkpt>
      <trkpt lat="50.778331998735666" lon="4.433159250766039">
        <ele>90.640000000000001</ele>
        <time>2019-04-14T10:47:48Z</time>
      </trkpt>
      <trkpt lat="50.778314480558038" lon="4.433151204138994">
        <ele>90.640000000000001</ele>
        <time>2019-04-14T10:47:49Z</time>
      </trkpt>
      <trkpt lat="50.778299309313297" lon="4.433139637112618">
        <ele>90.650000000000006</ele>
        <time>2019-04-14T10:47:50Z</time>
      </trkpt>
      <trkpt lat="50.778286820277572" lon="4.433125723153353">
        <ele>89.700000000000003</ele>
        <time>2019-04-14T10:47:51Z</time>
      </trkpt>
      <trkpt lat="50.778265111148357" lon="4.433093452826142">
        <ele>89.709999999999994</ele>
        <time>2019-04-14T10:47:53Z</time>
      </trkpt>
      <trkpt lat="50.778255388140678" lon="4.433070234954357">
        <ele>89.709999999999994</ele>
        <time>2019-04-14T10:47:54Z</time>
      </trkpt>
      <trkpt lat="50.778249185532331" lon="4.433048106729984">
        <ele>89.730000000000004</ele>
        <time>2019-04-14T10:47:55Z</time>
      </trkpt>
      <trkpt lat="50.778231080621481" lon="4.432941572740674">
        <ele>89.739999999999995</ele>
        <time>2019-04-14T10:47:59Z</time>
      </trkpt>
      <trkpt lat="50.778224626556039" lon="4.432911481708288">
        <ele>89.75</ele>
        <time>2019-04-14T10:48:00Z</time>
      </trkpt>
      <trkpt lat="50.778221525251865" lon="4.432893460616469">
        <ele>89.760000000000005</ele>
        <time>2019-04-14T10:48:01Z</time>
      </trkpt>
      <trkpt lat="50.778219765052199" lon="4.432872924953699">
        <ele>89.760000000000005</ele>
        <time>2019-04-14T10:48:02Z</time>
      </trkpt>
      <trkpt lat="50.778222279623151" lon="4.43281626328826">
        <ele>89.780000000000001</ele>
        <time>2019-04-14T10:48:05Z</time>
      </trkpt>
      <trkpt lat="50.778224458917975" lon="4.43280067294836">
        <ele>89.790000000000006</ele>
        <time>2019-04-14T10:48:06Z</time>
      </trkpt>
      <trkpt lat="50.778225800022483" lon="4.432596825063229">
        <ele>89.840000000000003</ele>
        <time>2019-04-14T10:48:16Z</time>
      </trkpt>
      <trkpt lat="50.778203923255205" lon="4.432362215593457">
        <ele>88.989999999999995</ele>
        <time>2019-04-14T10:48:28Z</time>
      </trkpt>
      <trkpt lat="50.778164025396109" lon="4.432140346616507">
        <ele>88.209999999999994</ele>
        <time>2019-04-14T10:48:36Z</time>
      </trkpt>
      <trkpt lat="50.778154972940683" lon="4.432108495384455">
        <ele>88.219999999999999</ele>
        <time>2019-04-14T10:48:37Z</time>
      </trkpt>
      <trkpt lat="50.778107531368732" lon="4.431703398004174">
        <ele>87.370000000000005</ele>
        <time>2019-04-14T10:48:52Z</time>
      </trkpt>
      <trkpt lat="50.778104430064559" lon="4.431677414104343">
        <ele>87.379999999999995</ele>
        <time>2019-04-14T10:48:53Z</time>
      </trkpt>
      <trkpt lat="50.778100490570068" lon="4.431648496538401">
        <ele>87.379999999999995</ele>
        <time>2019-04-14T10:48:54Z</time>
      </trkpt>
      <trkpt lat="50.778026897460222" lon="4.431357309222221">
        <ele>86.299999999999997</ele>
        <time>2019-04-14T10:49:10Z</time>
      </trkpt>
      <trkpt lat="50.777991525828838" lon="4.431101828813553">
        <ele>85.569999999999993</ele>
        <time>2019-04-14T10:49:24Z</time>
      </trkpt>
      <trkpt lat="50.777897648513317" lon="4.430763954296708">
        <ele>84.810000000000002</ele>
        <time>2019-04-14T10:49:39Z</time>
      </trkpt>
      <trkpt lat="50.777847273275256" lon="4.430463965982199">
        <ele>83.170000000000002</ele>
        <time>2019-04-14T10:49:52Z</time>
      </trkpt>
      <trkpt lat="50.777849704027176" lon="4.430442173033953">
        <ele>83.180000000000007</ele>
        <time>2019-04-14T10:49:53Z</time>
      </trkpt>
      <trkpt lat="50.777852889150381" lon="4.430422056466341">
        <ele>83.180000000000007</ele>
        <time>2019-04-14T10:49:54Z</time>
      </trkpt>
      <trkpt lat="50.777854900807142" lon="4.430403783917427">
        <ele>83.170000000000002</ele>
        <time>2019-04-14T10:49:55Z</time>
      </trkpt>
      <trkpt lat="50.777785331010818" lon="4.430212592706084">
        <ele>81.159999999999997</ele>
        <time>2019-04-14T10:50:10Z</time>
      </trkpt>
      <trkpt lat="50.777614256367087" lon="4.429999189451337">
        <ele>80.010000000000005</ele>
        <time>2019-04-14T10:50:25Z</time>
      </trkpt>
      <trkpt lat="50.777502274140716" lon="4.429981335997582">
        <ele>78.640000000000001</ele>
        <time>2019-04-14T10:50:32Z</time>
      </trkpt>
      <trkpt lat="50.777321392670274" lon="4.430007236078382">
        <ele>78.650000000000006</ele>
        <time>2019-04-14T10:50:43Z</time>
      </trkpt>
      <trkpt lat="50.777189126238227" lon="4.430049229413271">
        <ele>78.689999999999998</ele>
        <time>2019-04-14T10:50:53Z</time>
      </trkpt>
      <trkpt lat="50.777173954993486" lon="4.430056689307094">
        <ele>78.689999999999998</ele>
        <time>2019-04-14T10:50:54Z</time>
      </trkpt>
      <trkpt lat="50.777098182588816" lon="4.43004671484232">
        <ele>77.730000000000004</ele>
        <time>2019-04-14T10:51:00Z</time>
      </trkpt>
      <trkpt lat="50.777046969160438" lon="4.430004302412272">
        <ele>77.760000000000005</ele>
        <time>2019-04-14T10:51:05Z</time>
      </trkpt>
      <trkpt lat="50.777019979432225" lon="4.429970942437649">
        <ele>77.760000000000005</ele>
        <time>2019-04-14T10:51:08Z</time>
      </trkpt>
      <trkpt lat="50.776845887303352" lon="4.429427376016974">
        <ele>77.780000000000001</ele>
        <time>2019-04-14T10:51:25Z</time>
      </trkpt>
      <trkpt lat="50.776758966967463" lon="4.429287146776915">
        <ele>77.799999999999997</ele>
        <time>2019-04-14T10:51:33Z</time>
      </trkpt>
      <trkpt lat="50.776675064116716" lon="4.429213302209973">
        <ele>81.959999999999994</ele>
        <time>2019-04-14T10:51:43Z</time>
      </trkpt>
      <trkpt lat="50.776667771860957" lon="4.429200142621994">
        <ele>81.959999999999994</ele>
        <time>2019-04-14T10:51:44Z</time>
      </trkpt>
      <trkpt lat="50.776509521529078" lon="4.428878193721175">
        <ele>82.849999999999994</ele>
        <time>2019-04-14T10:52:00Z</time>
      </trkpt>
      <trkpt lat="50.776490662246943" lon="4.428852712735534">
        <ele>82.859999999999999</ele>
        <time>2019-04-14T10:52:01Z</time>
      </trkpt>
      <trkpt lat="50.776468114927411" lon="4.428822789341211">
        <ele>83.75</ele>
        <time>2019-04-14T10:52:02Z</time>
      </trkpt>
      <trkpt lat="50.776443975046277" lon="4.428803762421012">
        <ele>83.75</ele>
        <time>2019-04-14T10:52:03Z</time>
      </trkpt>
      <trkpt lat="50.776422685012221" lon="4.428781969472766">
        <ele>83.760000000000005</ele>
        <time>2019-04-14T10:52:04Z</time>
      </trkpt>
      <trkpt lat="50.776201570406556" lon="4.428428923711181">
        <ele>86.489999999999995</ele>
        <time>2019-04-14T10:52:15Z</time>
      </trkpt>
      <trkpt lat="50.776075255125761" lon="4.428111836314201">
        <ele>88.340000000000003</ele>
        <time>2019-04-14T10:52:22Z</time>
      </trkpt>
      <trkpt lat="50.775774177163839" lon="4.427763316780329">
        <ele>90.840000000000003</ele>
        <time>2019-04-14T10:52:35Z</time>
      </trkpt>
      <trkpt lat="50.775659345090389" lon="4.427493084222078">
        <ele>90.859999999999999</ele>
        <time>2019-04-14T10:52:42Z</time>
      </trkpt>
      <trkpt lat="50.775610813871026" lon="4.427400464192033">
        <ele>91.659999999999997</ele>
        <time>2019-04-14T10:52:44Z</time>
      </trkpt>
      <trkpt lat="50.775600923225284" lon="4.427367690950632">
        <ele>91.670000000000002</ele>
        <time>2019-04-14T10:52:45Z</time>
      </trkpt>
      <trkpt lat="50.775581896305084" lon="4.427333408966661">
        <ele>91.659999999999997</ele>
        <time>2019-04-14T10:52:46Z</time>
      </trkpt>
      <trkpt lat="50.775565132498741" lon="4.427291750907898">
        <ele>91.670000000000002</ele>
        <time>2019-04-14T10:52:47Z</time>
      </trkpt>
      <trkpt lat="50.775551553815603" lon="4.427242800593376">
        <ele>91.659999999999997</ele>
        <time>2019-04-14T10:52:48Z</time>
      </trkpt>
      <trkpt lat="50.775534706190228" lon="4.42720047198236">
        <ele>91.670000000000002</ele>
        <time>2019-04-14T10:52:49Z</time>
      </trkpt>
      <trkpt lat="50.775525653734803" lon="4.427180774509907">
        <ele>91.659999999999997</ele>
        <time>2019-04-14T10:52:50Z</time>
      </trkpt>
      <trkpt lat="50.775505872443318" lon="4.427144480869174">
        <ele>91.659999999999997</ele>
        <time>2019-04-14T10:52:52Z</time>
      </trkpt>
      <trkpt lat="50.775493131950498" lon="4.42712327465415">
        <ele>91.659999999999997</ele>
        <time>2019-04-14T10:52:53Z</time>
      </trkpt>
      <trkpt lat="50.775478715077043" lon="4.427074575796723">
        <ele>91.659999999999997</ele>
        <time>2019-04-14T10:52:54Z</time>
      </trkpt>
      <trkpt lat="50.775373186916113" lon="4.426814401522279">
        <ele>86.340000000000003</ele>
        <time>2019-04-14T10:53:00Z</time>
      </trkpt>
      <trkpt lat="50.775344436988235" lon="4.426792524755001">
        <ele>93.370000000000005</ele>
        <time>2019-04-14T10:53:01Z</time>
      </trkpt>
      <trkpt lat="50.775327086448669" lon="4.426758075132966">
        <ele>93.370000000000005</ele>
        <time>2019-04-14T10:53:02Z</time>
      </trkpt>
      <trkpt lat="50.775217534974217" lon="4.426455153152347">
        <ele>93.349999999999994</ele>
        <time>2019-04-14T10:53:10Z</time>
      </trkpt>
      <trkpt lat="50.775159616023302" lon="4.426385248079896">
        <ele>93.340000000000003</ele>
        <time>2019-04-14T10:53:12Z</time>
      </trkpt>
      <trkpt lat="50.775142936035991" lon="4.426337638869882">
        <ele>93.340000000000003</ele>
        <time>2019-04-14T10:53:13Z</time>
      </trkpt>
      <trkpt lat="50.775133213028312" lon="4.426287095993757">
        <ele>93.340000000000003</ele>
        <time>2019-04-14T10:53:14Z</time>
      </trkpt>
      <trkpt lat="50.774986026808619" lon="4.425832126289606">
        <ele>93.359999999999999</ele>
        <time>2019-04-14T10:53:24Z</time>
      </trkpt>
      <trkpt lat="50.774844456464052" lon="4.425645545125008">
        <ele>92.390000000000001</ele>
        <time>2019-04-14T10:56:48Z</time>
      </trkpt>
      <trkpt lat="50.774740353226662" lon="4.425729280337691">
        <ele>92.469999999999999</ele>
        <time>2019-04-14T10:57:01Z</time>
      </trkpt>
      <trkpt lat="50.77459123916924" lon="4.42585383541882">
        <ele>95.040000000000006</ele>
        <time>2019-04-14T10:57:12Z</time>
      </trkpt>
      <trkpt lat="50.774465594440699" lon="4.42591929808259">
        <ele>95.069999999999993</ele>
        <time>2019-04-14T10:57:19Z</time>
      </trkpt>
      <trkpt lat="50.774398036301136" lon="4.425942851230502">
        <ele>92.849999999999994</ele>
        <time>2019-04-14T10:57:24Z</time>
      </trkpt>
      <trkpt lat="50.774080362170935" lon="4.426099760457873">
        <ele>92.969999999999999</ele>
        <time>2019-04-14T10:57:43Z</time>
      </trkpt>
      <trkpt lat="50.773827228695154" lon="4.426253652200103">
        <ele>92.329999999999998</ele>
        <time>2019-04-14T10:58:01Z</time>
      </trkpt>
      <trkpt lat="50.773787582293153" lon="4.426272595301271">
        <ele>92.349999999999994</ele>
        <time>2019-04-14T10:58:03Z</time>
      </trkpt>
      <trkpt lat="50.773524139076471" lon="4.426446100696921">
        <ele>92.450000000000003</ele>
        <time>2019-04-14T10:58:21Z</time>
      </trkpt>
      <trkpt lat="50.773273603990674" lon="4.426558585837483">
        <ele>92.519999999999996</ele>
        <time>2019-04-14T10:58:36Z</time>
      </trkpt>
      <trkpt lat="50.773081742227077" lon="4.426664616912603">
        <ele>91.769999999999996</ele>
        <time>2019-04-14T10:58:48Z</time>
      </trkpt>
      <trkpt lat="50.772894490510225" lon="4.426781628280878">
        <ele>91.150000000000006</ele>
        <time>2019-04-14T10:59:07Z</time>
      </trkpt>
      <trkpt lat="50.772629203274846" lon="4.426954546943307">
        <ele>90.459999999999994</ele>
        <time>2019-04-14T10:59:25Z</time>
      </trkpt>
      <trkpt lat="50.772340781986713" lon="4.427095865830779">
        <ele>90.569999999999993</ele>
        <time>2019-04-14T10:59:44Z</time>
      </trkpt>
      <trkpt lat="50.772049678489566" lon="4.427217654883862">
        <ele>93.120000000000005</ele>
        <time>2019-04-14T11:00:04Z</time>
      </trkpt>
      <trkpt lat="50.771971894428134" lon="4.427259564399719">
        <ele>93.959999999999994</ele>
        <time>2019-04-14T11:00:09Z</time>
      </trkpt>
      <trkpt lat="50.771890254691243" lon="4.427305748686194">
        <ele>94.840000000000003</ele>
        <time>2019-04-14T11:00:17Z</time>
      </trkpt>
      <trkpt lat="50.771811129525304" lon="4.427335588261485">
        <ele>95.849999999999994</ele>
        <time>2019-04-14T11:00:21Z</time>
      </trkpt>
      <trkpt lat="50.771788833662868" lon="4.427346233278513">
        <ele>95.829999999999998</ele>
        <time>2019-04-14T11:00:22Z</time>
      </trkpt>
      <trkpt lat="50.77177039347589" lon="4.427356710657477">
        <ele>95.859999999999999</ele>
        <time>2019-04-14T11:00:23Z</time>
      </trkpt>
      <trkpt lat="50.771754719316959" lon="4.427366266027093">
        <ele>95.879999999999995</ele>
        <time>2019-04-14T11:00:24Z</time>
      </trkpt>
      <trkpt lat="50.771730914711952" lon="4.42737883888185">
        <ele>96.920000000000002</ele>
        <time>2019-04-14T11:00:25Z</time>
      </trkpt>
      <trkpt lat="50.771536538377404" lon="4.427432315424085">
        <ele>97.989999999999995</ele>
        <time>2019-04-14T11:00:32Z</time>
      </trkpt>
      <trkpt lat="50.771506447345018" lon="4.427446899935603">
        <ele>98.010000000000005</ele>
        <time>2019-04-14T11:00:33Z</time>
      </trkpt>
      <trkpt lat="50.771479960530996" lon="4.427453018724918">
        <ele>98.879999999999995</ele>
        <time>2019-04-14T11:00:34Z</time>
      </trkpt>
      <trkpt lat="50.771451126784086" lon="4.4274677708745">
        <ele>98.900000000000006</ele>
        <time>2019-04-14T11:00:35Z</time>
      </trkpt>
      <trkpt lat="50.771420616656542" lon="4.427486713975668">
        <ele>98.909999999999997</ele>
        <time>2019-04-14T11:00:36Z</time>
      </trkpt>
      <trkpt lat="50.771398572251201" lon="4.427498951554298">
        <ele>98.739999999999995</ele>
        <time>2019-04-14T11:00:37Z</time>
      </trkpt>
      <trkpt lat="50.771377617493272" lon="4.427518146112561">
        <ele>98.859999999999999</ele>
        <time>2019-04-14T11:00:38Z</time>
      </trkpt>
      <trkpt lat="50.771357249468565" lon="4.427530048415065">
        <ele>99.689999999999998</ele>
        <time>2019-04-14T11:00:39Z</time>
      </trkpt>
      <trkpt lat="50.771337551996112" lon="4.427537173032761">
        <ele>99.719999999999999</ele>
        <time>2019-04-14T11:00:40Z</time>
      </trkpt>
      <trkpt lat="50.771272089332342" lon="4.427563743665814">
        <ele>99.549999999999997</ele>
        <time>2019-04-14T11:00:43Z</time>
      </trkpt>
      <trkpt lat="50.771250547841191" lon="4.427571874111891">
        <ele>99.549999999999997</ele>
        <time>2019-04-14T11:00:44Z</time>
      </trkpt>
      <trkpt lat="50.771219367161393" lon="4.427595175802708">
        <ele>99.670000000000002</ele>
        <time>2019-04-14T11:00:45Z</time>
      </trkpt>
      <trkpt lat="50.771153401583433" lon="4.427663655951619">
        <ele>99.670000000000002</ele>
        <time>2019-04-14T11:00:47Z</time>
      </trkpt>
      <trkpt lat="50.77111903578043" lon="4.427684945985675">
        <ele>99.659999999999997</ele>
        <time>2019-04-14T11:00:48Z</time>
      </trkpt>
      <trkpt lat="50.770952152088284" lon="4.427836826071143">
        <ele>99.609999999999999</ele>
        <time>2019-04-14T11:01:03Z</time>
      </trkpt>
      <trkpt lat="50.770787615329027" lon="4.427919303998351">
        <ele>99.670000000000002</ele>
        <time>2019-04-14T11:01:13Z</time>
      </trkpt>
      <trkpt lat="50.770599944517016" lon="4.428005050867796">
        <ele>100.52</ele>
        <time>2019-04-14T11:01:26Z</time>
      </trkpt>
      <trkpt lat="50.770361898466945" lon="4.428090797737241">
        <ele>100.53</ele>
        <time>2019-04-14T11:01:41Z</time>
      </trkpt>
      <trkpt lat="50.770292580127716" lon="4.428123319521546">
        <ele>100.56999999999999</ele>
        <time>2019-04-14T11:01:46Z</time>
      </trkpt>
      <trkpt lat="50.770261147990823" lon="4.428135892376304">
        <ele>100.56</ele>
        <time>2019-04-14T11:01:48Z</time>
      </trkpt>
      <trkpt lat="50.770199876278639" lon="4.428182328119874">
        <ele>100.56999999999999</ele>
        <time>2019-04-14T11:01:53Z</time>
      </trkpt>
      <trkpt lat="50.770188309252262" lon="4.428194230422378">
        <ele>100.56</ele>
        <time>2019-04-14T11:01:54Z</time>
      </trkpt>
      <trkpt lat="50.770177748054266" lon="4.428206300362945">
        <ele>100.55</ele>
        <time>2019-04-14T11:01:55Z</time>
      </trkpt>
      <trkpt lat="50.770164588466287" lon="4.42820655182004">
        <ele>100.56999999999999</ele>
        <time>2019-04-14T11:01:56Z</time>
      </trkpt>
      <trkpt lat="50.770125025883317" lon="4.428223986178637">
        <ele>98.170000000000002</ele>
        <time>2019-04-14T11:01:59Z</time>
      </trkpt>
      <trkpt lat="50.770108010619879" lon="4.428230188786984">
        <ele>98.099999999999994</ele>
        <time>2019-04-14T11:02:00Z</time>
      </trkpt>
      <trkpt lat="50.770093677565455" lon="4.428237564861774">
        <ele>98.170000000000002</ele>
        <time>2019-04-14T11:02:01Z</time>
      </trkpt>
      <trkpt lat="50.770079344511032" lon="4.42824762314558">
        <ele>98.099999999999994</ele>
        <time>2019-04-14T11:02:02Z</time>
      </trkpt>
      <trkpt lat="50.770068112760782" lon="4.428255669772625">
        <ele>98.099999999999994</ele>
        <time>2019-04-14T11:02:03Z</time>
      </trkpt>
      <trkpt lat="50.769906425848603" lon="4.428338315337896">
        <ele>97.010000000000005</ele>
        <time>2019-04-14T11:02:16Z</time>
      </trkpt>
      <trkpt lat="50.769645916298032" lon="4.428470162674785">
        <ele>95.489999999999995</ele>
        <time>2019-04-14T11:02:35Z</time>
      </trkpt>
      <trkpt lat="50.769406110048294" lon="4.428574685007334">
        <ele>94.700000000000003</ele>
        <time>2019-04-14T11:02:51Z</time>
      </trkpt>
      <trkpt lat="50.76913763768971" lon="4.428743245080113">
        <ele>93.700000000000003</ele>
        <time>2019-04-14T11:03:08Z</time>
      </trkpt>
      <trkpt lat="50.768923480063677" lon="4.428907362744212">
        <ele>93.700000000000003</ele>
        <time>2019-04-14T11:03:26Z</time>
      </trkpt>
      <trkpt lat="50.768775874748826" lon="4.429017752408981">
        <ele>93.700000000000003</ele>
        <time>2019-04-14T11:03:36Z</time>
      </trkpt>
      <trkpt lat="50.768544282764196" lon="4.429158149287105">
        <ele>91.959999999999994</ele>
        <time>2019-04-14T11:03:51Z</time>
      </trkpt>
      <trkpt lat="50.768396258354187" lon="4.429279686883092">
        <ele>91.939999999999998</ele>
        <time>2019-04-14T11:04:01Z</time>
      </trkpt>
      <trkpt lat="50.768381506204605" lon="4.429291924461722">
        <ele>91.920000000000002</ele>
        <time>2019-04-14T11:04:02Z</time>
      </trkpt>
      <trkpt lat="50.768181849271059" lon="4.42945453338325">
        <ele>91.060000000000002</ele>
        <time>2019-04-14T11:04:12Z</time>
      </trkpt>
      <trkpt lat="50.768156787380576" lon="4.42946626804769">
        <ele>90.170000000000002</ele>
        <time>2019-04-14T11:04:13Z</time>
      </trkpt>
      <trkpt lat="50.768131976947188" lon="4.429489066824317">
        <ele>90.159999999999997</ele>
        <time>2019-04-14T11:04:14Z</time>
      </trkpt>
      <trkpt lat="50.768103394657373" lon="4.429522007703781">
        <ele>90.180000000000007</ele>
        <time>2019-04-14T11:04:15Z</time>
      </trkpt>
      <trkpt lat="50.768065089359879" lon="4.429562743753195">
        <ele>90.180000000000007</ele>
        <time>2019-04-14T11:04:16Z</time>
      </trkpt>
      <trkpt lat="50.768037848174572" lon="4.429591493681073">
        <ele>90.170000000000002</ele>
        <time>2019-04-14T11:04:17Z</time>
      </trkpt>
      <trkpt lat="50.768008511513472" lon="4.429597025737166">
        <ele>89.099999999999994</ele>
        <time>2019-04-14T11:04:18Z</time>
      </trkpt>
      <trkpt lat="50.767638282850385" lon="4.429851332679391">
        <ele>87.489999999999995</ele>
        <time>2019-04-14T11:04:29Z</time>
      </trkpt>
      <trkpt lat="50.767564941197634" lon="4.429901205003262">
        <ele>86.700000000000003</ele>
        <time>2019-04-14T11:04:33Z</time>
      </trkpt>
      <trkpt lat="50.767496712505817" lon="4.429933978244662">
        <ele>85.900000000000006</ele>
        <time>2019-04-14T11:04:36Z</time>
      </trkpt>
      <trkpt lat="50.76747877523303" lon="4.429967254400253">
        <ele>85.920000000000002</ele>
        <time>2019-04-14T11:04:37Z</time>
      </trkpt>
      <trkpt lat="50.767458323389292" lon="4.429981419816613">
        <ele>85.939999999999998</ele>
        <time>2019-04-14T11:04:38Z</time>
      </trkpt>
      <trkpt lat="50.767017351463437" lon="4.430110501125455">
        <ele>84.150000000000006</ele>
        <time>2019-04-14T11:04:51Z</time>
      </trkpt>
      <trkpt lat="50.766978040337563" lon="4.43011955358088">
        <ele>84.159999999999997</ele>
        <time>2019-04-14T11:04:52Z</time>
      </trkpt>
      <trkpt lat="50.76693881303072" lon="4.430133383721113">
        <ele>84.180000000000007</ele>
        <time>2019-04-14T11:04:53Z</time>
      </trkpt>
      <trkpt lat="50.766901262104511" lon="4.430150147527456">
        <ele>84.180000000000007</ele>
        <time>2019-04-14T11:04:54Z</time>
      </trkpt>
      <trkpt lat="50.766757177188993" lon="4.430241426452994">
        <ele>83.400000000000006</ele>
        <time>2019-04-14T11:04:58Z</time>
      </trkpt>
      <trkpt lat="50.766732869669795" lon="4.430236648768187">
        <ele>83.400000000000006</ele>
        <time>2019-04-14T11:04:59Z</time>
      </trkpt>
      <trkpt lat="50.766714345663786" lon="4.430224075913429">
        <ele>83.409999999999997</ele>
        <time>2019-04-14T11:05:00Z</time>
      </trkpt>
      <trkpt lat="50.76665542088449" lon="4.430200690403581">
        <ele>83.400000000000006</ele>
        <time>2019-04-14T11:05:03Z</time>
      </trkpt>
      <trkpt lat="50.76663538813591" lon="4.430205216631293">
        <ele>83.430000000000007</ele>
        <time>2019-04-14T11:05:04Z</time>
      </trkpt>
      <trkpt lat="50.766618121415377" lon="4.43021728657186">
        <ele>83.409999999999997</ele>
        <time>2019-04-14T11:05:05Z</time>
      </trkpt>
      <trkpt lat="50.766601273790002" lon="4.430231535807252">
        <ele>83.409999999999997</ele>
        <time>2019-04-14T11:05:06Z</time>
      </trkpt>
      <trkpt lat="50.766580486670136" lon="4.430231284350157">
        <ele>83.390000000000001</ele>
        <time>2019-04-14T11:05:07Z</time>
      </trkpt>
      <trkpt lat="50.766372447833419" lon="4.430153835564852">
        <ele>82.329999999999998</ele>
        <time>2019-04-14T11:05:17Z</time>
      </trkpt>
      <trkpt lat="50.766350822523236" lon="4.430136065930128">
        <ele>81.310000000000002</ele>
        <time>2019-04-14T11:05:18Z</time>
      </trkpt>
      <trkpt lat="50.766323832795024" lon="4.430138245224953">
        <ele>81.290000000000006</ele>
        <time>2019-04-14T11:05:19Z</time>
      </trkpt>
      <trkpt lat="50.766290556639433" lon="4.430112596601248">
        <ele>81.260000000000005</ele>
        <time>2019-04-14T11:05:20Z</time>
      </trkpt>
      <trkpt lat="50.766266500577331" lon="4.430106058716774">
        <ele>81.269999999999996</ele>
        <time>2019-04-14T11:05:21Z</time>
      </trkpt>
      <trkpt lat="50.766240265220404" lon="4.430103292688727">
        <ele>80.260000000000005</ele>
        <time>2019-04-14T11:05:22Z</time>
      </trkpt>
      <trkpt lat="50.766212772578001" lon="4.430114105343819">
        <ele>80.219999999999999</ele>
        <time>2019-04-14T11:05:23Z</time>
      </trkpt>
      <trkpt lat="50.766183855012059" lon="4.430101197212935">
        <ele>79.409999999999997</ele>
        <time>2019-04-14T11:05:24Z</time>
      </trkpt>
      <trkpt lat="50.76615996658802" lon="4.430106310173869">
        <ele>79.370000000000005</ele>
        <time>2019-04-14T11:05:25Z</time>
      </trkpt>
      <trkpt lat="50.766132809221745" lon="4.430088205263019">
        <ele>79.379999999999995</ele>
        <time>2019-04-14T11:05:26Z</time>
      </trkpt>
      <trkpt lat="50.766106490045786" lon="4.430089378729463">
        <ele>79.349999999999994</ele>
        <time>2019-04-14T11:05:27Z</time>
      </trkpt>
      <trkpt lat="50.766084026545286" lon="4.430087618529797">
        <ele>78.469999999999999</ele>
        <time>2019-04-14T11:05:28Z</time>
      </trkpt>
      <trkpt lat="50.766057204455137" lon="4.430103711783886">
        <ele>78.439999999999998</ele>
        <time>2019-04-14T11:05:29Z</time>
      </trkpt>
      <trkpt lat="50.765878167003393" lon="4.430114943534136">
        <ele>75.959999999999994</ele>
        <time>2019-04-14T11:05:37Z</time>
      </trkpt>
      <trkpt lat="50.765859475359321" lon="4.43011661991477">
        <ele>75.920000000000002</ele>
        <time>2019-04-14T11:05:39Z</time>
      </trkpt>
      <trkpt lat="50.765743972733617" lon="4.43031158298254">
        <ele>71.670000000000002</ele>
        <time>2019-04-14T11:05:58Z</time>
      </trkpt>
      <trkpt lat="50.765736931934953" lon="4.430337985977531">
        <ele>71.670000000000002</ele>
        <time>2019-04-14T11:05:59Z</time>
      </trkpt>
      <trkpt lat="50.76567423529923" lon="4.430714836344123">
        <ele>68.689999999999998</ele>
        <time>2019-04-14T11:06:14Z</time>
      </trkpt>
      <trkpt lat="50.76567180454731" lon="4.431143319234252">
        <ele>67.799999999999997</ele>
        <time>2019-04-14T11:06:33Z</time>
      </trkpt>
      <trkpt lat="50.765556385740638" lon="4.431513631716371">
        <ele>66.540000000000006</ele>
        <time>2019-04-14T11:06:50Z</time>
      </trkpt>
      <trkpt lat="50.765547081828117" lon="4.431528300046921">
        <ele>66.579999999999998</ele>
        <time>2019-04-14T11:06:51Z</time>
      </trkpt>
      <trkpt lat="50.765388244763017" lon="4.431917304173112">
        <ele>64.790000000000006</ele>
        <time>2019-04-14T11:07:03Z</time>
      </trkpt>
      <trkpt lat="50.764915086328983" lon="4.432271355763078">
        <ele>64.790000000000006</ele>
        <time>2019-04-14T11:07:25Z</time>
      </trkpt>
      <trkpt lat="50.764761446043849" lon="4.432313768193126">
        <ele>64.849999999999994</ele>
        <time>2019-04-14T11:07:39Z</time>
      </trkpt>
      <trkpt lat="50.764589114114642" lon="4.432405047118664">
        <ele>67.560000000000002</ele>
        <time>2019-04-14T11:07:45Z</time>
      </trkpt>
      <trkpt lat="50.764531027525663" lon="4.432412590831518">
        <ele>68.790000000000006</ele>
        <time>2019-04-14T11:07:48Z</time>
      </trkpt>
      <trkpt lat="50.764515185728669" lon="4.432422062382102">
        <ele>68.840000000000003</ele>
        <time>2019-04-14T11:07:49Z</time>
      </trkpt>
      <trkpt lat="50.76449423097074" lon="4.432437317445874">
        <ele>69.859999999999999</ele>
        <time>2019-04-14T11:07:50Z</time>
      </trkpt>
      <trkpt lat="50.764419380575418" lon="4.432481154799461">
        <ele>71.659999999999997</ele>
        <time>2019-04-14T11:07:54Z</time>
      </trkpt>
      <trkpt lat="50.764403035864234" lon="4.432481992989779">
        <ele>72.930000000000007</ele>
        <time>2019-04-14T11:07:56Z</time>
      </trkpt>
      <trkpt lat="50.76439892873168" lon="4.432485345751047">
        <ele>74.340000000000003</ele>
        <time>2019-04-14T11:07:58Z</time>
      </trkpt>
      <trkpt lat="50.7643823325634" lon="4.432521974667907">
        <ele>74.760000000000005</ele>
        <time>2019-04-14T11:07:59Z</time>
      </trkpt>
      <trkpt lat="50.764370514079928" lon="4.432527590543032">
        <ele>75.180000000000007</ele>
        <time>2019-04-14T11:08:00Z</time>
      </trkpt>
      <trkpt lat="50.764342518523335" lon="4.432559357956052">
        <ele>76.569999999999993</ele>
        <time>2019-04-14T11:08:02Z</time>
      </trkpt>
      <trkpt lat="50.764272529631853" lon="4.432647619396448">
        <ele>79.659999999999997</ele>
        <time>2019-04-14T11:08:07Z</time>
      </trkpt>
      <trkpt lat="50.764253921806812" lon="4.432669663801789">
        <ele>79.599999999999994</ele>
        <time>2019-04-14T11:08:08Z</time>
      </trkpt>
      <trkpt lat="50.764215784147382" lon="4.432777287438512">
        <ele>81.170000000000002</ele>
        <time>2019-04-14T11:08:11Z</time>
      </trkpt>
      <trkpt lat="50.764200948178768" lon="4.432799331843853">
        <ele>81.150000000000006</ele>
        <time>2019-04-14T11:08:12Z</time>
      </trkpt>
      <trkpt lat="50.763952173292637" lon="4.433279950171709">
        <ele>83.290000000000006</ele>
        <time>2019-04-14T11:08:24Z</time>
      </trkpt>
      <trkpt lat="50.763942198827863" lon="4.433328313753009">
        <ele>83.280000000000001</ele>
        <time>2019-04-14T11:08:25Z</time>
      </trkpt>
      <trkpt lat="50.763927949592471" lon="4.43336988799274">
        <ele>83.180000000000007</ele>
        <time>2019-04-14T11:08:26Z</time>
      </trkpt>
      <trkpt lat="50.763911521062255" lon="4.4334168266505">
        <ele>83.180000000000007</ele>
        <time>2019-04-14T11:08:27Z</time>
      </trkpt>
      <trkpt lat="50.763917891308665" lon="4.433437446132302">
        <ele>84.549999999999997</ele>
        <time>2019-04-14T11:08:28Z</time>
      </trkpt>
      <trkpt lat="50.763916382566094" lon="4.433485809713602">
        <ele>84.510000000000005</ele>
        <time>2019-04-14T11:08:29Z</time>
      </trkpt>
      <trkpt lat="50.763753103092313" lon="4.434114955365658">
        <ele>86.709999999999994</ele>
        <time>2019-04-14T11:08:39Z</time>
      </trkpt>
      <trkpt lat="50.763691579923034" lon="4.434325592592359">
        <ele>89.950000000000003</ele>
        <time>2019-04-14T11:08:43Z</time>
      </trkpt>
      <trkpt lat="50.763681354001164" lon="4.434369429945946">
        <ele>85.390000000000001</ele>
        <time>2019-04-14T11:08:44Z</time>
      </trkpt>
      <trkpt lat="50.763672217726707" lon="4.434412261471152">
        <ele>88.980000000000004</ele>
        <time>2019-04-14T11:08:45Z</time>
      </trkpt>
      <trkpt lat="50.763547662645578" lon="4.434810066595674">
        <ele>88.709999999999994</ele>
        <time>2019-04-14T11:08:57Z</time>
      </trkpt>
      <trkpt lat="50.763428052887321" lon="4.43464276380837">
        <ele>88.680000000000007</ele>
        <time>2019-04-14T11:09:14Z</time>
      </trkpt>
      <trkpt lat="50.763401398435235" lon="4.434596579521895">
        <ele>88.680000000000007</ele>
        <time>2019-04-14T11:09:16Z</time>
      </trkpt>
      <trkpt lat="50.763258570805192" lon="4.434465486556292">
        <ele>88.730000000000004</ele>
        <time>2019-04-14T11:09:30Z</time>
      </trkpt>
      <trkpt lat="50.763198724016547" lon="4.434421984478831">
        <ele>88.75</ele>
        <time>2019-04-14T11:09:34Z</time>
      </trkpt>
      <trkpt lat="50.763183468952775" lon="4.43441360257566">
        <ele>88.75</ele>
        <time>2019-04-14T11:09:35Z</time>
      </trkpt>
      <trkpt lat="50.763167291879654" lon="4.434401364997029">
        <ele>88.75</ele>
        <time>2019-04-14T11:09:36Z</time>
      </trkpt>
      <trkpt lat="50.762969981878996" lon="4.434244288131595">
        <ele>89.620000000000005</ele>
        <time>2019-04-14T11:09:49Z</time>
      </trkpt>
      <trkpt lat="50.762850372120738" lon="4.434171449393034">
        <ele>93.140000000000001</ele>
        <time>2019-04-14T11:09:59Z</time>
      </trkpt>
      <trkpt lat="50.762841738760471" lon="4.434169856831431">
        <ele>93.129999999999995</ele>
        <time>2019-04-14T11:10:00Z</time>
      </trkpt>
      <trkpt lat="50.762795805931091" lon="4.434143621474505">
        <ele>90.439999999999998</ele>
        <time>2019-04-14T11:10:06Z</time>
      </trkpt>
      <trkpt lat="50.76256999745965" lon="4.43399291485548">
        <ele>90.390000000000001</ele>
        <time>2019-04-14T11:10:23Z</time>
      </trkpt>
      <trkpt lat="50.76228367164731" lon="4.43381161428988">
        <ele>90.329999999999998</ele>
        <time>2019-04-14T11:10:43Z</time>
      </trkpt>
      <trkpt lat="50.762033136561513" lon="4.433699548244476">
        <ele>90.290000000000006</ele>
        <time>2019-04-14T11:10:56Z</time>
      </trkpt>
      <trkpt lat="50.761834485456347" lon="4.433643808588386">
        <ele>90.280000000000001</ele>
        <time>2019-04-14T11:11:08Z</time>
      </trkpt>
      <trkpt lat="50.759072313085198" lon="4.431981928646565">
        <ele>92.879999999999995</ele>
        <time>2019-04-14T11:15:15Z</time>
      </trkpt>
      <trkpt lat="50.758480969816446" lon="4.431155472993851">
        <ele>94.769999999999996</ele>
        <time>2019-04-14T11:16:13Z</time>
      </trkpt>
      <trkpt lat="50.757874371483922" lon="4.430541917681694">
        <ele>95.909999999999997</ele>
        <time>2019-04-14T11:17:01Z</time>
      </trkpt>
      <trkpt lat="50.757145313546062" lon="4.429911598563194">
        <ele>95.890000000000001</ele>
        <time>2019-04-14T11:17:58Z</time>
      </trkpt>
      <trkpt lat="50.756861753761768" lon="4.429778577759862">
        <ele>95.920000000000002</ele>
        <time>2019-04-14T11:18:16Z</time>
      </trkpt>
      <trkpt lat="50.756555562838912" lon="4.429596606642008">
        <ele>93.590000000000003</ele>
        <time>2019-04-14T11:18:39Z</time>
      </trkpt>
      <trkpt lat="50.756457662209868" lon="4.429572634398937">
        <ele>93.599999999999994</ele>
        <time>2019-04-14T11:18:43Z</time>
      </trkpt>
      <trkpt lat="50.756092630326748" lon="4.4293621648103">
        <ele>93.629999999999995</ele>
        <time>2019-04-14T11:18:53Z</time>
      </trkpt>
      <trkpt lat="50.755641348659992" lon="4.428906356915832">
        <ele>92.680000000000007</ele>
        <time>2019-04-14T11:19:10Z</time>
      </trkpt>
      <trkpt lat="50.75561536476016" lon="4.428879199549556">
        <ele>92.689999999999998</ele>
        <time>2019-04-14T11:19:11Z</time>
      </trkpt>
      <trkpt lat="50.75558602809906" lon="4.428843576461077">
        <ele>92.689999999999998</ele>
        <time>2019-04-14T11:19:12Z</time>
      </trkpt>
      <trkpt lat="50.755052771419287" lon="4.428407549858093">
        <ele>92.700000000000003</ele>
        <time>2019-04-14T11:19:29Z</time>
      </trkpt>
      <trkpt lat="50.754708526656032" lon="4.427985856309533">
        <ele>92.569999999999993</ele>
        <time>2019-04-14T11:19:43Z</time>
      </trkpt>
      <trkpt lat="50.754650020971894" lon="4.427891978994012">
        <ele>92.540000000000006</ele>
        <time>2019-04-14T11:19:46Z</time>
      </trkpt>
      <trkpt lat="50.754614565521479" lon="4.427886195480824">
        <ele>92.530000000000001</ele>
        <time>2019-04-14T11:19:47Z</time>
      </trkpt>
      <trkpt lat="50.754288928583264" lon="4.427571874111891">
        <ele>92.469999999999999</ele>
        <time>2019-04-14T11:19:58Z</time>
      </trkpt>
      <trkpt lat="50.753977792337537" lon="4.427273143082857">
        <ele>92.420000000000002</ele>
        <time>2019-04-14T11:20:11Z</time>
      </trkpt>
      <trkpt lat="50.753902019932866" lon="4.427450085058808">
        <ele>92.409999999999997</ele>
        <time>2019-04-14T11:20:12Z</time>
      </trkpt>
      <trkpt lat="50.753824654966593" lon="4.427598360925913">
        <ele>92.349999999999994</ele>
        <time>2019-04-14T11:20:23Z</time>
      </trkpt>
      <trkpt lat="50.753685850650072" lon="4.428054923191667">
        <ele>92.299999999999997</ele>
        <time>2019-04-14T11:20:43Z</time>
      </trkpt>
      <trkpt lat="50.753553751856089" lon="4.428298668935895">
        <ele>94.540000000000006</ele>
        <time>2019-04-14T11:20:54Z</time>
      </trkpt>
      <trkpt lat="50.75351033359766" lon="4.428315348923206">
        <ele>94.560000000000002</ele>
        <time>2019-04-14T11:21:00Z</time>
      </trkpt>
      <trkpt lat="50.753388879820704" lon="4.428220465779305">
        <ele>94.480000000000004</ele>
        <time>2019-04-14T11:21:12Z</time>
      </trkpt>
      <trkpt lat="50.753172878175974" lon="4.428104292601347">
        <ele>94.409999999999997</ele>
        <time>2019-04-14T11:21:27Z</time>
      </trkpt>
      <trkpt lat="50.753160389140248" lon="4.42810588516295">
        <ele>94.420000000000002</ele>
        <time>2019-04-14T11:21:28Z</time>
      </trkpt>
      <trkpt lat="50.75301731005311" lon="4.428071519359946">
        <ele>94.420000000000002</ele>
        <time>2019-04-14T11:21:35Z</time>
      </trkpt>
      <trkpt lat="50.752816395834088" lon="4.427934475243092">
        <ele>94.370000000000005</ele>
        <time>2019-04-14T11:21:56Z</time>
      </trkpt>
      <trkpt lat="50.75250618159771" lon="4.427698189392686">
        <ele>94.370000000000005</ele>
        <time>2019-04-14T11:22:16Z</time>
      </trkpt>
      <trkpt lat="50.752237793058157" lon="4.427498197183013">
        <ele>94.459999999999994</ele>
        <time>2019-04-14T11:22:34Z</time>
      </trkpt>
      <trkpt lat="50.752189513295889" lon="4.427447067573667">
        <ele>94.480000000000004</ele>
        <time>2019-04-14T11:22:39Z</time>
      </trkpt>
      <trkpt lat="50.751952389255166" lon="4.427344556897879">
        <ele>94.569999999999993</ele>
        <time>2019-04-14T11:23:00Z</time>
      </trkpt>
      <trkpt lat="50.751697076484561" lon="4.427190413698554">
        <ele>95.450000000000003</ele>
        <time>2019-04-14T11:23:19Z</time>
      </trkpt>
      <trkpt lat="50.751508567482233" lon="4.427092093974352">
        <ele>95.480000000000004</ele>
        <time>2019-04-14T11:23:32Z</time>
      </trkpt>
      <trkpt lat="50.751175219193101" lon="4.426895119249821">
        <ele>95.549999999999997</ele>
        <time>2019-04-14T11:23:50Z</time>
      </trkpt>
      <trkpt lat="50.750921163707972" lon="4.426723038777709">
        <ele>95.629999999999995</ele>
        <time>2019-04-14T11:24:10Z</time>
      </trkpt>
      <trkpt lat="50.750720500946045" lon="4.426574259996414">
        <ele>96.590000000000003</ele>
        <time>2019-04-14T11:24:29Z</time>
      </trkpt>
      <trkpt lat="50.750711113214493" lon="4.42656621336937">
        <ele>96.590000000000003</ele>
        <time>2019-04-14T11:24:30Z</time>
      </trkpt>
      <trkpt lat="50.750427972525358" lon="4.426433192566037">
        <ele>97.459999999999994</ele>
        <time>2019-04-14T11:24:47Z</time>
      </trkpt>
      <trkpt lat="50.750148100778461" lon="4.426255496218801">
        <ele>98.219999999999999</ele>
        <time>2019-04-14T11:25:04Z</time>
      </trkpt>
      <trkpt lat="50.749866552650928" lon="4.426130438223481">
        <ele>98.180000000000007</ele>
        <time>2019-04-14T11:25:23Z</time>
      </trkpt>
      <trkpt lat="50.749646360054612" lon="4.426036477088928">
        <ele>98.180000000000007</ele>
        <time>2019-04-14T11:25:37Z</time>
      </trkpt>
      <trkpt lat="50.748763997107744" lon="4.425642108544707">
        <ele>98.980000000000004</ele>
        <time>2019-04-14T11:26:40Z</time>
      </trkpt>
      <trkpt lat="50.748429475352168" lon="4.425463238731027">
        <ele>99.930000000000007</ele>
        <time>2019-04-14T11:26:58Z</time>
      </trkpt>
      <trkpt lat="50.748396450653672" lon="4.425397524610162">
        <ele>101.8</ele>
        <time>2019-04-14T11:27:05Z</time>
      </trkpt>
      <trkpt lat="50.748359486460686" lon="4.425348741933703">
        <ele>98.049999999999997</ele>
        <time>2019-04-14T11:27:08Z</time>
      </trkpt>
      <trkpt lat="50.748358564451337" lon="4.425336252897978">
        <ele>98.049999999999997</ele>
        <time>2019-04-14T11:27:09Z</time>
      </trkpt>
      <trkpt lat="50.74830106459558" lon="4.425288643687964">
        <ele>100.38</ele>
        <time>2019-04-14T11:27:13Z</time>
      </trkpt>
      <trkpt lat="50.748128648847342" lon="4.425189904868603">
        <ele>100.38</ele>
        <time>2019-04-14T11:27:24Z</time>
      </trkpt>
      <trkpt lat="50.747792115435004" lon="4.424874577671289">
        <ele>100.43000000000001</ele>
        <time>2019-04-14T11:27:45Z</time>
      </trkpt>
      <trkpt lat="50.747581059113145" lon="4.424663856625557">
        <ele>100.48</ele>
        <time>2019-04-14T11:28:01Z</time>
      </trkpt>
      <trkpt lat="50.747344102710485" lon="4.424497475847602">
        <ele>101.38</ele>
        <time>2019-04-14T11:28:19Z</time>
      </trkpt>
      <trkpt lat="50.747130196541548" lon="4.424266638234258">
        <ele>102.26000000000001</ele>
        <time>2019-04-14T11:28:39Z</time>
      </trkpt>
      <trkpt lat="50.746826604008675" lon="4.424098748713732">
        <ele>103.13</ele>
        <time>2019-04-14T11:28:59Z</time>
      </trkpt>
      <trkpt lat="50.746621415019035" lon="4.42398332990706">
        <ele>103.12</ele>
        <time>2019-04-14T11:29:18Z</time>
      </trkpt>
      <trkpt lat="50.746602723374963" lon="4.42393840290606">
        <ele>103.12</ele>
        <time>2019-04-14T11:29:23Z</time>
      </trkpt>
      <trkpt lat="50.746383536607027" lon="4.423565324395895">
        <ele>103.16</ele>
        <time>2019-04-14T11:29:43Z</time>
      </trkpt>
      <trkpt lat="50.746141215786338" lon="4.423331553116441">
        <ele>103.20999999999999</ele>
        <time>2019-04-14T11:30:01Z</time>
      </trkpt>
      <trkpt lat="50.745859919115901" lon="4.42304078489542">
        <ele>103.23999999999999</ele>
        <time>2019-04-14T11:30:20Z</time>
      </trkpt>
      <trkpt lat="50.745683396235108" lon="4.422815563157201">
        <ele>104.09999999999999</ele>
        <time>2019-04-14T11:30:36Z</time>
      </trkpt>
      <trkpt lat="50.745521625503898" lon="4.422628059983254">
        <ele>104.90000000000001</ele>
        <time>2019-04-14T11:30:50Z</time>
      </trkpt>
      <trkpt lat="50.745416264981031" lon="4.422462685033679">
        <ele>104.91</ele>
        <time>2019-04-14T11:30:56Z</time>
      </trkpt>
      <trkpt lat="50.745389359071851" lon="4.422267135232687">
        <ele>104.92</ele>
        <time>2019-04-14T11:31:06Z</time>
      </trkpt>
      <trkpt lat="50.745386593043804" lon="4.42224282771349">
        <ele>104.91</ele>
        <time>2019-04-14T11:31:07Z</time>
      </trkpt>
      <trkpt lat="50.74537661857903" lon="4.42221692763269">
        <ele>104.91</ele>
        <time>2019-04-14T11:31:08Z</time>
      </trkpt>
      <trkpt lat="50.745371505618095" lon="4.4221973977983">
        <ele>104.91</ele>
        <time>2019-04-14T11:31:09Z</time>
      </trkpt>
      <trkpt lat="50.745356250554323" lon="4.422180214896798">
        <ele>104.92</ele>
        <time>2019-04-14T11:31:10Z</time>
      </trkpt>
      <trkpt lat="50.745250722393394" lon="4.421995142474771">
        <ele>106.06</ele>
        <time>2019-04-14T11:31:21Z</time>
      </trkpt>
      <trkpt lat="50.745183667168021" lon="4.421892296522856">
        <ele>106.06</ele>
        <time>2019-04-14T11:31:27Z</time>
      </trkpt>
      <trkpt lat="50.745169166475534" lon="4.421812668442726">
        <ele>106.06</ele>
        <time>2019-04-14T11:31:31Z</time>
      </trkpt>
      <trkpt lat="50.745125580579042" lon="4.421744355931878">
        <ele>106.06</ele>
        <time>2019-04-14T11:31:34Z</time>
      </trkpt>
      <trkpt lat="50.744985099881887" lon="4.42150991410017">
        <ele>106.08</ele>
        <time>2019-04-14T11:31:46Z</time>
      </trkpt>
      <trkpt lat="50.744862891733646" lon="4.421330625191331">
        <ele>102.78</ele>
        <time>2019-04-14T11:31:58Z</time>
      </trkpt>
      <trkpt lat="50.744853587821126" lon="4.421301707625389">
        <ele>106.29000000000001</ele>
        <time>2019-04-14T11:32:00Z</time>
      </trkpt>
      <trkpt lat="50.744840679690242" lon="4.421279244124889">
        <ele>106.28</ele>
        <time>2019-04-14T11:32:01Z</time>
      </trkpt>
      <trkpt lat="50.744656445458531" lon="4.420969197526574">
        <ele>106.29000000000001</ele>
        <time>2019-04-14T11:32:16Z</time>
      </trkpt>
      <trkpt lat="50.744433654472232" lon="4.42068949341774">
        <ele>106.31</ele>
        <time>2019-04-14T11:32:34Z</time>
      </trkpt>
      <trkpt lat="50.744314547628164" lon="4.420480951666832">
        <ele>107.48</ele>
        <time>2019-04-14T11:32:46Z</time>
      </trkpt>
      <trkpt lat="50.744106760248542" lon="4.420167971402407">
        <ele>107.52</ele>
        <time>2019-04-14T11:33:07Z</time>
      </trkpt>
      <trkpt lat="50.743845915421844" lon="4.419951383024454">
        <ele>108.33</ele>
        <time>2019-04-14T11:33:27Z</time>
      </trkpt>
      <trkpt lat="50.743587417528033" lon="4.419768741354346">
        <ele>109.23999999999999</ele>
        <time>2019-04-14T11:33:47Z</time>
      </trkpt>
      <trkpt lat="50.743288518860936" lon="4.419653825461865">
        <ele>109.3</ele>
        <time>2019-04-14T11:34:07Z</time>
      </trkpt>
      <trkpt lat="50.743076205253601" lon="4.419436315074563">
        <ele>110.11</ele>
        <time>2019-04-14T11:34:25Z</time>
      </trkpt>
      <trkpt lat="50.742942346259952" lon="4.419306814670563">
        <ele>110.15000000000001</ele>
        <time>2019-04-14T11:34:34Z</time>
      </trkpt>
      <trkpt lat="50.742747969925404" lon="4.41913858987391">
        <ele>111.05</ele>
        <time>2019-04-14T11:34:53Z</time>
      </trkpt>
      <trkpt lat="50.742574632167816" lon="4.418878331780434">
        <ele>111.09999999999999</ele>
        <time>2019-04-14T11:35:12Z</time>
      </trkpt>
      <trkpt lat="50.742192668840289" lon="4.418259914964438">
        <ele>113.06999999999999</ele>
        <time>2019-04-14T11:35:52Z</time>
      </trkpt>
      <trkpt lat="50.741981444880366" lon="4.417956741526723">
        <ele>114.03</ele>
        <time>2019-04-14T11:36:12Z</time>
      </trkpt>
      <trkpt lat="50.741456905379891" lon="4.416911266744137">
        <ele>113.83</ele>
        <time>2019-04-14T11:37:06Z</time>
      </trkpt>
      <trkpt lat="50.741254733875394" lon="4.416570877656341">
        <ele>113.65000000000001</ele>
        <time>2019-04-14T11:37:24Z</time>
      </trkpt>
      <trkpt lat="50.741077540442348" lon="4.416182963177562">
        <ele>113.47</ele>
        <time>2019-04-14T11:37:44Z</time>
      </trkpt>
      <trkpt lat="50.740891713649035" lon="4.415910299867392">
        <ele>113.31</ele>
        <time>2019-04-14T11:38:02Z</time>
      </trkpt>
      <trkpt lat="50.740739582106471" lon="4.415617771446705">
        <ele>113.16</ele>
        <time>2019-04-14T11:38:21Z</time>
      </trkpt>
      <trkpt lat="50.740605387836695" lon="4.415319040417671">
        <ele>113.01000000000001</ele>
        <time>2019-04-14T11:38:39Z</time>
      </trkpt>
      <trkpt lat="50.740429367870092" lon="4.414862897247076">
        <ele>112.88</ele>
        <time>2019-04-14T11:38:58Z</time>
      </trkpt>
      <trkpt lat="50.740398438647389" lon="4.414548492059112">
        <ele>112.81</ele>
        <time>2019-04-14T11:39:10Z</time>
      </trkpt>
      <trkpt lat="50.740411849692464" lon="4.41430851817131">
        <ele>110.43000000000001</ele>
        <time>2019-04-14T11:39:20Z</time>
      </trkpt>
      <trkpt lat="50.740278828889132" lon="4.413787499070168">
        <ele>110.34</ele>
        <time>2019-04-14T11:39:40Z</time>
      </trkpt>
      <trkpt lat="50.74026701040566" lon="4.413715414702892">
        <ele>110.34</ele>
        <time>2019-04-14T11:39:43Z</time>
      </trkpt>
      <trkpt lat="50.740237925201654" lon="4.413584237918258">
        <ele>110.31999999999999</ele>
        <time>2019-04-14T11:39:49Z</time>
      </trkpt>
      <trkpt lat="50.740230297669768" lon="4.41354182548821">
        <ele>110.3</ele>
        <time>2019-04-14T11:39:51Z</time>
      </trkpt>
      <trkpt lat="50.740209678187966" lon="4.413503939285874">
        <ele>110.29000000000001</ele>
        <time>2019-04-14T11:39:53Z</time>
      </trkpt>
      <trkpt lat="50.740190483629704" lon="4.413361446931958">
        <ele>110.27</ele>
        <time>2019-04-14T11:39:59Z</time>
      </trkpt>
      <trkpt lat="50.740162236616015" lon="4.413094818592072">
        <ele>112.54000000000001</ele>
        <time>2019-04-14T11:40:11Z</time>
      </trkpt>
      <trkpt lat="50.740161146968603" lon="4.412801871076226">
        <ele>112.45</ele>
        <time>2019-04-14T11:40:24Z</time>
      </trkpt>
      <trkpt lat="50.740121249109507" lon="4.412145400419831">
        <ele>112.88</ele>
        <time>2019-04-14T11:40:55Z</time>
      </trkpt>
      <trkpt lat="50.740032652392983" lon="4.411709289997816">
        <ele>112.66</ele>
        <time>2019-04-14T11:41:11Z</time>
      </trkpt>
      <trkpt lat="50.739953862503171" lon="4.411458922550082">
        <ele>112.56999999999999</ele>
        <time>2019-04-14T11:41:21Z</time>
      </trkpt>
      <trkpt lat="50.73992888443172" lon="4.411405781283975">
        <ele>112.52</ele>
        <time>2019-04-14T11:41:25Z</time>
      </trkpt>
      <trkpt lat="50.739736016839743" lon="4.411236383020878">
        <ele>112.26000000000001</ele>
        <time>2019-04-14T11:41:48Z</time>
      </trkpt>
      <trkpt lat="50.739717576652765" lon="4.411102775484324">
        <ele>119.84</ele>
        <time>2019-04-14T13:49:27Z</time>
      </trkpt>
      <trkpt lat="50.739812292158604" lon="4.41108793951571">
        <ele>117.47</ele>
        <time>2019-04-14T13:49:34Z</time>
      </trkpt>
      <trkpt lat="50.739898290485144" lon="4.411106966435909">
        <ele>117.53</ele>
        <time>2019-04-14T13:49:43Z</time>
      </trkpt>
      <trkpt lat="50.739899296313524" lon="4.411208303645253">
        <ele>117.5</ele>
        <time>2019-04-14T13:49:55Z</time>
      </trkpt>
      <trkpt lat="50.739947576075792" lon="4.411419359967113">
        <ele>117.43000000000001</ele>
        <time>2019-04-14T13:50:11Z</time>
      </trkpt>
      <trkpt lat="50.739962831139565" lon="4.411575933918357">
        <ele>117.39</ele>
        <time>2019-04-14T13:50:17Z</time>
      </trkpt>
      <trkpt lat="50.740011362358928" lon="4.411875419318676">
        <ele>117.19</ele>
        <time>2019-04-14T13:50:34Z</time>
      </trkpt>
      <trkpt lat="50.740083446726203" lon="4.412299795076251">
        <ele>116.89</ele>
        <time>2019-04-14T13:50:56Z</time>
      </trkpt>
      <trkpt lat="50.740162488073111" lon="4.412786113098264">
        <ele>116.48999999999999</ele>
        <time>2019-04-14T13:51:16Z</time>
      </trkpt>
      <trkpt lat="50.740162488073111" lon="4.413214679807425">
        <ele>115.02</ele>
        <time>2019-04-14T13:51:35Z</time>
      </trkpt>
      <trkpt lat="50.740257035940886" lon="4.413623465225101">
        <ele>114.65000000000001</ele>
        <time>2019-04-14T13:51:55Z</time>
      </trkpt>
      <trkpt lat="50.740331634879112" lon="4.414006434381008">
        <ele>113.3</ele>
        <time>2019-04-14T13:52:13Z</time>
      </trkpt>
      <trkpt lat="50.740354936569929" lon="4.414227716624737">
        <ele>113.16</ele>
        <time>2019-04-14T13:52:24Z</time>
      </trkpt>
      <trkpt lat="50.740371868014336" lon="4.414347494021058">
        <ele>115.59999999999999</ele>
        <time>2019-04-14T13:52:29Z</time>
      </trkpt>
      <trkpt lat="50.740407826378942" lon="4.414577661082149">
        <ele>115.34999999999999</ele>
        <time>2019-04-14T13:52:37Z</time>
      </trkpt>
      <trkpt lat="50.740397516638041" lon="4.414676651358604">
        <ele>115.36</ele>
        <time>2019-04-14T13:52:41Z</time>
      </trkpt>
      <trkpt lat="50.740467002615333" lon="4.414954008534551">
        <ele>115.04000000000001</ele>
        <time>2019-04-14T13:52:51Z</time>
      </trkpt>
      <trkpt lat="50.740483095869422" lon="4.414989966899157">
        <ele>115.04000000000001</ele>
        <time>2019-04-14T13:52:53Z</time>
      </trkpt>
      <trkpt lat="50.74079230427742" lon="4.415675941854715">
        <ele>114.3</ele>
        <time>2019-04-14T13:53:29Z</time>
      </trkpt>
      <trkpt lat="50.741023812443018" lon="4.41631967201829">
        <ele>113.45999999999999</ele>
        <time>2019-04-14T13:54:07Z</time>
      </trkpt>
      <trkpt lat="50.741116013377905" lon="4.416491752490401">
        <ele>113.31</ele>
        <time>2019-04-14T13:54:13Z</time>
      </trkpt>
      <trkpt lat="50.741129172965884" lon="4.416526537388563">
        <ele>113.27</ele>
        <time>2019-04-14T13:54:14Z</time>
      </trkpt>
      <trkpt lat="50.741141578182578" lon="4.416569285094738">
        <ele>113.26000000000001</ele>
        <time>2019-04-14T13:54:15Z</time>
      </trkpt>
      <trkpt lat="50.741270994767547" lon="4.416839517652988">
        <ele>113.02</ele>
        <time>2019-04-14T13:54:25Z</time>
      </trkpt>
      <trkpt lat="50.741281304508448" lon="4.416851168498397">
        <ele>113</ele>
        <time>2019-04-14T13:54:26Z</time>
      </trkpt>
      <trkpt lat="50.741315670311451" lon="4.416908249258995">
        <ele>112.93000000000001</ele>
        <time>2019-04-14T13:54:29Z</time>
      </trkpt>
      <trkpt lat="50.741334361955523" lon="4.416927108541131">
        <ele>112.91</ele>
        <time>2019-04-14T13:54:30Z</time>
      </trkpt>
      <trkpt lat="50.741364201530814" lon="4.416978992521763">
        <ele>112.84</ele>
        <time>2019-04-14T13:54:33Z</time>
      </trkpt>
      <trkpt lat="50.741517590358853" lon="4.417265905067325">
        <ele>112.48</ele>
        <time>2019-04-14T13:54:47Z</time>
      </trkpt>
      <trkpt lat="50.741626219823956" lon="4.417419042438269">
        <ele>112.34</ele>
        <time>2019-04-14T13:54:53Z</time>
      </trkpt>
      <trkpt lat="50.74222250841558" lon="4.418362341821194">
        <ele>108.84</ele>
        <time>2019-04-14T13:55:29Z</time>
      </trkpt>
      <trkpt lat="50.742254192009568" lon="4.41841590218246">
        <ele>108.81999999999999</ele>
        <time>2019-04-14T13:55:30Z</time>
      </trkpt>
      <trkpt lat="50.74232267215848" lon="4.418518831953406">
        <ele>108.75</ele>
        <time>2019-04-14T13:55:32Z</time>
      </trkpt>
      <trkpt lat="50.742360055446625" lon="4.418569291010499">
        <ele>107.88</ele>
        <time>2019-04-14T13:55:33Z</time>
      </trkpt>
      <trkpt lat="50.742382938042283" lon="4.418634083122015">
        <ele>107.87</ele>
        <time>2019-04-14T13:55:34Z</time>
      </trkpt>
      <trkpt lat="50.742407497018576" lon="4.418694684281945">
        <ele>107.84999999999999</ele>
        <time>2019-04-14T13:55:35Z</time>
      </trkpt>
      <trkpt lat="50.742608159780502" lon="4.419026859104633">
        <ele>107.7</ele>
        <time>2019-04-14T13:55:44Z</time>
      </trkpt>
      <trkpt lat="50.742645375430584" lon="4.419071953743696">
        <ele>107.67</ele>
        <time>2019-04-14T13:55:45Z</time>
      </trkpt>
      <trkpt lat="50.742677059024572" lon="4.419112103059888">
        <ele>107.63</ele>
        <time>2019-04-14T13:55:46Z</time>
      </trkpt>
      <trkpt lat="50.742704467847943" lon="4.419163735583425">
        <ele>107.61</ele>
        <time>2019-04-14T13:55:47Z</time>
      </trkpt>
      <trkpt lat="50.742860371246934" lon="4.419352244585753">
        <ele>106.61</ele>
        <time>2019-04-14T13:55:52Z</time>
      </trkpt>
      <trkpt lat="50.742885768413544" lon="4.419383257627487">
        <ele>106.56999999999999</ele>
        <time>2019-04-14T13:55:53Z</time>
      </trkpt>
      <trkpt lat="50.742909237742424" lon="4.419403038918972">
        <ele>106.53</ele>
        <time>2019-04-14T13:55:54Z</time>
      </trkpt>
      <trkpt lat="50.742921307682991" lon="4.419425586238504">
        <ele>105.70999999999999</ele>
        <time>2019-04-14T13:55:55Z</time>
      </trkpt>
      <trkpt lat="50.742945363745093" lon="4.419440841302276">
        <ele>105.68000000000001</ele>
        <time>2019-04-14T13:55:56Z</time>
      </trkpt>
      <trkpt lat="50.742973275482655" lon="4.419458778575063">
        <ele>105.64</ele>
        <time>2019-04-14T13:55:57Z</time>
      </trkpt>
      <trkpt lat="50.743265887722373" lon="4.41965801641345">
        <ele>105.37</ele>
        <time>2019-04-14T13:56:06Z</time>
      </trkpt>
      <trkpt lat="50.74334635399282" lon="4.419708140194416">
        <ele>105.31</ele>
        <time>2019-04-14T13:56:08Z</time>
      </trkpt>
      <trkpt lat="50.743392957374454" lon="4.419736806303263">
        <ele>105.23999999999999</ele>
        <time>2019-04-14T13:56:09Z</time>
      </trkpt>
      <trkpt lat="50.743441572412848" lon="4.41976111382246">
        <ele>105.2</ele>
        <time>2019-04-14T13:56:10Z</time>
      </trkpt>
      <trkpt lat="50.743478117510676" lon="4.41978408023715">
        <ele>105.16</ele>
        <time>2019-04-14T13:56:11Z</time>
      </trkpt>
      <trkpt lat="50.743521032854915" lon="4.419828504323959">
        <ele>105.11</ele>
        <time>2019-04-14T13:56:12Z</time>
      </trkpt>
      <trkpt lat="50.743548609316349" lon="4.419857924804092">
        <ele>105.06999999999999</ele>
        <time>2019-04-14T13:56:13Z</time>
      </trkpt>
      <trkpt lat="50.743570066988468" lon="4.419902684167028">
        <ele>104.02</ele>
        <time>2019-04-14T13:56:14Z</time>
      </trkpt>
      <trkpt lat="50.743600996211171" lon="4.419944006949663">
        <ele>103.97</ele>
        <time>2019-04-14T13:56:15Z</time>
      </trkpt>
      <trkpt lat="50.743637792766094" lon="4.420007038861513">
        <ele>103.87</ele>
        <time>2019-04-14T13:56:16Z</time>
      </trkpt>
      <trkpt lat="50.744149088859558" lon="4.420613721013069">
        <ele>99.689999999999998</ele>
        <time>2019-04-14T13:56:28Z</time>
      </trkpt>
      <trkpt lat="50.744216395542026" lon="4.420653032138944">
        <ele>99.700000000000003</ele>
        <time>2019-04-14T13:56:29Z</time>
      </trkpt>
      <trkpt lat="50.744318570941687" lon="4.420738443732262">
        <ele>99.640000000000001</ele>
        <time>2019-04-14T13:56:31Z</time>
      </trkpt>
      <trkpt lat="50.744359726086259" lon="4.42081505432725">
        <ele>99.590000000000003</ele>
        <time>2019-04-14T13:56:32Z</time>
      </trkpt>
      <trkpt lat="50.74438470415771" lon="4.420863082632422">
        <ele>99.540000000000006</ele>
        <time>2019-04-14T13:56:33Z</time>
      </trkpt>
      <trkpt lat="50.744418483227491" lon="4.420913457870483">
        <ele>99.480000000000004</ele>
        <time>2019-04-14T13:56:34Z</time>
      </trkpt>
      <trkpt lat="50.744462069123983" lon="4.420972298830748">
        <ele>99.409999999999997</ele>
        <time>2019-04-14T13:56:35Z</time>
      </trkpt>
      <trkpt lat="50.744486711919308" lon="4.421062991023064">
        <ele>99.420000000000002</ele>
        <time>2019-04-14T13:56:36Z</time>
      </trkpt>
      <trkpt lat="50.744588049128652" lon="4.421312268823385">
        <ele>99.219999999999999</ele>
        <time>2019-04-14T13:56:39Z</time>
      </trkpt>
      <trkpt lat="50.745322974398732" lon="4.422534685581923">
        <ele>97.230000000000004</ele>
        <time>2019-04-14T13:56:58Z</time>
      </trkpt>
      <trkpt lat="50.745371337980032" lon="4.422592017799616">
        <ele>97.159999999999997</ele>
        <time>2019-04-14T13:56:59Z</time>
      </trkpt>
      <trkpt lat="50.745419198647141" lon="4.422635100781918">
        <ele>97.099999999999994</ele>
        <time>2019-04-14T13:57:00Z</time>
      </trkpt>
      <trkpt lat="50.745530091226101" lon="4.422835344448686">
        <ele>95.900000000000006</ele>
        <time>2019-04-14T13:57:03Z</time>
      </trkpt>
      <trkpt lat="50.745944324880838" lon="4.423503298312426">
        <ele>94.260000000000005</ele>
        <time>2019-04-14T13:57:15Z</time>
      </trkpt>
      <trkpt lat="50.745996292680502" lon="4.423549231141806">
        <ele>94.189999999999998</ele>
        <time>2019-04-14T13:57:16Z</time>
      </trkpt>
      <trkpt lat="50.746040213853121" lon="4.423627182841301">
        <ele>94.129999999999995</ele>
        <time>2019-04-14T13:57:17Z</time>
      </trkpt>
      <trkpt lat="50.746110789477825" lon="4.423683676868677">
        <ele>94.060000000000002</ele>
        <time>2019-04-14T13:57:18Z</time>
      </trkpt>
      <trkpt lat="50.746168792247772" lon="4.423733297735453">
        <ele>94.010000000000005</ele>
        <time>2019-04-14T13:57:19Z</time>
      </trkpt>
      <trkpt lat="50.746259819716215" lon="4.423813764005899">
        <ele>93.849999999999994</ele>
        <time>2019-04-14T13:57:21Z</time>
      </trkpt>
      <trkpt lat="50.746425613760948" lon="4.423929350450635">
        <ele>93.579999999999998</ele>
        <time>2019-04-14T13:57:24Z</time>
      </trkpt>
      <trkpt lat="50.746821155771613" lon="4.424365041777492">
        <ele>92.200000000000003</ele>
        <time>2019-04-14T13:57:32Z</time>
      </trkpt>
      <trkpt lat="50.746996169909835" lon="4.424520861357451">
        <ele>91.959999999999994</ele>
        <time>2019-04-14T13:57:36Z</time>
      </trkpt>
      <trkpt lat="50.747024416923523" lon="4.424541313201189">
        <ele>91.890000000000001</ele>
        <time>2019-04-14T13:57:37Z</time>
      </trkpt>
      <trkpt lat="50.748082296922803" lon="4.425339102745056">
        <ele>89.540000000000006</ele>
        <time>2019-04-14T13:58:31Z</time>
      </trkpt>
      <trkpt lat="50.748310117051005" lon="4.425543453544378">
        <ele>89.25</ele>
        <time>2019-04-14T13:58:47Z</time>
      </trkpt>
      <trkpt lat="50.748465182259679" lon="4.425578154623509">
        <ele>89.060000000000002</ele>
        <time>2019-04-14T13:58:58Z</time>
      </trkpt>
      <trkpt lat="50.749732358381152" lon="4.426112584769726">
        <ele>84.950000000000003</ele>
        <time>2019-04-14T14:00:52Z</time>
      </trkpt>
      <trkpt lat="50.750031089410186" lon="4.426288772374392">
        <ele>83.700000000000003</ele>
        <time>2019-04-14T14:01:12Z</time>
      </trkpt>
      <trkpt lat="50.750295873731375" lon="4.426426822319627">
        <ele>83.230000000000004</ele>
        <time>2019-04-14T14:01:33Z</time>
      </trkpt>
      <trkpt lat="50.750481365248561" lon="4.426570320501924">
        <ele>81.150000000000006</ele>
        <time>2019-04-14T14:01:47Z</time>
      </trkpt>
      <trkpt lat="50.750576667487621" lon="4.42664441652596">
        <ele>79.859999999999999</ele>
        <time>2019-04-14T14:02:02Z</time>
      </trkpt>
      <trkpt lat="50.750774061307311" lon="4.426794787868857">
        <ele>79.569999999999993</ele>
        <time>2019-04-14T14:02:18Z</time>
      </trkpt>
      <trkpt lat="50.751306815072894" lon="4.427142888307571">
        <ele>78.420000000000002</ele>
        <time>2019-04-14T14:02:56Z</time>
      </trkpt>
      <trkpt lat="50.751519212499261" lon="4.427290158346295">
        <ele>76.900000000000006</ele>
        <time>2019-04-14T14:03:12Z</time>
      </trkpt>
      <trkpt lat="50.751812243834138" lon="4.4274125341326">
        <ele>76.390000000000001</ele>
        <time>2019-04-14T14:03:32Z</time>
      </trkpt>
      <trkpt lat="50.751836048439145" lon="4.427437847480178">
        <ele>76.359999999999999</ele>
        <time>2019-04-14T14:03:35Z</time>
      </trkpt>
      <trkpt lat="50.751877790316939" lon="4.427468022331595">
        <ele>76.280000000000001</ele>
        <time>2019-04-14T14:03:39Z</time>
      </trkpt>
      <trkpt lat="50.752072837203741" lon="4.427610766142607">
        <ele>75.760000000000005</ele>
        <time>2019-04-14T14:03:53Z</time>
      </trkpt>
      <trkpt lat="50.752344997599721" lon="4.427725011482835">
        <ele>77.650000000000006</ele>
        <time>2019-04-14T14:04:12Z</time>
      </trkpt>
      <trkpt lat="50.752531746402383" lon="4.427836909890175">
        <ele>77.140000000000001</ele>
        <time>2019-04-14T14:04:31Z</time>
      </trkpt>
      <trkpt lat="50.752744311466813" lon="4.427961464971304">
        <ele>76.650000000000006</ele>
        <time>2019-04-14T14:04:48Z</time>
      </trkpt>
      <trkpt lat="50.752953859046102" lon="4.42817872390151">
        <ele>76.109999999999999</ele>
        <time>2019-04-14T14:05:04Z</time>
      </trkpt>
      <trkpt lat="50.753498179838061" lon="4.4284538179636">
        <ele>75.519999999999996</ele>
        <time>2019-04-14T14:05:21Z</time>
      </trkpt>
      <trkpt lat="50.75370529666543" lon="4.428286934271455">
        <ele>72.689999999999998</ele>
        <time>2019-04-14T14:05:42Z</time>
      </trkpt>
      <trkpt lat="50.753993047401309" lon="4.427545387297869">
        <ele>68.700000000000003</ele>
        <time>2019-04-14T14:08:06Z</time>
      </trkpt>
      <trkpt lat="50.755081940442324" lon="4.428730085492134">
        <ele>66.709999999999994</ele>
        <time>2019-04-14T14:09:37Z</time>
      </trkpt>
      <trkpt lat="50.75572432950139" lon="4.429331235587597">
        <ele>66.310000000000002</ele>
        <time>2019-04-14T14:10:00Z</time>
      </trkpt>
      <trkpt lat="50.756687577813864" lon="4.429864743724465">
        <ele>69.140000000000001</ele>
        <time>2019-04-14T14:10:32Z</time>
      </trkpt>
      <trkpt lat="50.757252015173435" lon="4.430282078683376">
        <ele>69.870000000000005</ele>
        <time>2019-04-14T14:10:41Z</time>
      </trkpt>
      <trkpt lat="50.758375776931643" lon="4.431507345288992">
        <ele>68.140000000000001</ele>
        <time>2019-04-14T14:12:09Z</time>
      </trkpt>
      <trkpt lat="50.758986314758658" lon="4.432264650240541">
        <ele>68.390000000000001</ele>
        <time>2019-04-14T14:13:00Z</time>
      </trkpt>
      <trkpt lat="50.759877730160952" lon="4.432991277426481">
        <ele>65.510000000000005</ele>
        <time>2019-04-14T14:14:42Z</time>
      </trkpt>
      <trkpt lat="50.760778030380607" lon="4.433649424463511">
        <ele>71.189999999999998</ele>
        <time>2019-04-14T14:16:02Z</time>
      </trkpt>
      <trkpt lat="50.761195365339518" lon="4.433747744187713">
        <ele>71.290000000000006</ele>
        <time>2019-04-14T14:16:16Z</time>
      </trkpt>
      <trkpt lat="50.761498203501105" lon="4.43382577970624">
        <ele>71.329999999999998</ele>
        <time>2019-04-14T14:16:27Z</time>
      </trkpt>
      <trkpt lat="50.761824510991573" lon="4.433891074731946">
        <ele>71.379999999999995</ele>
        <time>2019-04-14T14:16:39Z</time>
      </trkpt>
      <trkpt lat="50.761985527351499" lon="4.434157116338611">
        <ele>71.420000000000002</ele>
        <time>2019-04-14T14:16:47Z</time>
      </trkpt>
      <trkpt lat="50.761955939233303" lon="4.434362724423409">
        <ele>71.450000000000003</ele>
        <time>2019-04-14T14:16:52Z</time>
      </trkpt>
      <trkpt lat="50.762002291157842" lon="4.434866225346923">
        <ele>71.569999999999993</ele>
        <time>2019-04-14T14:17:05Z</time>
      </trkpt>
      <trkpt lat="50.762048223987222" lon="4.435517834499478">
        <ele>71.689999999999998</ele>
        <time>2019-04-14T14:17:18Z</time>
      </trkpt>
      <trkpt lat="50.762130031362176" lon="4.43626943975687">
        <ele>71.819999999999993</ele>
        <time>2019-04-14T14:17:33Z</time>
      </trkpt>
      <trkpt lat="50.7622323743999" lon="4.43694912828505">
        <ele>71.939999999999998</ele>
        <time>2019-04-14T14:17:46Z</time>
      </trkpt>
      <trkpt lat="50.762279815971851" lon="4.437166135758162">
        <ele>72.790000000000006</ele>
        <time>2019-04-14T14:17:54Z</time>
      </trkpt>
      <trkpt lat="50.762268751859665" lon="4.437190610915422">
        <ele>72.790000000000006</ele>
        <time>2019-04-14T14:17:55Z</time>
      </trkpt>
      <trkpt lat="50.762258442118764" lon="4.437211649492383">
        <ele>72.819999999999993</ele>
        <time>2019-04-14T14:17:56Z</time>
      </trkpt>
      <trkpt lat="50.762251988053322" lon="4.437234532088041">
        <ele>72.799999999999997</ele>
        <time>2019-04-14T14:17:57Z</time>
      </trkpt>
      <trkpt lat="50.762246623635292" lon="4.437253726646304">
        <ele>72.829999999999998</ele>
        <time>2019-04-14T14:17:58Z</time>
      </trkpt>
      <trkpt lat="50.762245953083038" lon="4.437282141298056">
        <ele>72.810000000000002</ele>
        <time>2019-04-14T14:17:59Z</time>
      </trkpt>
      <trkpt lat="50.762239331379533" lon="4.43730141967535">
        <ele>72.849999999999994</ele>
        <time>2019-04-14T14:18:00Z</time>
      </trkpt>
      <trkpt lat="50.762187195941806" lon="4.437502920627594">
        <ele>73.049999999999997</ele>
        <time>2019-04-14T14:18:13Z</time>
      </trkpt>
      <trkpt lat="50.76209650374949" lon="4.437728142365813">
        <ele>69.909999999999997</ele>
        <time>2019-04-14T14:18:25Z</time>
      </trkpt>
      <trkpt lat="50.762082925066352" lon="4.437753120437264">
        <ele>74.810000000000002</ele>
        <time>2019-04-14T14:18:26Z</time>
      </trkpt>
      <trkpt lat="50.762061048299074" lon="4.437813302502036">
        <ele>71.980000000000004</ele>
        <time>2019-04-14T14:18:29Z</time>
      </trkpt>
      <trkpt lat="50.762024587020278" lon="4.438129048794508">
        <ele>72.189999999999998</ele>
        <time>2019-04-14T14:18:43Z</time>
      </trkpt>
      <trkpt lat="50.762001117691398" lon="4.438268104568124">
        <ele>72.319999999999993</ele>
        <time>2019-04-14T14:18:50Z</time>
      </trkpt>
      <trkpt lat="50.762105723842978" lon="4.438397940248251">
        <ele>72.480000000000004</ele>
        <time>2019-04-14T14:19:02Z</time>
      </trkpt>
      <trkpt lat="50.762220053002238" lon="4.438472706824541">
        <ele>72.620000000000005</ele>
        <time>2019-04-14T14:19:13Z</time>
      </trkpt>
      <trkpt lat="50.762369753792882" lon="4.438621820881963">
        <ele>72.790000000000006</ele>
        <time>2019-04-14T14:19:28Z</time>
      </trkpt>
      <trkpt lat="50.762341422960162" lon="4.43870815448463">
        <ele>72.890000000000001</ele>
        <time>2019-04-14T14:19:40Z</time>
      </trkpt>
      <trkpt lat="50.762331699952483" lon="4.438680913299322">
        <ele>70.75</ele>
        <time>2019-04-14T14:19:45Z</time>
      </trkpt>
      <trkpt lat="50.762187531217933" lon="4.438718548044562">
        <ele>69.689999999999998</ele>
        <time>2019-04-14T14:19:59Z</time>
      </trkpt>
      <trkpt lat="50.762024167925119" lon="4.438981991261244">
        <ele>68.230000000000004</ele>
        <time>2019-04-14T14:20:19Z</time>
      </trkpt>
      <trkpt lat="50.761861810460687" lon="4.439460765570402">
        <ele>66.030000000000001</ele>
        <time>2019-04-14T14:20:42Z</time>
      </trkpt>
      <trkpt lat="50.761861810460687" lon="4.439460765570402">
        <ele>66.019999999999996</ele>
        <time>2019-04-14T14:20:43Z</time>
      </trkpt>
      <trkpt lat="50.761874718591571" lon="4.439722029492259">
        <ele>66.069999999999993</ele>
        <time>2019-04-14T14:20:47Z</time>
      </trkpt>
      <trkpt lat="50.761597948148847" lon="4.440424097701907">
        <ele>68.390000000000001</ele>
        <time>2019-04-14T14:21:34Z</time>
      </trkpt>
      <trkpt lat="50.761569617316127" lon="4.440731797367334">
        <ele>67.75</ele>
        <time>2019-04-14T14:21:53Z</time>
      </trkpt>
      <trkpt lat="50.761684533208609" lon="4.440941512584686">
        <ele>67.810000000000002</ele>
        <time>2019-04-14T14:22:12Z</time>
      </trkpt>
      <trkpt lat="50.761847645044327" lon="4.44124954752624">
        <ele>67.879999999999995</ele>
        <time>2019-04-14T14:22:31Z</time>
      </trkpt>
      <trkpt lat="50.761970523744822" lon="4.441492790356278">
        <ele>67.909999999999997</ele>
        <time>2019-04-14T14:22:48Z</time>
      </trkpt>
      <trkpt lat="50.76220840215683" lon="4.441794455051422">
        <ele>67.909999999999997</ele>
        <time>2019-04-14T14:23:06Z</time>
      </trkpt>
      <trkpt lat="50.762244863435626" lon="4.441836113110185">
        <ele>67.900000000000006</ele>
        <time>2019-04-14T14:23:08Z</time>
      </trkpt>
      <trkpt lat="50.762374866753817" lon="4.441991094499826">
        <ele>67.900000000000006</ele>
        <time>2019-04-14T14:23:14Z</time>
      </trkpt>
      <trkpt lat="50.762386852875352" lon="4.442040212452412">
        <ele>67.900000000000006</ele>
        <time>2019-04-14T14:23:15Z</time>
      </trkpt>
      <trkpt lat="50.762401269748807" lon="4.442069716751576">
        <ele>67.900000000000006</ele>
        <time>2019-04-14T14:23:16Z</time>
      </trkpt>
      <trkpt lat="50.762419458478689" lon="4.442088156938553">
        <ele>67.890000000000001</ele>
        <time>2019-04-14T14:23:17Z</time>
      </trkpt>
      <trkpt lat="50.762433456256986" lon="4.442117493599653">
        <ele>67.890000000000001</ele>
        <time>2019-04-14T14:23:18Z</time>
      </trkpt>
      <trkpt lat="50.762451896443963" lon="4.442143477499485">
        <ele>67.890000000000001</ele>
        <time>2019-04-14T14:23:19Z</time>
      </trkpt>
      <trkpt lat="50.76246740296483" lon="4.44216912612319">
        <ele>67.879999999999995</ele>
        <time>2019-04-14T14:23:20Z</time>
      </trkpt>
      <trkpt lat="50.762482238933444" lon="4.442212209105492">
        <ele>67.879999999999995</ele>
        <time>2019-04-14T14:23:21Z</time>
      </trkpt>
      <trkpt lat="50.762497996911407" lon="4.44225512444973">
        <ele>67.879999999999995</ele>
        <time>2019-04-14T14:23:22Z</time>
      </trkpt>
      <trkpt lat="50.762509312480688" lon="4.44227809086442">
        <ele>67.870000000000005</ele>
        <time>2019-04-14T14:23:23Z</time>
      </trkpt>
      <trkpt lat="50.762531105428934" lon="4.442300386726856">
        <ele>67.870000000000005</ele>
        <time>2019-04-14T14:23:24Z</time>
      </trkpt>
      <trkpt lat="50.762628167867661" lon="4.442446734756231">
        <ele>67.840000000000003</ele>
        <time>2019-04-14T14:23:30Z</time>
      </trkpt>
      <trkpt lat="50.762637387961149" lon="4.442480765283108">
        <ele>67.829999999999998</ele>
        <time>2019-04-14T14:23:31Z</time>
      </trkpt>
      <trkpt lat="50.762667646631598" lon="4.442528961226344">
        <ele>67.810000000000002</ele>
        <time>2019-04-14T14:23:33Z</time>
      </trkpt>
      <trkpt lat="50.762684661895037" lon="4.442576989531517">
        <ele>67.810000000000002</ele>
        <time>2019-04-14T14:23:34Z</time>
      </trkpt>
      <trkpt lat="50.762781640514731" lon="4.442736664786935">
        <ele>67.030000000000001</ele>
        <time>2019-04-14T14:23:38Z</time>
      </trkpt>
      <trkpt lat="50.762810222804546" lon="4.442763235419989">
        <ele>67.019999999999996</ele>
        <time>2019-04-14T14:23:39Z</time>
      </trkpt>
      <trkpt lat="50.762843498960137" lon="4.442804558202624">
        <ele>67.010000000000005</ele>
        <time>2019-04-14T14:23:40Z</time>
      </trkpt>
      <trkpt lat="50.762895802035928" lon="4.442856190726161">
        <ele>67.010000000000005</ele>
        <time>2019-04-14T14:23:41Z</time>
      </trkpt>
      <trkpt lat="50.762948440387845" lon="4.442882677540183">
        <ele>66.989999999999995</ele>
        <time>2019-04-14T14:23:42Z</time>
      </trkpt>
      <trkpt lat="50.763052878901362" lon="4.442986780777574">
        <ele>66.969999999999999</ele>
        <time>2019-04-14T14:23:45Z</time>
      </trkpt>
      <trkpt lat="50.763085735961795" lon="4.443021565675736">
        <ele>66.969999999999999</ele>
        <time>2019-04-14T14:23:46Z</time>
      </trkpt>
      <trkpt lat="50.763115910813212" lon="4.443061295896769">
        <ele>66.959999999999994</ele>
        <time>2019-04-14T14:23:47Z</time>
      </trkpt>
      <trkpt lat="50.763150695711374" lon="4.443086106330156">
        <ele>66.959999999999994</ele>
        <time>2019-04-14T14:23:48Z</time>
      </trkpt>
      <trkpt lat="50.763170141726732" lon="4.443118711933494">
        <ele>66.959999999999994</ele>
        <time>2019-04-14T14:23:49Z</time>
      </trkpt>
      <trkpt lat="50.763215152546763" lon="4.443138493224978">
        <ele>66.950000000000003</ele>
        <time>2019-04-14T14:23:51Z</time>
      </trkpt>
      <trkpt lat="50.763236191123724" lon="4.443150730803609">
        <ele>66.950000000000003</ele>
        <time>2019-04-14T14:23:52Z</time>
      </trkpt>
      <trkpt lat="50.763272568583488" lon="4.443191299214959">
        <ele>66.950000000000003</ele>
        <time>2019-04-14T14:23:53Z</time>
      </trkpt>
      <trkpt lat="50.763299223035574" lon="4.443190461024642">
        <ele>66.950000000000003</ele>
        <time>2019-04-14T14:23:54Z</time>
      </trkpt>
      <trkpt lat="50.763355968520045" lon="4.443271262571216">
        <ele>66.939999999999998</ele>
        <time>2019-04-14T14:23:56Z</time>
      </trkpt>
      <trkpt lat="50.763856284320354" lon="4.444078356027603">
        <ele>66.900000000000006</ele>
        <time>2019-04-14T14:24:21Z</time>
      </trkpt>
      <trkpt lat="50.763859888538718" lon="4.444110877811909">
        <ele>66.890000000000001</ele>
        <time>2019-04-14T14:24:23Z</time>
      </trkpt>
      <trkpt lat="50.763987544924021" lon="4.444394102320075">
        <ele>66.930000000000007</ele>
        <time>2019-04-14T14:24:39Z</time>
      </trkpt>
      <trkpt lat="50.764179155230522" lon="4.444732312113047">
        <ele>67.030000000000001</ele>
        <time>2019-04-14T14:24:52Z</time>
      </trkpt>
      <trkpt lat="50.764318546280265" lon="4.445035317912698">
        <ele>67.200000000000003</ele>
        <time>2019-04-14T14:25:08Z</time>
      </trkpt>
      <trkpt lat="50.764444191008806" lon="4.445424992591143">
        <ele>67.480000000000004</ele>
        <time>2019-04-14T14:25:31Z</time>
      </trkpt>
      <trkpt lat="50.76455625705421" lon="4.445774517953396">
        <ele>67.810000000000002</ele>
        <time>2019-04-14T14:25:56Z</time>
      </trkpt>
      <trkpt lat="50.764700090512633" lon="4.446130413562059">
        <ele>67.230000000000004</ele>
        <time>2019-04-14T14:26:18Z</time>
      </trkpt>
      <trkpt lat="50.76477468945086" lon="4.446374913677573">
        <ele>66.530000000000001</ele>
        <time>2019-04-14T14:26:29Z</time>
      </trkpt>
      <trkpt lat="50.764817856252193" lon="4.446546155959368">
        <ele>65.780000000000001</ele>
        <time>2019-04-14T14:26:36Z</time>
      </trkpt>
      <trkpt lat="50.764862867072225" lon="4.44663668051362">
        <ele>65.010000000000005</ele>
        <time>2019-04-14T14:26:44Z</time>
      </trkpt>
      <trkpt lat="50.765037965029478" lon="4.446996850892901">
        <ele>64.430000000000007</ele>
        <time>2019-04-14T14:27:03Z</time>
      </trkpt>
      <trkpt lat="50.765328481793404" lon="4.447728004306555">
        <ele>63.229999999999997</ele>
        <time>2019-04-14T14:27:51Z</time>
      </trkpt>
      <trkpt lat="50.765399979427457" lon="4.447942581027746">
        <ele>62.609999999999999</ele>
        <time>2019-04-14T14:28:13Z</time>
      </trkpt>
      <trkpt lat="50.76560391113162" lon="4.448367208242416">
        <ele>62</ele>
        <time>2019-04-14T14:28:34Z</time>
      </trkpt>
      <trkpt lat="50.765650598332286" lon="4.448461253196001">
        <ele>62.039999999999999</ele>
        <time>2019-04-14T14:28:38Z</time>
      </trkpt>
      <trkpt lat="50.765838688239455" lon="4.448913121595979">
        <ele>60.729999999999997</ele>
        <time>2019-04-14T14:29:03Z</time>
      </trkpt>
      <trkpt lat="50.765920327976346" lon="4.449172457680106">
        <ele>58.689999999999998</ele>
        <time>2019-04-14T14:29:17Z</time>
      </trkpt>
      <trkpt lat="50.765997106209397" lon="4.449459537863731">
        <ele>57.350000000000001</ele>
        <time>2019-04-14T14:29:33Z</time>
      </trkpt>
      <trkpt lat="50.766004398465157" lon="4.449473954737186">
        <ele>57.350000000000001</ele>
        <time>2019-04-14T14:29:34Z</time>
      </trkpt>
      <trkpt lat="50.766148399561644" lon="4.449852900579572">
        <ele>57.5</ele>
        <time>2019-04-14T14:29:46Z</time>
      </trkpt>
      <trkpt lat="50.766152171418071" lon="4.449897576123476">
        <ele>57.509999999999998</ele>
        <time>2019-04-14T14:29:47Z</time>
      </trkpt>
      <trkpt lat="50.766183184459805" lon="4.449940323829651">
        <ele>57.539999999999999</ele>
        <time>2019-04-14T14:29:49Z</time>
      </trkpt>
      <trkpt lat="50.766198355704546" lon="4.449959602206945">
        <ele>57.549999999999997</ele>
        <time>2019-04-14T14:29:50Z</time>
      </trkpt>
      <trkpt lat="50.766215203329921" lon="4.449984664097428">
        <ele>57.560000000000002</ele>
        <time>2019-04-14T14:29:51Z</time>
      </trkpt>
      <trkpt lat="50.766259375959635" lon="4.449980724602938">
        <ele>59.969999999999999</ele>
        <time>2019-04-14T14:29:54Z</time>
      </trkpt>
      <trkpt lat="50.766512341797352" lon="4.449437744915485">
        <ele>61.18</ele>
        <time>2019-04-14T14:30:27Z</time>
      </trkpt>
      <trkpt lat="50.766529608517885" lon="4.449341269209981">
        <ele>61.240000000000002</ele>
        <time>2019-04-14T14:30:32Z</time>
      </trkpt>
      <trkpt lat="50.766547545790672" lon="4.449285194277763">
        <ele>62.109999999999999</ele>
        <time>2019-04-14T14:30:35Z</time>
      </trkpt>
      <trkpt lat="50.766623318195343" lon="4.449098529294133">
        <ele>62.210000000000001</ele>
        <time>2019-04-14T14:30:45Z</time>
      </trkpt>
      <trkpt lat="50.76672775670886" lon="4.448394365608692">
        <ele>86.120000000000005</ele>
        <time>2019-04-14T15:27:23Z</time>
      </trkpt>
    </trkseg>
  </trk>

</gpx>